<?xml version="1.0" encoding="UTF-8" standalone="no" ?>
<gpx xmlns="http://www.topografix.com/GPX/1/1" xmlns:xsi="http://www.w3.org/2001/XMLSchema-instance" xsi:schemaLocation="http://www.topografix.com/GPX/1/1 http://www.topografix.com/GPX/1/1/gpx.xsd" version="1.1" creator="VisuGPX - https://www.visugpx.com">
  <metadata>
    <name>Stevenson - Chasseradès - Station du Mont Lozère</name>
    <desc><![CDATA[Etape 4 - ASVEL Ski Montagne le 22 Mai 2012]]></desc>
  </metadata>
  <trk>
    <name><![CDATA[ACTIVE LOG064502]]></name>
    <trkseg>
      <trkpt lat="44.55004" lon="3.83114">
        <ele>1171.833</ele>
        <time>2012-05-22T06:45:19Z</time>
      </trkpt>
      <trkpt lat="44.54999" lon="3.83116">
        <ele>1173.144</ele>
        <time>2012-05-22T06:50:57Z</time>
      </trkpt>
      <trkpt lat="44.54998" lon="3.83107">
        <ele>1172.231</ele>
        <time>2012-05-22T06:51:11Z</time>
      </trkpt>
      <trkpt lat="44.54998" lon="3.83102">
        <ele>1173.114</ele>
        <time>2012-05-22T06:51:26Z</time>
      </trkpt>
      <trkpt lat="44.54996" lon="3.83087">
        <ele>1173.042</ele>
        <time>2012-05-22T06:51:35Z</time>
      </trkpt>
      <trkpt lat="44.54995" lon="3.83082">
        <ele>1173.373</ele>
        <time>2012-05-22T06:51:38Z</time>
      </trkpt>
      <trkpt lat="44.5499" lon="3.83078">
        <ele>1172.859</ele>
        <time>2012-05-22T06:51:43Z</time>
      </trkpt>
      <trkpt lat="44.54988" lon="3.83068">
        <ele>1172.665</ele>
        <time>2012-05-22T06:51:56Z</time>
      </trkpt>
      <trkpt lat="44.54984" lon="3.83035">
        <ele>1172.55</ele>
        <time>2012-05-22T06:52:15Z</time>
      </trkpt>
      <trkpt lat="44.54984" lon="3.83033">
        <ele>1172.78</ele>
        <time>2012-05-22T06:52:17Z</time>
      </trkpt>
      <trkpt lat="44.54981" lon="3.82993">
        <ele>1172.113</ele>
        <time>2012-05-22T06:52:40Z</time>
      </trkpt>
      <trkpt lat="44.54982" lon="3.82958">
        <ele>1171.789</ele>
        <time>2012-05-22T06:53:00Z</time>
      </trkpt>
      <trkpt lat="44.54992" lon="3.82906">
        <ele>1170.564</ele>
        <time>2012-05-22T06:53:29Z</time>
      </trkpt>
      <trkpt lat="44.55002" lon="3.82859">
        <ele>1169.379</ele>
        <time>2012-05-22T06:53:55Z</time>
      </trkpt>
      <trkpt lat="44.55002" lon="3.82824">
        <ele>1167.268</ele>
        <time>2012-05-22T06:54:14Z</time>
      </trkpt>
      <trkpt lat="44.55012" lon="3.82799">
        <ele>1166.45</ele>
        <time>2012-05-22T06:54:31Z</time>
      </trkpt>
      <trkpt lat="44.55031" lon="3.82766">
        <ele>1169.866</ele>
        <time>2012-05-22T06:54:56Z</time>
      </trkpt>
      <trkpt lat="44.55044" lon="3.82749">
        <ele>1170.754</ele>
        <time>2012-05-22T06:55:11Z</time>
      </trkpt>
      <trkpt lat="44.55062" lon="3.82711">
        <ele>1169.914</ele>
        <time>2012-05-22T06:55:36Z</time>
      </trkpt>
      <trkpt lat="44.5508" lon="3.82666">
        <ele>1169.367</ele>
        <time>2012-05-22T06:56:05Z</time>
      </trkpt>
      <trkpt lat="44.55086" lon="3.82648">
        <ele>1169.093</ele>
        <time>2012-05-22T06:56:16Z</time>
      </trkpt>
      <trkpt lat="44.55085" lon="3.82638">
        <ele>1168.778</ele>
        <time>2012-05-22T06:56:51Z</time>
      </trkpt>
      <trkpt lat="44.55087" lon="3.82638">
        <ele>1168.829</ele>
        <time>2012-05-22T06:56:53Z</time>
      </trkpt>
      <trkpt lat="44.5509" lon="3.82629">
        <ele>1169.534</ele>
        <time>2012-05-22T06:56:58Z</time>
      </trkpt>
      <trkpt lat="44.55092" lon="3.8259">
        <ele>1168.481</ele>
        <time>2012-05-22T06:57:20Z</time>
      </trkpt>
      <trkpt lat="44.55079" lon="3.82567">
        <ele>1168.9</ele>
        <time>2012-05-22T06:57:42Z</time>
      </trkpt>
      <trkpt lat="44.55078" lon="3.82566">
        <ele>1169.7</ele>
        <time>2012-05-22T06:57:47Z</time>
      </trkpt>
      <trkpt lat="44.55079" lon="3.82563">
        <ele>1169.758</ele>
        <time>2012-05-22T06:57:50Z</time>
      </trkpt>
      <trkpt lat="44.55081" lon="3.82562">
        <ele>1169.705</ele>
        <time>2012-05-22T06:57:52Z</time>
      </trkpt>
      <trkpt lat="44.55087" lon="3.82562">
        <ele>1170.606</ele>
        <time>2012-05-22T06:57:56Z</time>
      </trkpt>
      <trkpt lat="44.55093" lon="3.82563">
        <ele>1171.675</ele>
        <time>2012-05-22T06:58:02Z</time>
      </trkpt>
      <trkpt lat="44.55112" lon="3.82563">
        <ele>1172.311</ele>
        <time>2012-05-22T06:58:20Z</time>
      </trkpt>
      <trkpt lat="44.55116" lon="3.82543">
        <ele>1174.096</ele>
        <time>2012-05-22T06:58:33Z</time>
      </trkpt>
      <trkpt lat="44.55115" lon="3.82537">
        <ele>1174.698</ele>
        <time>2012-05-22T06:58:37Z</time>
      </trkpt>
      <trkpt lat="44.55115" lon="3.82526">
        <ele>1176.516</ele>
        <time>2012-05-22T06:58:45Z</time>
      </trkpt>
      <trkpt lat="44.55117" lon="3.8252">
        <ele>1177.09</ele>
        <time>2012-05-22T06:58:49Z</time>
      </trkpt>
      <trkpt lat="44.55119" lon="3.82513">
        <ele>1178.386</ele>
        <time>2012-05-22T06:58:54Z</time>
      </trkpt>
      <trkpt lat="44.55121" lon="3.8251">
        <ele>1178.213</ele>
        <time>2012-05-22T06:58:58Z</time>
      </trkpt>
      <trkpt lat="44.55122" lon="3.82504">
        <ele>1178.631</ele>
        <time>2012-05-22T06:59:02Z</time>
      </trkpt>
      <trkpt lat="44.55122" lon="3.82486">
        <ele>1179.922</ele>
        <time>2012-05-22T06:59:12Z</time>
      </trkpt>
      <trkpt lat="44.55121" lon="3.82479">
        <ele>1180.401</ele>
        <time>2012-05-22T06:59:17Z</time>
      </trkpt>
      <trkpt lat="44.55125" lon="3.82468">
        <ele>1181.019</ele>
        <time>2012-05-22T06:59:25Z</time>
      </trkpt>
      <trkpt lat="44.55126" lon="3.82465">
        <ele>1182.689</ele>
        <time>2012-05-22T06:59:28Z</time>
      </trkpt>
      <trkpt lat="44.55124" lon="3.82463">
        <ele>1181.401</ele>
        <time>2012-05-22T06:59:30Z</time>
      </trkpt>
      <trkpt lat="44.55119" lon="3.82458">
        <ele>1182.789</ele>
        <time>2012-05-22T06:59:38Z</time>
      </trkpt>
      <trkpt lat="44.55118" lon="3.8245">
        <ele>1180.487</ele>
        <time>2012-05-22T06:59:50Z</time>
      </trkpt>
      <trkpt lat="44.55117" lon="3.82446">
        <ele>1181.135</ele>
        <time>2012-05-22T06:59:52Z</time>
      </trkpt>
      <trkpt lat="44.55117" lon="3.82442">
        <ele>1181.965</ele>
        <time>2012-05-22T07:00:06Z</time>
      </trkpt>
      <trkpt lat="44.55115" lon="3.82434">
        <ele>1182.133</ele>
        <time>2012-05-22T07:00:11Z</time>
      </trkpt>
      <trkpt lat="44.55114" lon="3.82427">
        <ele>1181.263</ele>
        <time>2012-05-22T07:00:15Z</time>
      </trkpt>
      <trkpt lat="44.55113" lon="3.82422">
        <ele>1182.789</ele>
        <time>2012-05-22T07:00:18Z</time>
      </trkpt>
      <trkpt lat="44.55107" lon="3.82389">
        <ele>1184.196</ele>
        <time>2012-05-22T07:00:35Z</time>
      </trkpt>
      <trkpt lat="44.55107" lon="3.82358">
        <ele>1184.611</ele>
        <time>2012-05-22T07:00:51Z</time>
      </trkpt>
      <trkpt lat="44.55103" lon="3.82348">
        <ele>1184.783</ele>
        <time>2012-05-22T07:00:58Z</time>
      </trkpt>
      <trkpt lat="44.55101" lon="3.82341">
        <ele>1184.916</ele>
        <time>2012-05-22T07:01:03Z</time>
      </trkpt>
      <trkpt lat="44.55099" lon="3.82309">
        <ele>1185.41</ele>
        <time>2012-05-22T07:01:21Z</time>
      </trkpt>
      <trkpt lat="44.55097" lon="3.82266">
        <ele>1184.063</ele>
        <time>2012-05-22T07:01:43Z</time>
      </trkpt>
      <trkpt lat="44.55096" lon="3.82259">
        <ele>1183.508</ele>
        <time>2012-05-22T07:01:47Z</time>
      </trkpt>
      <trkpt lat="44.55093" lon="3.82254">
        <ele>1182.841</ele>
        <time>2012-05-22T07:01:51Z</time>
      </trkpt>
      <trkpt lat="44.55092" lon="3.82247">
        <ele>1182.838</ele>
        <time>2012-05-22T07:01:55Z</time>
      </trkpt>
      <trkpt lat="44.55093" lon="3.82207">
        <ele>1179.802</ele>
        <time>2012-05-22T07:02:15Z</time>
      </trkpt>
      <trkpt lat="44.55094" lon="3.82182">
        <ele>1176.266</ele>
        <time>2012-05-22T07:02:27Z</time>
      </trkpt>
      <trkpt lat="44.55097" lon="3.82143">
        <ele>1172.799</ele>
        <time>2012-05-22T07:02:46Z</time>
      </trkpt>
      <trkpt lat="44.55099" lon="3.82105">
        <ele>1169.695</ele>
        <time>2012-05-22T07:03:05Z</time>
      </trkpt>
      <trkpt lat="44.55101" lon="3.8208">
        <ele>1166.586</ele>
        <time>2012-05-22T07:03:18Z</time>
      </trkpt>
      <trkpt lat="44.55103" lon="3.82052">
        <ele>1163.356</ele>
        <time>2012-05-22T07:03:33Z</time>
      </trkpt>
      <trkpt lat="44.55102" lon="3.82008">
        <ele>1160.946</ele>
        <time>2012-05-22T07:03:56Z</time>
      </trkpt>
      <trkpt lat="44.551" lon="3.82002">
        <ele>1160.244</ele>
        <time>2012-05-22T07:03:59Z</time>
      </trkpt>
      <trkpt lat="44.55095" lon="3.81967">
        <ele>1157.752</ele>
        <time>2012-05-22T07:04:17Z</time>
      </trkpt>
      <trkpt lat="44.55093" lon="3.8195">
        <ele>1156.642</ele>
        <time>2012-05-22T07:04:26Z</time>
      </trkpt>
      <trkpt lat="44.55074" lon="3.81911">
        <ele>1154.737</ele>
        <time>2012-05-22T07:04:50Z</time>
      </trkpt>
      <trkpt lat="44.55068" lon="3.81901">
        <ele>1153.29</ele>
        <time>2012-05-22T07:04:56Z</time>
      </trkpt>
      <trkpt lat="44.55066" lon="3.81898">
        <ele>1154.527</ele>
        <time>2012-05-22T07:04:58Z</time>
      </trkpt>
      <trkpt lat="44.55057" lon="3.81887">
        <ele>1151.283</ele>
        <time>2012-05-22T07:05:06Z</time>
      </trkpt>
      <trkpt lat="44.55035" lon="3.8186">
        <ele>1148.079</ele>
        <time>2012-05-22T07:05:25Z</time>
      </trkpt>
      <trkpt lat="44.55002" lon="3.81811">
        <ele>1146.381</ele>
        <time>2012-05-22T07:05:57Z</time>
      </trkpt>
      <trkpt lat="44.54976" lon="3.81779">
        <ele>1143.099</ele>
        <time>2012-05-22T07:06:21Z</time>
      </trkpt>
      <trkpt lat="44.54956" lon="3.81752">
        <ele>1141.861</ele>
        <time>2012-05-22T07:06:42Z</time>
      </trkpt>
      <trkpt lat="44.54949" lon="3.81725">
        <ele>1137.717</ele>
        <time>2012-05-22T07:06:59Z</time>
      </trkpt>
      <trkpt lat="44.54945" lon="3.81706">
        <ele>1137.186</ele>
        <time>2012-05-22T07:07:30Z</time>
      </trkpt>
      <trkpt lat="44.54946" lon="3.81702">
        <ele>1137.104</ele>
        <time>2012-05-22T07:07:33Z</time>
      </trkpt>
      <trkpt lat="44.54945" lon="3.81693">
        <ele>1135.652</ele>
        <time>2012-05-22T07:07:38Z</time>
      </trkpt>
      <trkpt lat="44.54944" lon="3.81689">
        <ele>1136.929</ele>
        <time>2012-05-22T07:07:40Z</time>
      </trkpt>
      <trkpt lat="44.54946" lon="3.81636">
        <ele>1133.596</ele>
        <time>2012-05-22T07:08:06Z</time>
      </trkpt>
      <trkpt lat="44.5495" lon="3.81611">
        <ele>1130.261</ele>
        <time>2012-05-22T07:08:20Z</time>
      </trkpt>
      <trkpt lat="44.54927" lon="3.81605">
        <ele>1127.661</ele>
        <time>2012-05-22T07:08:36Z</time>
      </trkpt>
      <trkpt lat="44.54924" lon="3.81601">
        <ele>1125.56</ele>
        <time>2012-05-22T07:08:39Z</time>
      </trkpt>
      <trkpt lat="44.5492" lon="3.81589">
        <ele>1124.104</ele>
        <time>2012-05-22T07:08:46Z</time>
      </trkpt>
      <trkpt lat="44.54922" lon="3.81581">
        <ele>1122.45</ele>
        <time>2012-05-22T07:08:51Z</time>
      </trkpt>
      <trkpt lat="44.54931" lon="3.8157">
        <ele>1119.103</ele>
        <time>2012-05-22T07:09:00Z</time>
      </trkpt>
      <trkpt lat="44.54932" lon="3.81569">
        <ele>1119.105</ele>
        <time>2012-05-22T07:09:01Z</time>
      </trkpt>
      <trkpt lat="44.54956" lon="3.81561">
        <ele>1116.184</ele>
        <time>2012-05-22T07:09:20Z</time>
      </trkpt>
      <trkpt lat="44.5497" lon="3.8156">
        <ele>1113.758</ele>
        <time>2012-05-22T07:09:31Z</time>
      </trkpt>
      <trkpt lat="44.54976" lon="3.81559">
        <ele>1112.682</ele>
        <time>2012-05-22T07:09:35Z</time>
      </trkpt>
      <trkpt lat="44.54985" lon="3.81555">
        <ele>1111.889</ele>
        <time>2012-05-22T07:09:42Z</time>
      </trkpt>
      <trkpt lat="44.54986" lon="3.81548">
        <ele>1111.173</ele>
        <time>2012-05-22T07:09:48Z</time>
      </trkpt>
      <trkpt lat="44.54983" lon="3.81546">
        <ele>1110.814</ele>
        <time>2012-05-22T07:09:51Z</time>
      </trkpt>
      <trkpt lat="44.54964" lon="3.81538">
        <ele>1107.044</ele>
        <time>2012-05-22T07:10:07Z</time>
      </trkpt>
      <trkpt lat="44.54948" lon="3.81536">
        <ele>1104.733</ele>
        <time>2012-05-22T07:10:22Z</time>
      </trkpt>
      <trkpt lat="44.54921" lon="3.81533">
        <ele>1101.65</ele>
        <time>2012-05-22T07:10:45Z</time>
      </trkpt>
      <trkpt lat="44.54904" lon="3.81519">
        <ele>1098.675</ele>
        <time>2012-05-22T07:11:03Z</time>
      </trkpt>
      <trkpt lat="44.54893" lon="3.81502">
        <ele>1096.658</ele>
        <time>2012-05-22T07:11:18Z</time>
      </trkpt>
      <trkpt lat="44.5488" lon="3.81483">
        <ele>1095.061</ele>
        <time>2012-05-22T07:11:34Z</time>
      </trkpt>
      <trkpt lat="44.54858" lon="3.8146">
        <ele>1093.049</ele>
        <time>2012-05-22T07:11:55Z</time>
      </trkpt>
      <trkpt lat="44.54854" lon="3.81454">
        <ele>1093.103</ele>
        <time>2012-05-22T07:12:02Z</time>
      </trkpt>
      <trkpt lat="44.54851" lon="3.81452">
        <ele>1093.272</ele>
        <time>2012-05-22T07:12:06Z</time>
      </trkpt>
      <trkpt lat="44.54843" lon="3.81455">
        <ele>1092.715</ele>
        <time>2012-05-22T07:12:19Z</time>
      </trkpt>
      <trkpt lat="44.54836" lon="3.81459">
        <ele>1092.33</ele>
        <time>2012-05-22T07:12:25Z</time>
      </trkpt>
      <trkpt lat="44.54816" lon="3.81482">
        <ele>1091.535</ele>
        <time>2012-05-22T07:12:49Z</time>
      </trkpt>
      <trkpt lat="44.54805" lon="3.81496">
        <ele>1091.744</ele>
        <time>2012-05-22T07:13:04Z</time>
      </trkpt>
      <trkpt lat="44.54794" lon="3.81514">
        <ele>1093.072</ele>
        <time>2012-05-22T07:13:23Z</time>
      </trkpt>
      <trkpt lat="44.54779" lon="3.81527">
        <ele>1092.788</ele>
        <time>2012-05-22T07:13:38Z</time>
      </trkpt>
      <trkpt lat="44.54755" lon="3.81541">
        <ele>1093.734</ele>
        <time>2012-05-22T07:14:01Z</time>
      </trkpt>
      <trkpt lat="44.5474" lon="3.8154">
        <ele>1094.814</ele>
        <time>2012-05-22T07:14:17Z</time>
      </trkpt>
      <trkpt lat="44.54727" lon="3.81535">
        <ele>1096.057</ele>
        <time>2012-05-22T07:14:30Z</time>
      </trkpt>
      <trkpt lat="44.54721" lon="3.81532">
        <ele>1096.46</ele>
        <time>2012-05-22T07:14:37Z</time>
      </trkpt>
      <trkpt lat="44.54716" lon="3.81528">
        <ele>1096.872</ele>
        <time>2012-05-22T07:14:46Z</time>
      </trkpt>
      <trkpt lat="44.54711" lon="3.81526">
        <ele>1097.9</ele>
        <time>2012-05-22T07:14:50Z</time>
      </trkpt>
      <trkpt lat="44.54691" lon="3.81522">
        <ele>1099.198</ele>
        <time>2012-05-22T07:15:08Z</time>
      </trkpt>
      <trkpt lat="44.54673" lon="3.81523">
        <ele>1100.446</ele>
        <time>2012-05-22T07:15:25Z</time>
      </trkpt>
      <trkpt lat="44.54651" lon="3.81523">
        <ele>1103.061</ele>
        <time>2012-05-22T07:15:44Z</time>
      </trkpt>
      <trkpt lat="44.54645" lon="3.81524">
        <ele>1104.518</ele>
        <time>2012-05-22T07:15:51Z</time>
      </trkpt>
      <trkpt lat="44.5463" lon="3.81528">
        <ele>1105.729</ele>
        <time>2012-05-22T07:16:05Z</time>
      </trkpt>
      <trkpt lat="44.54614" lon="3.81531">
        <ele>1108.594</ele>
        <time>2012-05-22T07:17:13Z</time>
      </trkpt>
      <trkpt lat="44.54625" lon="3.81516">
        <ele>1110.707</ele>
        <time>2012-05-22T07:17:33Z</time>
      </trkpt>
      <trkpt lat="44.54613" lon="3.81512">
        <ele>1112.539</ele>
        <time>2012-05-22T07:17:48Z</time>
      </trkpt>
      <trkpt lat="44.54605" lon="3.81509">
        <ele>1114.258</ele>
        <time>2012-05-22T07:17:59Z</time>
      </trkpt>
      <trkpt lat="44.54596" lon="3.81499">
        <ele>1114.662</ele>
        <time>2012-05-22T07:18:13Z</time>
      </trkpt>
      <trkpt lat="44.5459" lon="3.81491">
        <ele>1115.286</ele>
        <time>2012-05-22T07:18:23Z</time>
      </trkpt>
      <trkpt lat="44.54582" lon="3.8148">
        <ele>1116.474</ele>
        <time>2012-05-22T07:18:36Z</time>
      </trkpt>
      <trkpt lat="44.5458" lon="3.8148">
        <ele>1117.125</ele>
        <time>2012-05-22T07:18:38Z</time>
      </trkpt>
      <trkpt lat="44.54569" lon="3.81469">
        <ele>1117.837</ele>
        <time>2012-05-22T07:18:54Z</time>
      </trkpt>
      <trkpt lat="44.54559" lon="3.81461">
        <ele>1120.159</ele>
        <time>2012-05-22T07:19:09Z</time>
      </trkpt>
      <trkpt lat="44.54557" lon="3.81459">
        <ele>1119.662</ele>
        <time>2012-05-22T07:19:12Z</time>
      </trkpt>
      <trkpt lat="44.54545" lon="3.81451">
        <ele>1121.47</ele>
        <time>2012-05-22T07:19:30Z</time>
      </trkpt>
      <trkpt lat="44.54542" lon="3.8145">
        <ele>1121.51</ele>
        <time>2012-05-22T07:19:33Z</time>
      </trkpt>
      <trkpt lat="44.54539" lon="3.81448">
        <ele>1121.984</ele>
        <time>2012-05-22T07:19:36Z</time>
      </trkpt>
      <trkpt lat="44.54536" lon="3.81446">
        <ele>1122.873</ele>
        <time>2012-05-22T07:19:41Z</time>
      </trkpt>
      <trkpt lat="44.54519" lon="3.81436">
        <ele>1124.324</ele>
        <time>2012-05-22T07:20:03Z</time>
      </trkpt>
      <trkpt lat="44.5451" lon="3.81428">
        <ele>1125.503</ele>
        <time>2012-05-22T07:20:15Z</time>
      </trkpt>
      <trkpt lat="44.54505" lon="3.81413">
        <ele>1126.545</ele>
        <time>2012-05-22T07:20:31Z</time>
      </trkpt>
      <trkpt lat="44.545" lon="3.81401">
        <ele>1128.658</ele>
        <time>2012-05-22T07:20:44Z</time>
      </trkpt>
      <trkpt lat="44.5449" lon="3.81389">
        <ele>1129.805</ele>
        <time>2012-05-22T07:21:01Z</time>
      </trkpt>
      <trkpt lat="44.54485" lon="3.81387">
        <ele>1131.207</ele>
        <time>2012-05-22T07:21:07Z</time>
      </trkpt>
      <trkpt lat="44.5449" lon="3.81373">
        <ele>1133.437</ele>
        <time>2012-05-22T07:21:19Z</time>
      </trkpt>
      <trkpt lat="44.54497" lon="3.81348">
        <ele>1135.276</ele>
        <time>2012-05-22T07:21:38Z</time>
      </trkpt>
      <trkpt lat="44.54499" lon="3.81341">
        <ele>1135.419</ele>
        <time>2012-05-22T07:21:43Z</time>
      </trkpt>
      <trkpt lat="44.54501" lon="3.81335">
        <ele>1135.54</ele>
        <time>2012-05-22T07:21:47Z</time>
      </trkpt>
      <trkpt lat="44.54512" lon="3.81303">
        <ele>1132.941</ele>
        <time>2012-05-22T07:22:09Z</time>
      </trkpt>
      <trkpt lat="44.54516" lon="3.81298">
        <ele>1131.901</ele>
        <time>2012-05-22T07:22:13Z</time>
      </trkpt>
      <trkpt lat="44.54512" lon="3.81269">
        <ele>1129.212</ele>
        <time>2012-05-22T07:22:31Z</time>
      </trkpt>
      <trkpt lat="44.54508" lon="3.81257">
        <ele>1127.322</ele>
        <time>2012-05-22T07:22:39Z</time>
      </trkpt>
      <trkpt lat="44.54505" lon="3.81247">
        <ele>1126.136</ele>
        <time>2012-05-22T07:22:46Z</time>
      </trkpt>
      <trkpt lat="44.54502" lon="3.81242">
        <ele>1125.74</ele>
        <time>2012-05-22T07:22:50Z</time>
      </trkpt>
      <trkpt lat="44.545" lon="3.81235">
        <ele>1125.24</ele>
        <time>2012-05-22T07:22:55Z</time>
      </trkpt>
      <trkpt lat="44.54486" lon="3.81209">
        <ele>1123.078</ele>
        <time>2012-05-22T07:23:15Z</time>
      </trkpt>
      <trkpt lat="44.5447" lon="3.81184">
        <ele>1119.909</ele>
        <time>2012-05-22T07:23:37Z</time>
      </trkpt>
      <trkpt lat="44.54456" lon="3.81164">
        <ele>1116.762</ele>
        <time>2012-05-22T07:23:54Z</time>
      </trkpt>
      <trkpt lat="44.54444" lon="3.8116">
        <ele>1115.964</ele>
        <time>2012-05-22T07:24:05Z</time>
      </trkpt>
      <trkpt lat="44.54441" lon="3.81161">
        <ele>1115.795</ele>
        <time>2012-05-22T07:24:07Z</time>
      </trkpt>
      <trkpt lat="44.5442" lon="3.81153">
        <ele>1113.336</ele>
        <time>2012-05-22T07:24:25Z</time>
      </trkpt>
      <trkpt lat="44.54398" lon="3.81145">
        <ele>1111.936</ele>
        <time>2012-05-22T07:24:45Z</time>
      </trkpt>
      <trkpt lat="44.54385" lon="3.8114">
        <ele>1110.485</ele>
        <time>2012-05-22T07:24:56Z</time>
      </trkpt>
      <trkpt lat="44.54376" lon="3.81134">
        <ele>1109.953</ele>
        <time>2012-05-22T07:25:06Z</time>
      </trkpt>
      <trkpt lat="44.54374" lon="3.81134">
        <ele>1109.682</ele>
        <time>2012-05-22T07:25:08Z</time>
      </trkpt>
      <trkpt lat="44.54372" lon="3.81127">
        <ele>1110.016</ele>
        <time>2012-05-22T07:25:14Z</time>
      </trkpt>
      <trkpt lat="44.54376" lon="3.8111">
        <ele>1110.62</ele>
        <time>2012-05-22T07:25:25Z</time>
      </trkpt>
      <trkpt lat="44.54389" lon="3.81086">
        <ele>1111.672</ele>
        <time>2012-05-22T07:25:43Z</time>
      </trkpt>
      <trkpt lat="44.54405" lon="3.81068">
        <ele>1112.973</ele>
        <time>2012-05-22T07:26:04Z</time>
      </trkpt>
      <trkpt lat="44.54418" lon="3.81058">
        <ele>1113.875</ele>
        <time>2012-05-22T07:26:19Z</time>
      </trkpt>
      <trkpt lat="44.54422" lon="3.81055">
        <ele>1114.223</ele>
        <time>2012-05-22T07:26:24Z</time>
      </trkpt>
      <trkpt lat="44.54436" lon="3.81044">
        <ele>1116.316</ele>
        <time>2012-05-22T07:26:41Z</time>
      </trkpt>
      <trkpt lat="44.54454" lon="3.81027">
        <ele>1119.099</ele>
        <time>2012-05-22T07:27:04Z</time>
      </trkpt>
      <trkpt lat="44.54459" lon="3.81024">
        <ele>1120.738</ele>
        <time>2012-05-22T07:27:10Z</time>
      </trkpt>
      <trkpt lat="44.5448" lon="3.81008">
        <ele>1122.756</ele>
        <time>2012-05-22T07:27:34Z</time>
      </trkpt>
      <trkpt lat="44.54492" lon="3.80993">
        <ele>1125.606</ele>
        <time>2012-05-22T07:27:52Z</time>
      </trkpt>
      <trkpt lat="44.545" lon="3.80986">
        <ele>1128.452</ele>
        <time>2012-05-22T07:28:03Z</time>
      </trkpt>
      <trkpt lat="44.54502" lon="3.80985">
        <ele>1128.057</ele>
        <time>2012-05-22T07:28:22Z</time>
      </trkpt>
      <trkpt lat="44.54508" lon="3.80977">
        <ele>1128.347</ele>
        <time>2012-05-22T07:28:43Z</time>
      </trkpt>
      <trkpt lat="44.54512" lon="3.8097">
        <ele>1130.594</ele>
        <time>2012-05-22T07:28:50Z</time>
      </trkpt>
      <trkpt lat="44.54513" lon="3.80967">
        <ele>1130.365</ele>
        <time>2012-05-22T07:28:53Z</time>
      </trkpt>
      <trkpt lat="44.54517" lon="3.80952">
        <ele>1131.698</ele>
        <time>2012-05-22T07:29:05Z</time>
      </trkpt>
      <trkpt lat="44.54517" lon="3.80921">
        <ele>1135.412</ele>
        <time>2012-05-22T07:29:26Z</time>
      </trkpt>
      <trkpt lat="44.54517" lon="3.80908">
        <ele>1135.775</ele>
        <time>2012-05-22T07:29:36Z</time>
      </trkpt>
      <trkpt lat="44.5452" lon="3.80872">
        <ele>1135.225</ele>
        <time>2012-05-22T07:29:58Z</time>
      </trkpt>
      <trkpt lat="44.5452" lon="3.80854">
        <ele>1134.967</ele>
        <time>2012-05-22T07:30:09Z</time>
      </trkpt>
      <trkpt lat="44.54523" lon="3.80847">
        <ele>1134.296</ele>
        <time>2012-05-22T07:30:15Z</time>
      </trkpt>
      <trkpt lat="44.54524" lon="3.80838">
        <ele>1134.028</ele>
        <time>2012-05-22T07:30:20Z</time>
      </trkpt>
      <trkpt lat="44.54525" lon="3.80829">
        <ele>1134.01</ele>
        <time>2012-05-22T07:30:26Z</time>
      </trkpt>
      <trkpt lat="44.54529" lon="3.808">
        <ele>1134.681</ele>
        <time>2012-05-22T07:30:44Z</time>
      </trkpt>
      <trkpt lat="44.5453" lon="3.80798">
        <ele>1134.931</ele>
        <time>2012-05-22T07:30:45Z</time>
      </trkpt>
      <trkpt lat="44.54531" lon="3.80792">
        <ele>1135.268</ele>
        <time>2012-05-22T07:30:49Z</time>
      </trkpt>
      <trkpt lat="44.54531" lon="3.80786">
        <ele>1135.639</ele>
        <time>2012-05-22T07:30:53Z</time>
      </trkpt>
      <trkpt lat="44.54531" lon="3.80781">
        <ele>1135.041</ele>
        <time>2012-05-22T07:30:56Z</time>
      </trkpt>
      <trkpt lat="44.54532" lon="3.80779">
        <ele>1135.251</ele>
        <time>2012-05-22T07:30:58Z</time>
      </trkpt>
      <trkpt lat="44.54532" lon="3.80772">
        <ele>1134.495</ele>
        <time>2012-05-22T07:31:02Z</time>
      </trkpt>
      <trkpt lat="44.54533" lon="3.80767">
        <ele>1135.985</ele>
        <time>2012-05-22T07:31:19Z</time>
      </trkpt>
      <trkpt lat="44.54534" lon="3.80755">
        <ele>1137.044</ele>
        <time>2012-05-22T07:31:41Z</time>
      </trkpt>
      <trkpt lat="44.54535" lon="3.80751">
        <ele>1137.035</ele>
        <time>2012-05-22T07:31:44Z</time>
      </trkpt>
      <trkpt lat="44.54535" lon="3.80744">
        <ele>1137.55</ele>
        <time>2012-05-22T07:31:48Z</time>
      </trkpt>
      <trkpt lat="44.54535" lon="3.80738">
        <ele>1137.373</ele>
        <time>2012-05-22T07:31:52Z</time>
      </trkpt>
      <trkpt lat="44.54539" lon="3.80708">
        <ele>1137.156</ele>
        <time>2012-05-22T07:32:11Z</time>
      </trkpt>
      <trkpt lat="44.54539" lon="3.80701">
        <ele>1137.536</ele>
        <time>2012-05-22T07:32:15Z</time>
      </trkpt>
      <trkpt lat="44.5454" lon="3.80672">
        <ele>1138.835</ele>
        <time>2012-05-22T07:32:35Z</time>
      </trkpt>
      <trkpt lat="44.5454" lon="3.80637">
        <ele>1137.232</ele>
        <time>2012-05-22T07:32:56Z</time>
      </trkpt>
      <trkpt lat="44.54536" lon="3.80611">
        <ele>1133.902</ele>
        <time>2012-05-22T07:33:14Z</time>
      </trkpt>
      <trkpt lat="44.54537" lon="3.80584">
        <ele>1131.417</ele>
        <time>2012-05-22T07:33:29Z</time>
      </trkpt>
      <trkpt lat="44.5453" lon="3.8056">
        <ele>1131.002</ele>
        <time>2012-05-22T07:33:47Z</time>
      </trkpt>
      <trkpt lat="44.54527" lon="3.80549">
        <ele>1130.75</ele>
        <time>2012-05-22T07:33:54Z</time>
      </trkpt>
      <trkpt lat="44.54519" lon="3.80514">
        <ele>1131.731</ele>
        <time>2012-05-22T07:34:17Z</time>
      </trkpt>
      <trkpt lat="44.54516" lon="3.80503">
        <ele>1132.566</ele>
        <time>2012-05-22T07:34:25Z</time>
      </trkpt>
      <trkpt lat="44.54503" lon="3.8048">
        <ele>1133.663</ele>
        <time>2012-05-22T07:34:44Z</time>
      </trkpt>
      <trkpt lat="44.54491" lon="3.80461">
        <ele>1136.887</ele>
        <time>2012-05-22T07:35:00Z</time>
      </trkpt>
      <trkpt lat="44.54477" lon="3.80435">
        <ele>1134.306</ele>
        <time>2012-05-22T07:35:20Z</time>
      </trkpt>
      <trkpt lat="44.54471" lon="3.80429">
        <ele>1133.816</ele>
        <time>2012-05-22T07:35:26Z</time>
      </trkpt>
      <trkpt lat="44.54455" lon="3.80407">
        <ele>1134.454</ele>
        <time>2012-05-22T07:35:45Z</time>
      </trkpt>
      <trkpt lat="44.54437" lon="3.80389">
        <ele>1136.064</ele>
        <time>2012-05-22T07:36:06Z</time>
      </trkpt>
      <trkpt lat="44.54418" lon="3.80374">
        <ele>1139.2</ele>
        <time>2012-05-22T07:36:28Z</time>
      </trkpt>
      <trkpt lat="44.54397" lon="3.80364">
        <ele>1141.371</ele>
        <time>2012-05-22T07:36:50Z</time>
      </trkpt>
      <trkpt lat="44.54378" lon="3.80356">
        <ele>1144.341</ele>
        <time>2012-05-22T07:37:10Z</time>
      </trkpt>
      <trkpt lat="44.54356" lon="3.80347">
        <ele>1145.944</ele>
        <time>2012-05-22T07:37:31Z</time>
      </trkpt>
      <trkpt lat="44.54338" lon="3.80344">
        <ele>1147.895</ele>
        <time>2012-05-22T07:37:50Z</time>
      </trkpt>
      <trkpt lat="44.54321" lon="3.8034">
        <ele>1149.826</ele>
        <time>2012-05-22T07:38:06Z</time>
      </trkpt>
      <trkpt lat="44.54307" lon="3.80335">
        <ele>1152.492</ele>
        <time>2012-05-22T07:38:21Z</time>
      </trkpt>
      <trkpt lat="44.54305" lon="3.80334">
        <ele>1153.601</ele>
        <time>2012-05-22T07:38:23Z</time>
      </trkpt>
      <trkpt lat="44.54287" lon="3.80316">
        <ele>1152.463</ele>
        <time>2012-05-22T07:38:44Z</time>
      </trkpt>
      <trkpt lat="44.54272" lon="3.80307">
        <ele>1150.833</ele>
        <time>2012-05-22T07:39:02Z</time>
      </trkpt>
      <trkpt lat="44.54259" lon="3.80302">
        <ele>1150.131</ele>
        <time>2012-05-22T07:39:15Z</time>
      </trkpt>
      <trkpt lat="44.54257" lon="3.80301">
        <ele>1149.812</ele>
        <time>2012-05-22T07:39:17Z</time>
      </trkpt>
      <trkpt lat="44.5424" lon="3.80296">
        <ele>1148.688</ele>
        <time>2012-05-22T07:39:30Z</time>
      </trkpt>
      <trkpt lat="44.54224" lon="3.80291">
        <ele>1146.081</ele>
        <time>2012-05-22T07:39:45Z</time>
      </trkpt>
      <trkpt lat="44.54207" lon="3.80288">
        <ele>1144.756</ele>
        <time>2012-05-22T07:40:00Z</time>
      </trkpt>
      <trkpt lat="44.54202" lon="3.80287">
        <ele>1143.422</ele>
        <time>2012-05-22T07:40:05Z</time>
      </trkpt>
      <trkpt lat="44.54193" lon="3.80282">
        <ele>1142.865</ele>
        <time>2012-05-22T07:40:14Z</time>
      </trkpt>
      <trkpt lat="44.54175" lon="3.80282">
        <ele>1143.802</ele>
        <time>2012-05-22T07:40:29Z</time>
      </trkpt>
      <trkpt lat="44.54155" lon="3.80282">
        <ele>1145.369</ele>
        <time>2012-05-22T07:40:47Z</time>
      </trkpt>
      <trkpt lat="44.54127" lon="3.80282">
        <ele>1146.438</ele>
        <time>2012-05-22T07:41:10Z</time>
      </trkpt>
      <trkpt lat="44.54124" lon="3.80283">
        <ele>1146.772</ele>
        <time>2012-05-22T07:41:12Z</time>
      </trkpt>
      <trkpt lat="44.54102" lon="3.80277">
        <ele>1148.693</ele>
        <time>2012-05-22T07:41:32Z</time>
      </trkpt>
      <trkpt lat="44.54088" lon="3.80251">
        <ele>1150.591</ele>
        <time>2012-05-22T07:41:55Z</time>
      </trkpt>
      <trkpt lat="44.54066" lon="3.80225">
        <ele>1152.482</ele>
        <time>2012-05-22T07:42:21Z</time>
      </trkpt>
      <trkpt lat="44.54047" lon="3.80202">
        <ele>1154.218</ele>
        <time>2012-05-22T07:42:43Z</time>
      </trkpt>
      <trkpt lat="44.54043" lon="3.80187">
        <ele>1154.952</ele>
        <time>2012-05-22T07:42:54Z</time>
      </trkpt>
      <trkpt lat="44.54043" lon="3.80183">
        <ele>1155.152</ele>
        <time>2012-05-22T07:42:57Z</time>
      </trkpt>
      <trkpt lat="44.54044" lon="3.80177">
        <ele>1155.616</ele>
        <time>2012-05-22T07:43:01Z</time>
      </trkpt>
      <trkpt lat="44.54043" lon="3.80166">
        <ele>1155.767</ele>
        <time>2012-05-22T07:43:08Z</time>
      </trkpt>
      <trkpt lat="44.54032" lon="3.80131">
        <ele>1157.723</ele>
        <time>2012-05-22T07:43:31Z</time>
      </trkpt>
      <trkpt lat="44.54022" lon="3.80105">
        <ele>1158.517</ele>
        <time>2012-05-22T07:43:50Z</time>
      </trkpt>
      <trkpt lat="44.54016" lon="3.8009">
        <ele>1158.67</ele>
        <time>2012-05-22T07:44:01Z</time>
      </trkpt>
      <trkpt lat="44.54006" lon="3.80063">
        <ele>1159.904</ele>
        <time>2012-05-22T07:44:20Z</time>
      </trkpt>
      <trkpt lat="44.54001" lon="3.80028">
        <ele>1160.445</ele>
        <time>2012-05-22T07:44:42Z</time>
      </trkpt>
      <trkpt lat="44.5401" lon="3.79996">
        <ele>1161.928</ele>
        <time>2012-05-22T07:45:04Z</time>
      </trkpt>
      <trkpt lat="44.54029" lon="3.79993">
        <ele>1164.046</ele>
        <time>2012-05-22T07:45:21Z</time>
      </trkpt>
      <trkpt lat="44.54047" lon="3.80006">
        <ele>1164.632</ele>
        <time>2012-05-22T07:45:39Z</time>
      </trkpt>
      <trkpt lat="44.54052" lon="3.80012">
        <ele>1165.642</ele>
        <time>2012-05-22T07:45:45Z</time>
      </trkpt>
      <trkpt lat="44.54067" lon="3.80033">
        <ele>1167.136</ele>
        <time>2012-05-22T07:46:06Z</time>
      </trkpt>
      <trkpt lat="44.54069" lon="3.80036">
        <ele>1166.895</ele>
        <time>2012-05-22T07:46:08Z</time>
      </trkpt>
      <trkpt lat="44.54073" lon="3.8004">
        <ele>1167.892</ele>
        <time>2012-05-22T07:46:12Z</time>
      </trkpt>
      <trkpt lat="44.54076" lon="3.80043">
        <ele>1168.408</ele>
        <time>2012-05-22T07:46:15Z</time>
      </trkpt>
      <trkpt lat="44.54082" lon="3.80051">
        <ele>1168.272</ele>
        <time>2012-05-22T07:46:21Z</time>
      </trkpt>
      <trkpt lat="44.54098" lon="3.80063">
        <ele>1169.755</ele>
        <time>2012-05-22T07:46:38Z</time>
      </trkpt>
      <trkpt lat="44.54113" lon="3.80055">
        <ele>1170.492</ele>
        <time>2012-05-22T07:46:53Z</time>
      </trkpt>
      <trkpt lat="44.54126" lon="3.80029">
        <ele>1171.373</ele>
        <time>2012-05-22T07:47:12Z</time>
      </trkpt>
      <trkpt lat="44.54134" lon="3.80013">
        <ele>1173.759</ele>
        <time>2012-05-22T07:47:27Z</time>
      </trkpt>
      <trkpt lat="44.54136" lon="3.80011">
        <ele>1173.649</ele>
        <time>2012-05-22T07:47:30Z</time>
      </trkpt>
      <trkpt lat="44.54145" lon="3.79983">
        <ele>1176.005</ele>
        <time>2012-05-22T07:47:51Z</time>
      </trkpt>
      <trkpt lat="44.54149" lon="3.79953">
        <ele>1177.358</ele>
        <time>2012-05-22T07:48:09Z</time>
      </trkpt>
      <trkpt lat="44.54149" lon="3.79933">
        <ele>1179.509</ele>
        <time>2012-05-22T07:48:22Z</time>
      </trkpt>
      <trkpt lat="44.54142" lon="3.79907">
        <ele>1179.003</ele>
        <time>2012-05-22T07:48:41Z</time>
      </trkpt>
      <trkpt lat="44.54131" lon="3.79875">
        <ele>1181.536</ele>
        <time>2012-05-22T07:49:04Z</time>
      </trkpt>
      <trkpt lat="44.54114" lon="3.79845">
        <ele>1182.422</ele>
        <time>2012-05-22T07:49:29Z</time>
      </trkpt>
      <trkpt lat="44.54099" lon="3.79818">
        <ele>1183.762</ele>
        <time>2012-05-22T07:49:51Z</time>
      </trkpt>
      <trkpt lat="44.54084" lon="3.79786">
        <ele>1186.742</ele>
        <time>2012-05-22T07:50:15Z</time>
      </trkpt>
      <trkpt lat="44.54074" lon="3.79751">
        <ele>1187.63</ele>
        <time>2012-05-22T07:50:39Z</time>
      </trkpt>
      <trkpt lat="44.54064" lon="3.7972">
        <ele>1189.337</ele>
        <time>2012-05-22T07:51:02Z</time>
      </trkpt>
      <trkpt lat="44.5405" lon="3.79701">
        <ele>1191.273</ele>
        <time>2012-05-22T07:51:21Z</time>
      </trkpt>
      <trkpt lat="44.54029" lon="3.797">
        <ele>1192.117</ele>
        <time>2012-05-22T07:51:41Z</time>
      </trkpt>
      <trkpt lat="44.5401" lon="3.79717">
        <ele>1194.504</ele>
        <time>2012-05-22T07:52:02Z</time>
      </trkpt>
      <trkpt lat="44.53991" lon="3.79736">
        <ele>1195.068</ele>
        <time>2012-05-22T07:52:22Z</time>
      </trkpt>
      <trkpt lat="44.53965" lon="3.79763">
        <ele>1197.936</ele>
        <time>2012-05-22T07:52:50Z</time>
      </trkpt>
      <trkpt lat="44.53946" lon="3.79776">
        <ele>1198.996</ele>
        <time>2012-05-22T07:53:08Z</time>
      </trkpt>
      <trkpt lat="44.53927" lon="3.79777">
        <ele>1201.531</ele>
        <time>2012-05-22T07:57:16Z</time>
      </trkpt>
      <trkpt lat="44.53926" lon="3.79768">
        <ele>1201.176</ele>
        <time>2012-05-22T07:57:25Z</time>
      </trkpt>
      <trkpt lat="44.53925" lon="3.79739">
        <ele>1202.446</ele>
        <time>2012-05-22T07:57:46Z</time>
      </trkpt>
      <trkpt lat="44.53923" lon="3.79726">
        <ele>1203.143</ele>
        <time>2012-05-22T07:57:54Z</time>
      </trkpt>
      <trkpt lat="44.53915" lon="3.79704">
        <ele>1206.276</ele>
        <time>2012-05-22T07:58:11Z</time>
      </trkpt>
      <trkpt lat="44.53913" lon="3.79698">
        <ele>1205.54</ele>
        <time>2012-05-22T07:58:16Z</time>
      </trkpt>
      <trkpt lat="44.53902" lon="3.79684">
        <ele>1206.541</ele>
        <time>2012-05-22T07:58:29Z</time>
      </trkpt>
      <trkpt lat="44.53886" lon="3.7966">
        <ele>1209.456</ele>
        <time>2012-05-22T07:58:51Z</time>
      </trkpt>
      <trkpt lat="44.53876" lon="3.79649">
        <ele>1210.553</ele>
        <time>2012-05-22T07:59:03Z</time>
      </trkpt>
      <trkpt lat="44.53871" lon="3.79645">
        <ele>1211.089</ele>
        <time>2012-05-22T07:59:08Z</time>
      </trkpt>
      <trkpt lat="44.53861" lon="3.79636">
        <ele>1211.727</ele>
        <time>2012-05-22T07:59:19Z</time>
      </trkpt>
      <trkpt lat="44.53854" lon="3.79631">
        <ele>1211.219</ele>
        <time>2012-05-22T07:59:26Z</time>
      </trkpt>
      <trkpt lat="44.5385" lon="3.79627">
        <ele>1212.438</ele>
        <time>2012-05-22T07:59:30Z</time>
      </trkpt>
      <trkpt lat="44.53839" lon="3.7962">
        <ele>1213.308</ele>
        <time>2012-05-22T07:59:43Z</time>
      </trkpt>
      <trkpt lat="44.53828" lon="3.79602">
        <ele>1213.991</ele>
        <time>2012-05-22T07:59:59Z</time>
      </trkpt>
      <trkpt lat="44.5382" lon="3.79588">
        <ele>1217.501</ele>
        <time>2012-05-22T08:00:13Z</time>
      </trkpt>
      <trkpt lat="44.53814" lon="3.79584">
        <ele>1218.22</ele>
        <time>2012-05-22T08:00:32Z</time>
      </trkpt>
      <trkpt lat="44.53804" lon="3.79572">
        <ele>1220.161</ele>
        <time>2012-05-22T08:01:15Z</time>
      </trkpt>
      <trkpt lat="44.53801" lon="3.79568">
        <ele>1221.823</ele>
        <time>2012-05-22T08:01:20Z</time>
      </trkpt>
      <trkpt lat="44.538" lon="3.79567">
        <ele>1221.928</ele>
        <time>2012-05-22T08:01:21Z</time>
      </trkpt>
      <trkpt lat="44.53793" lon="3.79556">
        <ele>1224.722</ele>
        <time>2012-05-22T08:01:33Z</time>
      </trkpt>
      <trkpt lat="44.53784" lon="3.79549">
        <ele>1226.459</ele>
        <time>2012-05-22T08:01:45Z</time>
      </trkpt>
      <trkpt lat="44.5378" lon="3.79544">
        <ele>1226.306</ele>
        <time>2012-05-22T08:01:51Z</time>
      </trkpt>
      <trkpt lat="44.53772" lon="3.7954">
        <ele>1228.277</ele>
        <time>2012-05-22T08:01:58Z</time>
      </trkpt>
      <trkpt lat="44.53762" lon="3.79531">
        <ele>1229.799</ele>
        <time>2012-05-22T08:02:13Z</time>
      </trkpt>
      <trkpt lat="44.53758" lon="3.79526">
        <ele>1230.795</ele>
        <time>2012-05-22T08:02:18Z</time>
      </trkpt>
      <trkpt lat="44.5375" lon="3.79523">
        <ele>1232.88</ele>
        <time>2012-05-22T08:02:29Z</time>
      </trkpt>
      <trkpt lat="44.53745" lon="3.79517">
        <ele>1234.03</ele>
        <time>2012-05-22T08:02:40Z</time>
      </trkpt>
      <trkpt lat="44.53729" lon="3.79513">
        <ele>1236.554</ele>
        <time>2012-05-22T08:02:59Z</time>
      </trkpt>
      <trkpt lat="44.5372" lon="3.79497">
        <ele>1239.303</ele>
        <time>2012-05-22T08:03:15Z</time>
      </trkpt>
      <trkpt lat="44.53714" lon="3.7949">
        <ele>1240.487</ele>
        <time>2012-05-22T08:03:25Z</time>
      </trkpt>
      <trkpt lat="44.53703" lon="3.79481">
        <ele>1241.602</ele>
        <time>2012-05-22T08:03:41Z</time>
      </trkpt>
      <trkpt lat="44.53692" lon="3.79478">
        <ele>1244.792</ele>
        <time>2012-05-22T08:03:55Z</time>
      </trkpt>
      <trkpt lat="44.53683" lon="3.79476">
        <ele>1247.658</ele>
        <time>2012-05-22T08:04:10Z</time>
      </trkpt>
      <trkpt lat="44.5368" lon="3.79473">
        <ele>1247.696</ele>
        <time>2012-05-22T08:04:15Z</time>
      </trkpt>
      <trkpt lat="44.53672" lon="3.79472">
        <ele>1248.665</ele>
        <time>2012-05-22T08:04:29Z</time>
      </trkpt>
      <trkpt lat="44.53666" lon="3.7947">
        <ele>1252.105</ele>
        <time>2012-05-22T08:04:46Z</time>
      </trkpt>
      <trkpt lat="44.53657" lon="3.79464">
        <ele>1254.183</ele>
        <time>2012-05-22T08:04:59Z</time>
      </trkpt>
      <trkpt lat="44.53648" lon="3.79455">
        <ele>1254.76</ele>
        <time>2012-05-22T08:05:19Z</time>
      </trkpt>
      <trkpt lat="44.53641" lon="3.79448">
        <ele>1258.403</ele>
        <time>2012-05-22T08:05:32Z</time>
      </trkpt>
      <trkpt lat="44.53636" lon="3.79445">
        <ele>1260.151</ele>
        <time>2012-05-22T08:05:37Z</time>
      </trkpt>
      <trkpt lat="44.53626" lon="3.79439">
        <ele>1262.917</ele>
        <time>2012-05-22T08:05:51Z</time>
      </trkpt>
      <trkpt lat="44.53615" lon="3.79434">
        <ele>1265.463</ele>
        <time>2012-05-22T08:06:06Z</time>
      </trkpt>
      <trkpt lat="44.53613" lon="3.79433">
        <ele>1266.483</ele>
        <time>2012-05-22T08:06:10Z</time>
      </trkpt>
      <trkpt lat="44.53605" lon="3.79432">
        <ele>1268.655</ele>
        <time>2012-05-22T08:06:23Z</time>
      </trkpt>
      <trkpt lat="44.53598" lon="3.79429">
        <ele>1269.434</ele>
        <time>2012-05-22T08:06:33Z</time>
      </trkpt>
      <trkpt lat="44.53591" lon="3.79427">
        <ele>1271.208</ele>
        <time>2012-05-22T08:06:48Z</time>
      </trkpt>
      <trkpt lat="44.53582" lon="3.79427">
        <ele>1272.312</ele>
        <time>2012-05-22T08:07:04Z</time>
      </trkpt>
      <trkpt lat="44.53575" lon="3.79429">
        <ele>1275.789</ele>
        <time>2012-05-22T08:07:16Z</time>
      </trkpt>
      <trkpt lat="44.53565" lon="3.79433">
        <ele>1277.868</ele>
        <time>2012-05-22T08:07:28Z</time>
      </trkpt>
      <trkpt lat="44.53554" lon="3.7944">
        <ele>1281.034</ele>
        <time>2012-05-22T08:07:43Z</time>
      </trkpt>
      <trkpt lat="44.53546" lon="3.79443">
        <ele>1282.837</ele>
        <time>2012-05-22T08:07:59Z</time>
      </trkpt>
      <trkpt lat="44.53541" lon="3.79448">
        <ele>1283.844</ele>
        <time>2012-05-22T08:08:11Z</time>
      </trkpt>
      <trkpt lat="44.53534" lon="3.79452">
        <ele>1284.604</ele>
        <time>2012-05-22T08:08:25Z</time>
      </trkpt>
      <trkpt lat="44.53525" lon="3.79458">
        <ele>1286.543</ele>
        <time>2012-05-22T08:08:41Z</time>
      </trkpt>
      <trkpt lat="44.53518" lon="3.7946">
        <ele>1289.75</ele>
        <time>2012-05-22T08:08:52Z</time>
      </trkpt>
      <trkpt lat="44.53507" lon="3.79463">
        <ele>1291.807</ele>
        <time>2012-05-22T08:09:06Z</time>
      </trkpt>
      <trkpt lat="44.53497" lon="3.79467">
        <ele>1294.758</ele>
        <time>2012-05-22T08:09:22Z</time>
      </trkpt>
      <trkpt lat="44.53486" lon="3.79469">
        <ele>1297.395</ele>
        <time>2012-05-22T08:09:39Z</time>
      </trkpt>
      <trkpt lat="44.53469" lon="3.79468">
        <ele>1300.297</ele>
        <time>2012-05-22T08:09:58Z</time>
      </trkpt>
      <trkpt lat="44.53456" lon="3.79473">
        <ele>1302.144</ele>
        <time>2012-05-22T08:10:15Z</time>
      </trkpt>
      <trkpt lat="44.53442" lon="3.79473">
        <ele>1304.151</ele>
        <time>2012-05-22T08:10:31Z</time>
      </trkpt>
      <trkpt lat="44.53435" lon="3.79475">
        <ele>1306.044</ele>
        <time>2012-05-22T08:10:43Z</time>
      </trkpt>
      <trkpt lat="44.53422" lon="3.79474">
        <ele>1309.35</ele>
        <time>2012-05-22T08:10:57Z</time>
      </trkpt>
      <trkpt lat="44.53417" lon="3.79474">
        <ele>1309.701</ele>
        <time>2012-05-22T08:11:02Z</time>
      </trkpt>
      <trkpt lat="44.5341" lon="3.79478">
        <ele>1312.263</ele>
        <time>2012-05-22T08:11:12Z</time>
      </trkpt>
      <trkpt lat="44.53398" lon="3.79473">
        <ele>1312.864</ele>
        <time>2012-05-22T08:11:28Z</time>
      </trkpt>
      <trkpt lat="44.53391" lon="3.79471">
        <ele>1314.417</ele>
        <time>2012-05-22T08:11:38Z</time>
      </trkpt>
      <trkpt lat="44.53383" lon="3.79461">
        <ele>1317.606</ele>
        <time>2012-05-22T08:11:54Z</time>
      </trkpt>
      <trkpt lat="44.53374" lon="3.79445">
        <ele>1320.503</ele>
        <time>2012-05-22T08:12:10Z</time>
      </trkpt>
      <trkpt lat="44.53373" lon="3.79442">
        <ele>1321.005</ele>
        <time>2012-05-22T08:12:15Z</time>
      </trkpt>
      <trkpt lat="44.53365" lon="3.79427">
        <ele>1322.818</ele>
        <time>2012-05-22T08:12:29Z</time>
      </trkpt>
      <trkpt lat="44.53364" lon="3.79421">
        <ele>1322.517</ele>
        <time>2012-05-22T08:12:34Z</time>
      </trkpt>
      <trkpt lat="44.5336" lon="3.79415">
        <ele>1322.396</ele>
        <time>2012-05-22T08:12:39Z</time>
      </trkpt>
      <trkpt lat="44.53359" lon="3.79409">
        <ele>1323.446</ele>
        <time>2012-05-22T08:12:43Z</time>
      </trkpt>
      <trkpt lat="44.53351" lon="3.79406">
        <ele>1326.034</ele>
        <time>2012-05-22T08:12:57Z</time>
      </trkpt>
      <trkpt lat="44.53351" lon="3.79415">
        <ele>1327.766</ele>
        <time>2012-05-22T08:13:08Z</time>
      </trkpt>
      <trkpt lat="44.53354" lon="3.79424">
        <ele>1328.611</ele>
        <time>2012-05-22T08:13:16Z</time>
      </trkpt>
      <trkpt lat="44.53353" lon="3.7943">
        <ele>1328.498</ele>
        <time>2012-05-22T08:13:21Z</time>
      </trkpt>
      <trkpt lat="44.53354" lon="3.79443">
        <ele>1330.653</ele>
        <time>2012-05-22T08:13:34Z</time>
      </trkpt>
      <trkpt lat="44.53354" lon="3.79452">
        <ele>1331.739</ele>
        <time>2012-05-22T08:13:47Z</time>
      </trkpt>
      <trkpt lat="44.53354" lon="3.79456">
        <ele>1332.791</ele>
        <time>2012-05-22T08:21:32Z</time>
      </trkpt>
      <trkpt lat="44.53354" lon="3.79463">
        <ele>1333.108</ele>
        <time>2012-05-22T08:22:31Z</time>
      </trkpt>
      <trkpt lat="44.53353" lon="3.79479">
        <ele>1334.813</ele>
        <time>2012-05-22T08:22:45Z</time>
      </trkpt>
      <trkpt lat="44.53354" lon="3.79489">
        <ele>1334.252</ele>
        <time>2012-05-22T08:22:52Z</time>
      </trkpt>
      <trkpt lat="44.53355" lon="3.79497">
        <ele>1334.264</ele>
        <time>2012-05-22T08:22:57Z</time>
      </trkpt>
      <trkpt lat="44.53358" lon="3.795">
        <ele>1334.544</ele>
        <time>2012-05-22T08:23:00Z</time>
      </trkpt>
      <trkpt lat="44.5337" lon="3.79524">
        <ele>1337.461</ele>
        <time>2012-05-22T08:23:23Z</time>
      </trkpt>
      <trkpt lat="44.53383" lon="3.79537">
        <ele>1338.838</ele>
        <time>2012-05-22T08:23:40Z</time>
      </trkpt>
      <trkpt lat="44.53397" lon="3.79554">
        <ele>1341.453</ele>
        <time>2012-05-22T08:24:00Z</time>
      </trkpt>
      <trkpt lat="44.53412" lon="3.79573">
        <ele>1344.794</ele>
        <time>2012-05-22T08:24:21Z</time>
      </trkpt>
      <trkpt lat="44.53428" lon="3.79591">
        <ele>1346.302</ele>
        <time>2012-05-22T08:24:42Z</time>
      </trkpt>
      <trkpt lat="44.5344" lon="3.79615">
        <ele>1348.146</ele>
        <time>2012-05-22T08:25:02Z</time>
      </trkpt>
      <trkpt lat="44.53453" lon="3.79642">
        <ele>1349.471</ele>
        <time>2012-05-22T08:25:24Z</time>
      </trkpt>
      <trkpt lat="44.5345" lon="3.79645">
        <ele>1349.927</ele>
        <time>2012-05-22T08:25:29Z</time>
      </trkpt>
      <trkpt lat="44.53448" lon="3.79643">
        <ele>1349.621</ele>
        <time>2012-05-22T08:25:31Z</time>
      </trkpt>
      <trkpt lat="44.53436" lon="3.79627">
        <ele>1350.505</ele>
        <time>2012-05-22T08:25:48Z</time>
      </trkpt>
      <trkpt lat="44.53429" lon="3.79618">
        <ele>1351.329</ele>
        <time>2012-05-22T08:25:57Z</time>
      </trkpt>
      <trkpt lat="44.53422" lon="3.79614">
        <ele>1351.721</ele>
        <time>2012-05-22T08:26:04Z</time>
      </trkpt>
      <trkpt lat="44.53412" lon="3.79605">
        <ele>1351.545</ele>
        <time>2012-05-22T08:26:15Z</time>
      </trkpt>
      <trkpt lat="44.53399" lon="3.79596">
        <ele>1351.359</ele>
        <time>2012-05-22T08:26:30Z</time>
      </trkpt>
      <trkpt lat="44.53392" lon="3.79595">
        <ele>1351.473</ele>
        <time>2012-05-22T08:26:36Z</time>
      </trkpt>
      <trkpt lat="44.53388" lon="3.79592">
        <ele>1352.752</ele>
        <time>2012-05-22T08:26:40Z</time>
      </trkpt>
      <trkpt lat="44.5338" lon="3.7959">
        <ele>1355.022</ele>
        <time>2012-05-22T08:26:47Z</time>
      </trkpt>
      <trkpt lat="44.53375" lon="3.79588">
        <ele>1354.64</ele>
        <time>2012-05-22T08:26:51Z</time>
      </trkpt>
      <trkpt lat="44.53364" lon="3.79585">
        <ele>1355.703</ele>
        <time>2012-05-22T08:27:01Z</time>
      </trkpt>
      <trkpt lat="44.53352" lon="3.79575">
        <ele>1356.654</ele>
        <time>2012-05-22T08:27:14Z</time>
      </trkpt>
      <trkpt lat="44.53347" lon="3.7957">
        <ele>1356.925</ele>
        <time>2012-05-22T08:27:20Z</time>
      </trkpt>
      <trkpt lat="44.53344" lon="3.79567">
        <ele>1357.366</ele>
        <time>2012-05-22T08:27:24Z</time>
      </trkpt>
      <trkpt lat="44.53326" lon="3.79554">
        <ele>1356.538</ele>
        <time>2012-05-22T08:27:45Z</time>
      </trkpt>
      <trkpt lat="44.53315" lon="3.79546">
        <ele>1357.668</ele>
        <time>2012-05-22T08:27:57Z</time>
      </trkpt>
      <trkpt lat="44.53312" lon="3.7954">
        <ele>1358.013</ele>
        <time>2012-05-22T08:28:01Z</time>
      </trkpt>
      <trkpt lat="44.5331" lon="3.79539">
        <ele>1358.909</ele>
        <time>2012-05-22T08:28:03Z</time>
      </trkpt>
      <trkpt lat="44.5331" lon="3.79536">
        <ele>1359.475</ele>
        <time>2012-05-22T08:28:05Z</time>
      </trkpt>
      <trkpt lat="44.53303" lon="3.7953">
        <ele>1359.852</ele>
        <time>2012-05-22T08:28:12Z</time>
      </trkpt>
      <trkpt lat="44.53298" lon="3.79519">
        <ele>1361.136</ele>
        <time>2012-05-22T08:28:21Z</time>
      </trkpt>
      <trkpt lat="44.53295" lon="3.79512">
        <ele>1361.262</ele>
        <time>2012-05-22T08:28:27Z</time>
      </trkpt>
      <trkpt lat="44.53291" lon="3.79506">
        <ele>1361.523</ele>
        <time>2012-05-22T08:28:32Z</time>
      </trkpt>
      <trkpt lat="44.53287" lon="3.79501">
        <ele>1359.775</ele>
        <time>2012-05-22T08:28:37Z</time>
      </trkpt>
      <trkpt lat="44.53282" lon="3.79494">
        <ele>1361.503</ele>
        <time>2012-05-22T08:28:44Z</time>
      </trkpt>
      <trkpt lat="44.53279" lon="3.79491">
        <ele>1362.377</ele>
        <time>2012-05-22T08:28:48Z</time>
      </trkpt>
      <trkpt lat="44.53278" lon="3.79488">
        <ele>1361.853</ele>
        <time>2012-05-22T08:28:51Z</time>
      </trkpt>
      <trkpt lat="44.53276" lon="3.79485">
        <ele>1361.964</ele>
        <time>2012-05-22T08:28:53Z</time>
      </trkpt>
      <trkpt lat="44.53266" lon="3.79469">
        <ele>1363.509</ele>
        <time>2012-05-22T08:29:07Z</time>
      </trkpt>
      <trkpt lat="44.53264" lon="3.7946">
        <ele>1363.969</ele>
        <time>2012-05-22T08:29:13Z</time>
      </trkpt>
      <trkpt lat="44.53262" lon="3.79459">
        <ele>1364.505</ele>
        <time>2012-05-22T08:29:15Z</time>
      </trkpt>
      <trkpt lat="44.53258" lon="3.79444">
        <ele>1365.268</ele>
        <time>2012-05-22T08:29:28Z</time>
      </trkpt>
      <trkpt lat="44.53256" lon="3.79442">
        <ele>1364.793</ele>
        <time>2012-05-22T08:29:30Z</time>
      </trkpt>
      <trkpt lat="44.53254" lon="3.79439">
        <ele>1365.286</ele>
        <time>2012-05-22T08:29:32Z</time>
      </trkpt>
      <trkpt lat="44.53251" lon="3.79432">
        <ele>1365.547</ele>
        <time>2012-05-22T08:29:37Z</time>
      </trkpt>
      <trkpt lat="44.5325" lon="3.79429">
        <ele>1365.9</ele>
        <time>2012-05-22T08:29:39Z</time>
      </trkpt>
      <trkpt lat="44.53246" lon="3.79422">
        <ele>1366.245</ele>
        <time>2012-05-22T08:29:44Z</time>
      </trkpt>
      <trkpt lat="44.53245" lon="3.79419">
        <ele>1366.169</ele>
        <time>2012-05-22T08:29:47Z</time>
      </trkpt>
      <trkpt lat="44.53238" lon="3.79411">
        <ele>1366.494</ele>
        <time>2012-05-22T08:29:55Z</time>
      </trkpt>
      <trkpt lat="44.53235" lon="3.79406">
        <ele>1366.634</ele>
        <time>2012-05-22T08:29:59Z</time>
      </trkpt>
      <trkpt lat="44.53232" lon="3.79399">
        <ele>1367.2</ele>
        <time>2012-05-22T08:30:04Z</time>
      </trkpt>
      <trkpt lat="44.53231" lon="3.79397">
        <ele>1367.561</ele>
        <time>2012-05-22T08:30:06Z</time>
      </trkpt>
      <trkpt lat="44.5323" lon="3.79395">
        <ele>1368.3</ele>
        <time>2012-05-22T08:30:08Z</time>
      </trkpt>
      <trkpt lat="44.53221" lon="3.79372">
        <ele>1369.21</ele>
        <time>2012-05-22T08:30:24Z</time>
      </trkpt>
      <trkpt lat="44.53219" lon="3.79368">
        <ele>1369.609</ele>
        <time>2012-05-22T08:30:27Z</time>
      </trkpt>
      <trkpt lat="44.53211" lon="3.79342">
        <ele>1371.142</ele>
        <time>2012-05-22T08:30:47Z</time>
      </trkpt>
      <trkpt lat="44.5321" lon="3.79338">
        <ele>1371.077</ele>
        <time>2012-05-22T08:30:50Z</time>
      </trkpt>
      <trkpt lat="44.53223" lon="3.79316">
        <ele>1373.169</ele>
        <time>2012-05-22T08:31:09Z</time>
      </trkpt>
      <trkpt lat="44.53234" lon="3.79293">
        <ele>1373.929</ele>
        <time>2012-05-22T08:31:28Z</time>
      </trkpt>
      <trkpt lat="44.53239" lon="3.79269">
        <ele>1375.333</ele>
        <time>2012-05-22T08:31:45Z</time>
      </trkpt>
      <trkpt lat="44.53243" lon="3.79257">
        <ele>1377.452</ele>
        <time>2012-05-22T08:31:54Z</time>
      </trkpt>
      <trkpt lat="44.53248" lon="3.79235">
        <ele>1377.802</ele>
        <time>2012-05-22T08:32:09Z</time>
      </trkpt>
      <trkpt lat="44.53253" lon="3.79215">
        <ele>1378.812</ele>
        <time>2012-05-22T08:32:22Z</time>
      </trkpt>
      <trkpt lat="44.53253" lon="3.79212">
        <ele>1378.24</ele>
        <time>2012-05-22T08:32:24Z</time>
      </trkpt>
      <trkpt lat="44.53253" lon="3.79207">
        <ele>1377.646</ele>
        <time>2012-05-22T08:32:27Z</time>
      </trkpt>
      <trkpt lat="44.53252" lon="3.79202">
        <ele>1378.122</ele>
        <time>2012-05-22T08:32:30Z</time>
      </trkpt>
      <trkpt lat="44.53254" lon="3.79195">
        <ele>1379.207</ele>
        <time>2012-05-22T08:32:34Z</time>
      </trkpt>
      <trkpt lat="44.53255" lon="3.79193">
        <ele>1379.543</ele>
        <time>2012-05-22T08:32:36Z</time>
      </trkpt>
      <trkpt lat="44.53252" lon="3.79183">
        <ele>1378.942</ele>
        <time>2012-05-22T08:32:43Z</time>
      </trkpt>
      <trkpt lat="44.53252" lon="3.79176">
        <ele>1380.397</ele>
        <time>2012-05-22T08:32:48Z</time>
      </trkpt>
      <trkpt lat="44.53252" lon="3.79165">
        <ele>1380.544</ele>
        <time>2012-05-22T08:32:55Z</time>
      </trkpt>
      <trkpt lat="44.53251" lon="3.79162">
        <ele>1382.211</ele>
        <time>2012-05-22T08:32:57Z</time>
      </trkpt>
      <trkpt lat="44.53252" lon="3.79156">
        <ele>1382.328</ele>
        <time>2012-05-22T08:33:00Z</time>
      </trkpt>
      <trkpt lat="44.53249" lon="3.79137">
        <ele>1381.633</ele>
        <time>2012-05-22T08:33:14Z</time>
      </trkpt>
      <trkpt lat="44.53246" lon="3.79129">
        <ele>1382.716</ele>
        <time>2012-05-22T08:33:20Z</time>
      </trkpt>
      <trkpt lat="44.53246" lon="3.79125">
        <ele>1382.388</ele>
        <time>2012-05-22T08:33:22Z</time>
      </trkpt>
      <trkpt lat="44.53246" lon="3.79118">
        <ele>1382.864</ele>
        <time>2012-05-22T08:33:27Z</time>
      </trkpt>
      <trkpt lat="44.53247" lon="3.79097">
        <ele>1381.994</ele>
        <time>2012-05-22T08:33:41Z</time>
      </trkpt>
      <trkpt lat="44.53247" lon="3.79088">
        <ele>1385.049</ele>
        <time>2012-05-22T08:33:47Z</time>
      </trkpt>
      <trkpt lat="44.53246" lon="3.7907">
        <ele>1385.601</ele>
        <time>2012-05-22T08:33:59Z</time>
      </trkpt>
      <trkpt lat="44.53246" lon="3.79061">
        <ele>1385.72</ele>
        <time>2012-05-22T08:34:05Z</time>
      </trkpt>
      <trkpt lat="44.53246" lon="3.79046">
        <ele>1385.641</ele>
        <time>2012-05-22T08:34:15Z</time>
      </trkpt>
      <trkpt lat="44.53246" lon="3.79038">
        <ele>1386.486</ele>
        <time>2012-05-22T08:34:20Z</time>
      </trkpt>
      <trkpt lat="44.53246" lon="3.79026">
        <ele>1386.842</ele>
        <time>2012-05-22T08:34:28Z</time>
      </trkpt>
      <trkpt lat="44.53246" lon="3.79012">
        <ele>1388.227</ele>
        <time>2012-05-22T08:34:38Z</time>
      </trkpt>
      <trkpt lat="44.53246" lon="3.79009">
        <ele>1388.253</ele>
        <time>2012-05-22T08:34:40Z</time>
      </trkpt>
      <trkpt lat="44.53245" lon="3.79005">
        <ele>1388.102</ele>
        <time>2012-05-22T08:34:43Z</time>
      </trkpt>
      <trkpt lat="44.53247" lon="3.78994">
        <ele>1389.07</ele>
        <time>2012-05-22T08:34:50Z</time>
      </trkpt>
      <trkpt lat="44.53248" lon="3.78983">
        <ele>1389.472</ele>
        <time>2012-05-22T08:34:57Z</time>
      </trkpt>
      <trkpt lat="44.53246" lon="3.78961">
        <ele>1390.817</ele>
        <time>2012-05-22T08:35:11Z</time>
      </trkpt>
      <trkpt lat="44.53241" lon="3.78952">
        <ele>1390.696</ele>
        <time>2012-05-22T08:35:19Z</time>
      </trkpt>
      <trkpt lat="44.53237" lon="3.78935">
        <ele>1391.921</ele>
        <time>2012-05-22T08:35:31Z</time>
      </trkpt>
      <trkpt lat="44.53235" lon="3.7892">
        <ele>1391.867</ele>
        <time>2012-05-22T08:35:41Z</time>
      </trkpt>
      <trkpt lat="44.53234" lon="3.78909">
        <ele>1392.537</ele>
        <time>2012-05-22T08:35:49Z</time>
      </trkpt>
      <trkpt lat="44.53234" lon="3.78885">
        <ele>1393.357</ele>
        <time>2012-05-22T08:36:06Z</time>
      </trkpt>
      <trkpt lat="44.53235" lon="3.78875">
        <ele>1394.6</ele>
        <time>2012-05-22T08:36:12Z</time>
      </trkpt>
      <trkpt lat="44.53234" lon="3.78868">
        <ele>1394.354</ele>
        <time>2012-05-22T08:36:16Z</time>
      </trkpt>
      <trkpt lat="44.53233" lon="3.7886">
        <ele>1395.142</ele>
        <time>2012-05-22T08:36:21Z</time>
      </trkpt>
      <trkpt lat="44.5323" lon="3.78849">
        <ele>1395.014</ele>
        <time>2012-05-22T08:36:29Z</time>
      </trkpt>
      <trkpt lat="44.53229" lon="3.78844">
        <ele>1396.626</ele>
        <time>2012-05-22T08:36:33Z</time>
      </trkpt>
      <trkpt lat="44.53229" lon="3.78839">
        <ele>1397.397</ele>
        <time>2012-05-22T08:36:36Z</time>
      </trkpt>
      <trkpt lat="44.53229" lon="3.78836">
        <ele>1397.178</ele>
        <time>2012-05-22T08:36:38Z</time>
      </trkpt>
      <trkpt lat="44.53228" lon="3.78831">
        <ele>1395.744</ele>
        <time>2012-05-22T08:36:42Z</time>
      </trkpt>
      <trkpt lat="44.5323" lon="3.78823">
        <ele>1397.353</ele>
        <time>2012-05-22T08:36:47Z</time>
      </trkpt>
      <trkpt lat="44.5323" lon="3.78819">
        <ele>1397.943</ele>
        <time>2012-05-22T08:36:49Z</time>
      </trkpt>
      <trkpt lat="44.53231" lon="3.78815">
        <ele>1398.267</ele>
        <time>2012-05-22T08:36:51Z</time>
      </trkpt>
      <trkpt lat="44.53232" lon="3.78805">
        <ele>1397.129</ele>
        <time>2012-05-22T08:36:57Z</time>
      </trkpt>
      <trkpt lat="44.53232" lon="3.78797">
        <ele>1398.142</ele>
        <time>2012-05-22T08:37:02Z</time>
      </trkpt>
      <trkpt lat="44.53232" lon="3.78786">
        <ele>1399.549</ele>
        <time>2012-05-22T08:37:08Z</time>
      </trkpt>
      <trkpt lat="44.53232" lon="3.78761">
        <ele>1399.441</ele>
        <time>2012-05-22T08:37:23Z</time>
      </trkpt>
      <trkpt lat="44.53228" lon="3.78749">
        <ele>1401.721</ele>
        <time>2012-05-22T08:37:31Z</time>
      </trkpt>
      <trkpt lat="44.53219" lon="3.78731">
        <ele>1400.514</ele>
        <time>2012-05-22T08:37:46Z</time>
      </trkpt>
      <trkpt lat="44.53216" lon="3.78725">
        <ele>1403.037</ele>
        <time>2012-05-22T08:37:50Z</time>
      </trkpt>
      <trkpt lat="44.53199" lon="3.787">
        <ele>1403.25</ele>
        <time>2012-05-22T08:38:11Z</time>
      </trkpt>
      <trkpt lat="44.53193" lon="3.78695">
        <ele>1404.644</ele>
        <time>2012-05-22T08:38:16Z</time>
      </trkpt>
      <trkpt lat="44.53188" lon="3.78689">
        <ele>1405.992</ele>
        <time>2012-05-22T08:38:22Z</time>
      </trkpt>
      <trkpt lat="44.53184" lon="3.78683">
        <ele>1405.409</ele>
        <time>2012-05-22T08:38:27Z</time>
      </trkpt>
      <trkpt lat="44.53182" lon="3.78682">
        <ele>1405.932</ele>
        <time>2012-05-22T08:38:29Z</time>
      </trkpt>
      <trkpt lat="44.53173" lon="3.78673">
        <ele>1405.595</ele>
        <time>2012-05-22T08:38:39Z</time>
      </trkpt>
      <trkpt lat="44.53166" lon="3.78667">
        <ele>1406.433</ele>
        <time>2012-05-22T08:38:46Z</time>
      </trkpt>
      <trkpt lat="44.53164" lon="3.78666">
        <ele>1407.247</ele>
        <time>2012-05-22T08:38:48Z</time>
      </trkpt>
      <trkpt lat="44.5316" lon="3.7866">
        <ele>1408.476</ele>
        <time>2012-05-22T08:38:53Z</time>
      </trkpt>
      <trkpt lat="44.53148" lon="3.78649">
        <ele>1409.099</ele>
        <time>2012-05-22T08:39:06Z</time>
      </trkpt>
      <trkpt lat="44.5313" lon="3.78635">
        <ele>1410.575</ele>
        <time>2012-05-22T08:39:25Z</time>
      </trkpt>
      <trkpt lat="44.53123" lon="3.78631">
        <ele>1410.646</ele>
        <time>2012-05-22T08:39:32Z</time>
      </trkpt>
      <trkpt lat="44.53112" lon="3.78623">
        <ele>1412.367</ele>
        <time>2012-05-22T08:39:43Z</time>
      </trkpt>
      <trkpt lat="44.53102" lon="3.78613">
        <ele>1412.621</ele>
        <time>2012-05-22T08:39:53Z</time>
      </trkpt>
      <trkpt lat="44.53101" lon="3.78611">
        <ele>1412.966</ele>
        <time>2012-05-22T08:39:55Z</time>
      </trkpt>
      <trkpt lat="44.53085" lon="3.786">
        <ele>1414.144</ele>
        <time>2012-05-22T08:40:10Z</time>
      </trkpt>
      <trkpt lat="44.53078" lon="3.78595">
        <ele>1416.177</ele>
        <time>2012-05-22T08:40:17Z</time>
      </trkpt>
      <trkpt lat="44.5306" lon="3.78573">
        <ele>1416.251</ele>
        <time>2012-05-22T08:40:37Z</time>
      </trkpt>
      <trkpt lat="44.53058" lon="3.7857">
        <ele>1417.244</ele>
        <time>2012-05-22T08:40:40Z</time>
      </trkpt>
      <trkpt lat="44.53056" lon="3.78566">
        <ele>1417.02</ele>
        <time>2012-05-22T08:40:43Z</time>
      </trkpt>
      <trkpt lat="44.53054" lon="3.78564">
        <ele>1418.375</ele>
        <time>2012-05-22T08:40:45Z</time>
      </trkpt>
      <trkpt lat="44.53051" lon="3.78561">
        <ele>1417.544</ele>
        <time>2012-05-22T08:40:48Z</time>
      </trkpt>
      <trkpt lat="44.53036" lon="3.7854">
        <ele>1418.783</ele>
        <time>2012-05-22T08:41:06Z</time>
      </trkpt>
      <trkpt lat="44.53033" lon="3.78536">
        <ele>1416.937</ele>
        <time>2012-05-22T08:41:09Z</time>
      </trkpt>
      <trkpt lat="44.5303" lon="3.78531">
        <ele>1418.775</ele>
        <time>2012-05-22T08:41:13Z</time>
      </trkpt>
      <trkpt lat="44.53029" lon="3.7853">
        <ele>1418.691</ele>
        <time>2012-05-22T08:41:14Z</time>
      </trkpt>
      <trkpt lat="44.53022" lon="3.78528">
        <ele>1420.224</ele>
        <time>2012-05-22T08:41:19Z</time>
      </trkpt>
      <trkpt lat="44.53019" lon="3.78528">
        <ele>1419.775</ele>
        <time>2012-05-22T08:41:21Z</time>
      </trkpt>
      <trkpt lat="44.53013" lon="3.78534">
        <ele>1419.032</ele>
        <time>2012-05-22T08:41:28Z</time>
      </trkpt>
      <trkpt lat="44.53009" lon="3.78537">
        <ele>1418.019</ele>
        <time>2012-05-22T08:43:01Z</time>
      </trkpt>
      <trkpt lat="44.53005" lon="3.78544">
        <ele>1415.303</ele>
        <time>2012-05-22T08:44:49Z</time>
      </trkpt>
      <trkpt lat="44.53" lon="3.78543">
        <ele>1414.591</ele>
        <time>2012-05-22T08:44:55Z</time>
      </trkpt>
      <trkpt lat="44.52991" lon="3.78547">
        <ele>1414.207</ele>
        <time>2012-05-22T08:45:02Z</time>
      </trkpt>
      <trkpt lat="44.52989" lon="3.7855">
        <ele>1413.846</ele>
        <time>2012-05-22T08:45:04Z</time>
      </trkpt>
      <trkpt lat="44.52987" lon="3.78555">
        <ele>1412.945</ele>
        <time>2012-05-22T08:45:08Z</time>
      </trkpt>
      <trkpt lat="44.52983" lon="3.78554">
        <ele>1410.956</ele>
        <time>2012-05-22T08:46:07Z</time>
      </trkpt>
      <trkpt lat="44.52978" lon="3.78567">
        <ele>1410.913</ele>
        <time>2012-05-22T08:46:17Z</time>
      </trkpt>
      <trkpt lat="44.52965" lon="3.78588">
        <ele>1408.523</ele>
        <time>2012-05-22T08:46:34Z</time>
      </trkpt>
      <trkpt lat="44.5295" lon="3.78608">
        <ele>1408.542</ele>
        <time>2012-05-22T08:46:51Z</time>
      </trkpt>
      <trkpt lat="44.52941" lon="3.78623">
        <ele>1408.645</ele>
        <time>2012-05-22T08:47:03Z</time>
      </trkpt>
      <trkpt lat="44.52924" lon="3.78643">
        <ele>1407.852</ele>
        <time>2012-05-22T08:47:19Z</time>
      </trkpt>
      <trkpt lat="44.52914" lon="3.78654">
        <ele>1406.496</ele>
        <time>2012-05-22T08:47:29Z</time>
      </trkpt>
      <trkpt lat="44.529" lon="3.78672">
        <ele>1405.736</ele>
        <time>2012-05-22T08:47:45Z</time>
      </trkpt>
      <trkpt lat="44.52885" lon="3.78695">
        <ele>1404.776</ele>
        <time>2012-05-22T08:48:01Z</time>
      </trkpt>
      <trkpt lat="44.52884" lon="3.78697">
        <ele>1404.784</ele>
        <time>2012-05-22T08:48:02Z</time>
      </trkpt>
      <trkpt lat="44.52878" lon="3.78704">
        <ele>1402.947</ele>
        <time>2012-05-22T08:48:08Z</time>
      </trkpt>
      <trkpt lat="44.52875" lon="3.78709">
        <ele>1403.847</ele>
        <time>2012-05-22T08:48:11Z</time>
      </trkpt>
      <trkpt lat="44.52862" lon="3.7873">
        <ele>1402.986</ele>
        <time>2012-05-22T08:48:26Z</time>
      </trkpt>
      <trkpt lat="44.52858" lon="3.78745">
        <ele>1400.761</ele>
        <time>2012-05-22T08:48:34Z</time>
      </trkpt>
      <trkpt lat="44.52857" lon="3.78748">
        <ele>1401.145</ele>
        <time>2012-05-22T08:48:36Z</time>
      </trkpt>
      <trkpt lat="44.52852" lon="3.78763">
        <ele>1402.309</ele>
        <time>2012-05-22T08:48:45Z</time>
      </trkpt>
      <trkpt lat="44.52841" lon="3.78788">
        <ele>1401.074</ele>
        <time>2012-05-22T08:49:00Z</time>
      </trkpt>
      <trkpt lat="44.52839" lon="3.78794">
        <ele>1400.864</ele>
        <time>2012-05-22T08:49:04Z</time>
      </trkpt>
      <trkpt lat="44.52833" lon="3.78815">
        <ele>1400.311</ele>
        <time>2012-05-22T08:49:16Z</time>
      </trkpt>
      <trkpt lat="44.52833" lon="3.78819">
        <ele>1401.102</ele>
        <time>2012-05-22T08:49:18Z</time>
      </trkpt>
      <trkpt lat="44.52829" lon="3.78833">
        <ele>1398.708</ele>
        <time>2012-05-22T08:49:26Z</time>
      </trkpt>
      <trkpt lat="44.52828" lon="3.7884">
        <ele>1398.604</ele>
        <time>2012-05-22T08:49:30Z</time>
      </trkpt>
      <trkpt lat="44.52825" lon="3.78848">
        <ele>1398.391</ele>
        <time>2012-05-22T08:49:35Z</time>
      </trkpt>
      <trkpt lat="44.52813" lon="3.7888">
        <ele>1396.457</ele>
        <time>2012-05-22T08:49:54Z</time>
      </trkpt>
      <trkpt lat="44.52806" lon="3.78893">
        <ele>1395.969</ele>
        <time>2012-05-22T08:50:02Z</time>
      </trkpt>
      <trkpt lat="44.52804" lon="3.78899">
        <ele>1396.312</ele>
        <time>2012-05-22T08:50:06Z</time>
      </trkpt>
      <trkpt lat="44.528" lon="3.78905">
        <ele>1395.112</ele>
        <time>2012-05-22T08:50:10Z</time>
      </trkpt>
      <trkpt lat="44.52786" lon="3.78931">
        <ele>1394.896</ele>
        <time>2012-05-22T08:50:27Z</time>
      </trkpt>
      <trkpt lat="44.52783" lon="3.78935">
        <ele>1394.549</ele>
        <time>2012-05-22T08:50:30Z</time>
      </trkpt>
      <trkpt lat="44.52774" lon="3.78948">
        <ele>1393.577</ele>
        <time>2012-05-22T08:50:40Z</time>
      </trkpt>
      <trkpt lat="44.52768" lon="3.78957">
        <ele>1392.601</ele>
        <time>2012-05-22T08:50:47Z</time>
      </trkpt>
      <trkpt lat="44.52754" lon="3.78969">
        <ele>1391.182</ele>
        <time>2012-05-22T08:51:00Z</time>
      </trkpt>
      <trkpt lat="44.52733" lon="3.78977">
        <ele>1391.381</ele>
        <time>2012-05-22T08:51:15Z</time>
      </trkpt>
      <trkpt lat="44.52721" lon="3.78985">
        <ele>1391.497</ele>
        <time>2012-05-22T08:51:26Z</time>
      </trkpt>
      <trkpt lat="44.52715" lon="3.78986">
        <ele>1390.793</ele>
        <time>2012-05-22T08:51:30Z</time>
      </trkpt>
      <trkpt lat="44.52708" lon="3.78987">
        <ele>1390.522</ele>
        <time>2012-05-22T08:51:35Z</time>
      </trkpt>
      <trkpt lat="44.52702" lon="3.78988">
        <ele>1390.474</ele>
        <time>2012-05-22T08:51:39Z</time>
      </trkpt>
      <trkpt lat="44.52688" lon="3.78988">
        <ele>1391.161</ele>
        <time>2012-05-22T08:51:48Z</time>
      </trkpt>
      <trkpt lat="44.52684" lon="3.78989">
        <ele>1392.001</ele>
        <time>2012-05-22T08:51:52Z</time>
      </trkpt>
      <trkpt lat="44.52663" lon="3.78989">
        <ele>1392.337</ele>
        <time>2012-05-22T08:52:07Z</time>
      </trkpt>
      <trkpt lat="44.52639" lon="3.78993">
        <ele>1391.372</ele>
        <time>2012-05-22T08:52:26Z</time>
      </trkpt>
      <trkpt lat="44.52613" lon="3.78995">
        <ele>1393.979</ele>
        <time>2012-05-22T08:52:46Z</time>
      </trkpt>
      <trkpt lat="44.52605" lon="3.78997">
        <ele>1394.022</ele>
        <time>2012-05-22T08:52:52Z</time>
      </trkpt>
      <trkpt lat="44.52597" lon="3.78999">
        <ele>1394.257</ele>
        <time>2012-05-22T08:52:59Z</time>
      </trkpt>
      <trkpt lat="44.52591" lon="3.79001">
        <ele>1393.473</ele>
        <time>2012-05-22T08:53:03Z</time>
      </trkpt>
      <trkpt lat="44.52584" lon="3.79004">
        <ele>1393.818</ele>
        <time>2012-05-22T08:53:10Z</time>
      </trkpt>
      <trkpt lat="44.52579" lon="3.79004">
        <ele>1393.871</ele>
        <time>2012-05-22T08:53:14Z</time>
      </trkpt>
      <trkpt lat="44.52564" lon="3.79013">
        <ele>1392.323</ele>
        <time>2012-05-22T08:53:27Z</time>
      </trkpt>
      <trkpt lat="44.5256" lon="3.79012">
        <ele>1393.906</ele>
        <time>2012-05-22T08:53:29Z</time>
      </trkpt>
      <trkpt lat="44.52547" lon="3.79021">
        <ele>1394.647</ele>
        <time>2012-05-22T08:53:41Z</time>
      </trkpt>
      <trkpt lat="44.52541" lon="3.79028">
        <ele>1394.542</ele>
        <time>2012-05-22T08:53:48Z</time>
      </trkpt>
      <trkpt lat="44.52539" lon="3.7903">
        <ele>1395.771</ele>
        <time>2012-05-22T08:53:50Z</time>
      </trkpt>
      <trkpt lat="44.52536" lon="3.79032">
        <ele>1395.315</ele>
        <time>2012-05-22T08:53:53Z</time>
      </trkpt>
      <trkpt lat="44.5253" lon="3.79039">
        <ele>1394.798</ele>
        <time>2012-05-22T08:53:59Z</time>
      </trkpt>
      <trkpt lat="44.52504" lon="3.7906">
        <ele>1395.95</ele>
        <time>2012-05-22T08:54:18Z</time>
      </trkpt>
      <trkpt lat="44.52499" lon="3.79069">
        <ele>1395.528</ele>
        <time>2012-05-22T08:54:23Z</time>
      </trkpt>
      <trkpt lat="44.52495" lon="3.79072">
        <ele>1395.625</ele>
        <time>2012-05-22T08:54:26Z</time>
      </trkpt>
      <trkpt lat="44.52491" lon="3.79079">
        <ele>1395.623</ele>
        <time>2012-05-22T08:54:30Z</time>
      </trkpt>
      <trkpt lat="44.52486" lon="3.79081">
        <ele>1395.356</ele>
        <time>2012-05-22T08:54:33Z</time>
      </trkpt>
      <trkpt lat="44.52469" lon="3.79104">
        <ele>1395.285</ele>
        <time>2012-05-22T08:54:48Z</time>
      </trkpt>
      <trkpt lat="44.52463" lon="3.79111">
        <ele>1394.621</ele>
        <time>2012-05-22T08:54:53Z</time>
      </trkpt>
      <trkpt lat="44.52441" lon="3.79154">
        <ele>1392.351</ele>
        <time>2012-05-22T08:55:18Z</time>
      </trkpt>
      <trkpt lat="44.52431" lon="3.79184">
        <ele>1392.315</ele>
        <time>2012-05-22T08:55:35Z</time>
      </trkpt>
      <trkpt lat="44.52427" lon="3.79191">
        <ele>1392.708</ele>
        <time>2012-05-22T08:55:39Z</time>
      </trkpt>
      <trkpt lat="44.52416" lon="3.79226">
        <ele>1390.344</ele>
        <time>2012-05-22T08:55:58Z</time>
      </trkpt>
      <trkpt lat="44.52407" lon="3.79248">
        <ele>1388.38</ele>
        <time>2012-05-22T08:56:13Z</time>
      </trkpt>
      <trkpt lat="44.52404" lon="3.7926">
        <ele>1388.883</ele>
        <time>2012-05-22T08:56:20Z</time>
      </trkpt>
      <trkpt lat="44.52394" lon="3.79288">
        <ele>1389.96</ele>
        <time>2012-05-22T08:56:37Z</time>
      </trkpt>
      <trkpt lat="44.52393" lon="3.79291">
        <ele>1389.918</ele>
        <time>2012-05-22T08:56:39Z</time>
      </trkpt>
      <trkpt lat="44.52385" lon="3.79309">
        <ele>1389.807</ele>
        <time>2012-05-22T08:56:51Z</time>
      </trkpt>
      <trkpt lat="44.5238" lon="3.7932">
        <ele>1389.691</ele>
        <time>2012-05-22T08:56:58Z</time>
      </trkpt>
      <trkpt lat="44.52373" lon="3.79348">
        <ele>1388.966</ele>
        <time>2012-05-22T08:57:13Z</time>
      </trkpt>
      <trkpt lat="44.5237" lon="3.79376">
        <ele>1387.458</ele>
        <time>2012-05-22T08:57:28Z</time>
      </trkpt>
      <trkpt lat="44.52364" lon="3.79405">
        <ele>1388.204</ele>
        <time>2012-05-22T08:57:45Z</time>
      </trkpt>
      <trkpt lat="44.52359" lon="3.79432">
        <ele>1386.339</ele>
        <time>2012-05-22T08:57:58Z</time>
      </trkpt>
      <trkpt lat="44.52358" lon="3.79434">
        <ele>1386.338</ele>
        <time>2012-05-22T08:57:59Z</time>
      </trkpt>
      <trkpt lat="44.52356" lon="3.79452">
        <ele>1385.511</ele>
        <time>2012-05-22T08:58:11Z</time>
      </trkpt>
      <trkpt lat="44.52356" lon="3.79458">
        <ele>1384.565</ele>
        <time>2012-05-22T08:59:03Z</time>
      </trkpt>
      <trkpt lat="44.52352" lon="3.79469">
        <ele>1383.079</ele>
        <time>2012-05-22T08:59:11Z</time>
      </trkpt>
      <trkpt lat="44.5235" lon="3.79484">
        <ele>1380.744</ele>
        <time>2012-05-22T08:59:21Z</time>
      </trkpt>
      <trkpt lat="44.52348" lon="3.79493">
        <ele>1380.32</ele>
        <time>2012-05-22T08:59:25Z</time>
      </trkpt>
      <trkpt lat="44.52343" lon="3.79511">
        <ele>1378.955</ele>
        <time>2012-05-22T08:59:37Z</time>
      </trkpt>
      <trkpt lat="44.52339" lon="3.79517">
        <ele>1378.235</ele>
        <time>2012-05-22T08:59:42Z</time>
      </trkpt>
      <trkpt lat="44.52336" lon="3.79528">
        <ele>1377.166</ele>
        <time>2012-05-22T08:59:50Z</time>
      </trkpt>
      <trkpt lat="44.52329" lon="3.79546">
        <ele>1375.366</ele>
        <time>2012-05-22T09:00:01Z</time>
      </trkpt>
      <trkpt lat="44.52329" lon="3.79551">
        <ele>1375.594</ele>
        <time>2012-05-22T09:00:04Z</time>
      </trkpt>
      <trkpt lat="44.52326" lon="3.79554">
        <ele>1374.877</ele>
        <time>2012-05-22T09:00:07Z</time>
      </trkpt>
      <trkpt lat="44.5232" lon="3.79564">
        <ele>1374.595</ele>
        <time>2012-05-22T09:00:15Z</time>
      </trkpt>
      <trkpt lat="44.52319" lon="3.79567">
        <ele>1374.216</ele>
        <time>2012-05-22T09:00:17Z</time>
      </trkpt>
      <trkpt lat="44.52316" lon="3.79575">
        <ele>1373.351</ele>
        <time>2012-05-22T09:00:22Z</time>
      </trkpt>
      <trkpt lat="44.52311" lon="3.7958">
        <ele>1373.453</ele>
        <time>2012-05-22T09:00:26Z</time>
      </trkpt>
      <trkpt lat="44.52303" lon="3.796">
        <ele>1371.942</ele>
        <time>2012-05-22T09:00:42Z</time>
      </trkpt>
      <trkpt lat="44.523" lon="3.79603">
        <ele>1370.908</ele>
        <time>2012-05-22T09:00:45Z</time>
      </trkpt>
      <trkpt lat="44.52298" lon="3.79605">
        <ele>1370.896</ele>
        <time>2012-05-22T09:00:47Z</time>
      </trkpt>
      <trkpt lat="44.52294" lon="3.79605">
        <ele>1371.149</ele>
        <time>2012-05-22T09:00:49Z</time>
      </trkpt>
      <trkpt lat="44.52283" lon="3.79615">
        <ele>1368.974</ele>
        <time>2012-05-22T09:00:59Z</time>
      </trkpt>
      <trkpt lat="44.52281" lon="3.79618">
        <ele>1368.264</ele>
        <time>2012-05-22T09:01:02Z</time>
      </trkpt>
      <trkpt lat="44.52272" lon="3.79625">
        <ele>1366.892</ele>
        <time>2012-05-22T09:01:11Z</time>
      </trkpt>
      <trkpt lat="44.52265" lon="3.79627">
        <ele>1366.567</ele>
        <time>2012-05-22T09:01:16Z</time>
      </trkpt>
      <trkpt lat="44.52249" lon="3.79627">
        <ele>1364.802</ele>
        <time>2012-05-22T09:01:23Z</time>
      </trkpt>
      <trkpt lat="44.52239" lon="3.79619">
        <ele>1362.79</ele>
        <time>2012-05-22T09:01:30Z</time>
      </trkpt>
      <trkpt lat="44.52234" lon="3.79621">
        <ele>1361.346</ele>
        <time>2012-05-22T09:01:35Z</time>
      </trkpt>
      <trkpt lat="44.52224" lon="3.79619">
        <ele>1360.032</ele>
        <time>2012-05-22T09:01:41Z</time>
      </trkpt>
      <trkpt lat="44.52209" lon="3.79618">
        <ele>1356.459</ele>
        <time>2012-05-22T09:01:50Z</time>
      </trkpt>
      <trkpt lat="44.52207" lon="3.79618">
        <ele>1355.563</ele>
        <time>2012-05-22T09:01:52Z</time>
      </trkpt>
      <trkpt lat="44.52187" lon="3.7962">
        <ele>1354.077</ele>
        <time>2012-05-22T09:02:08Z</time>
      </trkpt>
      <trkpt lat="44.52177" lon="3.79613">
        <ele>1352.469</ele>
        <time>2012-05-22T09:02:16Z</time>
      </trkpt>
      <trkpt lat="44.52161" lon="3.79608">
        <ele>1348.996</ele>
        <time>2012-05-22T09:02:31Z</time>
      </trkpt>
      <trkpt lat="44.5215" lon="3.79605">
        <ele>1347.872</ele>
        <time>2012-05-22T09:02:41Z</time>
      </trkpt>
      <trkpt lat="44.52145" lon="3.79604">
        <ele>1346.414</ele>
        <time>2012-05-22T09:02:44Z</time>
      </trkpt>
      <trkpt lat="44.52138" lon="3.79602">
        <ele>1344.453</ele>
        <time>2012-05-22T09:02:49Z</time>
      </trkpt>
      <trkpt lat="44.52134" lon="3.79601">
        <ele>1343.482</ele>
        <time>2012-05-22T09:02:53Z</time>
      </trkpt>
      <trkpt lat="44.52131" lon="3.79598">
        <ele>1342.916</ele>
        <time>2012-05-22T09:02:56Z</time>
      </trkpt>
      <trkpt lat="44.52126" lon="3.79597">
        <ele>1342.887</ele>
        <time>2012-05-22T09:02:59Z</time>
      </trkpt>
      <trkpt lat="44.52122" lon="3.79597">
        <ele>1342.973</ele>
        <time>2012-05-22T09:03:02Z</time>
      </trkpt>
      <trkpt lat="44.5212" lon="3.79598">
        <ele>1342.62</ele>
        <time>2012-05-22T09:03:04Z</time>
      </trkpt>
      <trkpt lat="44.52115" lon="3.79598">
        <ele>1341.374</ele>
        <time>2012-05-22T09:03:08Z</time>
      </trkpt>
      <trkpt lat="44.52107" lon="3.79595">
        <ele>1339.798</ele>
        <time>2012-05-22T09:03:13Z</time>
      </trkpt>
      <trkpt lat="44.52099" lon="3.7959">
        <ele>1339.183</ele>
        <time>2012-05-22T09:03:22Z</time>
      </trkpt>
      <trkpt lat="44.52094" lon="3.79587">
        <ele>1337.819</ele>
        <time>2012-05-22T09:03:27Z</time>
      </trkpt>
      <trkpt lat="44.52086" lon="3.79585">
        <ele>1335.932</ele>
        <time>2012-05-22T09:03:33Z</time>
      </trkpt>
      <trkpt lat="44.52068" lon="3.79584">
        <ele>1332.956</ele>
        <time>2012-05-22T09:03:45Z</time>
      </trkpt>
      <trkpt lat="44.52065" lon="3.79581">
        <ele>1332.847</ele>
        <time>2012-05-22T09:03:47Z</time>
      </trkpt>
      <trkpt lat="44.5205" lon="3.79574">
        <ele>1330.884</ele>
        <time>2012-05-22T09:03:58Z</time>
      </trkpt>
      <trkpt lat="44.52034" lon="3.79577">
        <ele>1329.075</ele>
        <time>2012-05-22T09:04:10Z</time>
      </trkpt>
      <trkpt lat="44.52032" lon="3.79575">
        <ele>1329.081</ele>
        <time>2012-05-22T09:04:11Z</time>
      </trkpt>
      <trkpt lat="44.5202" lon="3.79578">
        <ele>1326.765</ele>
        <time>2012-05-22T09:04:20Z</time>
      </trkpt>
      <trkpt lat="44.52015" lon="3.7958">
        <ele>1326.84</ele>
        <time>2012-05-22T09:04:24Z</time>
      </trkpt>
      <trkpt lat="44.52011" lon="3.79581">
        <ele>1325.476</ele>
        <time>2012-05-22T09:04:28Z</time>
      </trkpt>
      <trkpt lat="44.52008" lon="3.79583">
        <ele>1325.178</ele>
        <time>2012-05-22T09:04:32Z</time>
      </trkpt>
      <trkpt lat="44.52005" lon="3.79586">
        <ele>1324.265</ele>
        <time>2012-05-22T09:04:36Z</time>
      </trkpt>
      <trkpt lat="44.52" lon="3.79584">
        <ele>1323.435</ele>
        <time>2012-05-22T09:04:39Z</time>
      </trkpt>
      <trkpt lat="44.51987" lon="3.79592">
        <ele>1321.234</ele>
        <time>2012-05-22T09:04:53Z</time>
      </trkpt>
      <trkpt lat="44.51976" lon="3.79595">
        <ele>1319.569</ele>
        <time>2012-05-22T09:05:03Z</time>
      </trkpt>
      <trkpt lat="44.51974" lon="3.79595">
        <ele>1319.211</ele>
        <time>2012-05-22T09:05:05Z</time>
      </trkpt>
      <trkpt lat="44.51962" lon="3.796">
        <ele>1316.437</ele>
        <time>2012-05-22T09:05:17Z</time>
      </trkpt>
      <trkpt lat="44.51951" lon="3.79606">
        <ele>1315.359</ele>
        <time>2012-05-22T09:05:29Z</time>
      </trkpt>
      <trkpt lat="44.51949" lon="3.79609">
        <ele>1315.145</ele>
        <time>2012-05-22T09:05:32Z</time>
      </trkpt>
      <trkpt lat="44.51947" lon="3.79613">
        <ele>1314.758</ele>
        <time>2012-05-22T09:05:36Z</time>
      </trkpt>
      <trkpt lat="44.51941" lon="3.79621">
        <ele>1312.424</ele>
        <time>2012-05-22T09:05:43Z</time>
      </trkpt>
      <trkpt lat="44.51939" lon="3.79622">
        <ele>1312.597</ele>
        <time>2012-05-22T09:05:45Z</time>
      </trkpt>
      <trkpt lat="44.51934" lon="3.79625">
        <ele>1312.076</ele>
        <time>2012-05-22T09:05:50Z</time>
      </trkpt>
      <trkpt lat="44.51928" lon="3.79642">
        <ele>1309.426</ele>
        <time>2012-05-22T09:06:03Z</time>
      </trkpt>
      <trkpt lat="44.51922" lon="3.79647">
        <ele>1307.859</ele>
        <time>2012-05-22T09:06:09Z</time>
      </trkpt>
      <trkpt lat="44.5192" lon="3.79653">
        <ele>1307.586</ele>
        <time>2012-05-22T09:06:13Z</time>
      </trkpt>
      <trkpt lat="44.51918" lon="3.79655">
        <ele>1306.617</ele>
        <time>2012-05-22T09:06:15Z</time>
      </trkpt>
      <trkpt lat="44.51912" lon="3.79664">
        <ele>1306.588</ele>
        <time>2012-05-22T09:06:23Z</time>
      </trkpt>
      <trkpt lat="44.5191" lon="3.79667">
        <ele>1306.147</ele>
        <time>2012-05-22T09:06:26Z</time>
      </trkpt>
      <trkpt lat="44.51906" lon="3.79672">
        <ele>1304.753</ele>
        <time>2012-05-22T09:06:31Z</time>
      </trkpt>
      <trkpt lat="44.51903" lon="3.79674">
        <ele>1303.891</ele>
        <time>2012-05-22T09:06:34Z</time>
      </trkpt>
      <trkpt lat="44.519" lon="3.79675">
        <ele>1303.674</ele>
        <time>2012-05-22T09:06:36Z</time>
      </trkpt>
      <trkpt lat="44.51894" lon="3.79678">
        <ele>1302.665</ele>
        <time>2012-05-22T09:06:42Z</time>
      </trkpt>
      <trkpt lat="44.5189" lon="3.79681">
        <ele>1301.812</ele>
        <time>2012-05-22T09:06:46Z</time>
      </trkpt>
      <trkpt lat="44.51881" lon="3.79685">
        <ele>1300.825</ele>
        <time>2012-05-22T09:06:56Z</time>
      </trkpt>
      <trkpt lat="44.51874" lon="3.79687">
        <ele>1298.782</ele>
        <time>2012-05-22T09:07:03Z</time>
      </trkpt>
      <trkpt lat="44.51871" lon="3.79688">
        <ele>1298.54</ele>
        <time>2012-05-22T09:07:06Z</time>
      </trkpt>
      <trkpt lat="44.51869" lon="3.7969">
        <ele>1297.967</ele>
        <time>2012-05-22T09:07:08Z</time>
      </trkpt>
      <trkpt lat="44.51868" lon="3.79692">
        <ele>1297.596</ele>
        <time>2012-05-22T09:07:10Z</time>
      </trkpt>
      <trkpt lat="44.51866" lon="3.79695">
        <ele>1297.574</ele>
        <time>2012-05-22T09:07:12Z</time>
      </trkpt>
      <trkpt lat="44.51863" lon="3.79699">
        <ele>1296.517</ele>
        <time>2012-05-22T09:07:27Z</time>
      </trkpt>
      <trkpt lat="44.5186" lon="3.79701">
        <ele>1295.396</ele>
        <time>2012-05-22T09:07:58Z</time>
      </trkpt>
      <trkpt lat="44.51858" lon="3.79704">
        <ele>1294.755</ele>
        <time>2012-05-22T09:08:05Z</time>
      </trkpt>
      <trkpt lat="44.51844" lon="3.79712">
        <ele>1292.415</ele>
        <time>2012-05-22T09:08:17Z</time>
      </trkpt>
      <trkpt lat="44.51843" lon="3.79715">
        <ele>1291.587</ele>
        <time>2012-05-22T09:08:19Z</time>
      </trkpt>
      <trkpt lat="44.51839" lon="3.7972">
        <ele>1291.685</ele>
        <time>2012-05-22T09:08:24Z</time>
      </trkpt>
      <trkpt lat="44.51836" lon="3.79722">
        <ele>1290.895</ele>
        <time>2012-05-22T09:08:27Z</time>
      </trkpt>
      <trkpt lat="44.51835" lon="3.79725">
        <ele>1290.761</ele>
        <time>2012-05-22T09:08:29Z</time>
      </trkpt>
      <trkpt lat="44.5182" lon="3.79729">
        <ele>1287.839</ele>
        <time>2012-05-22T09:08:42Z</time>
      </trkpt>
      <trkpt lat="44.51809" lon="3.79737">
        <ele>1287.423</ele>
        <time>2012-05-22T09:08:58Z</time>
      </trkpt>
      <trkpt lat="44.51806" lon="3.79739">
        <ele>1287.307</ele>
        <time>2012-05-22T09:09:00Z</time>
      </trkpt>
      <trkpt lat="44.518" lon="3.79741">
        <ele>1285.656</ele>
        <time>2012-05-22T09:09:06Z</time>
      </trkpt>
      <trkpt lat="44.51797" lon="3.79744">
        <ele>1284.599</ele>
        <time>2012-05-22T09:09:09Z</time>
      </trkpt>
      <trkpt lat="44.51793" lon="3.79749">
        <ele>1284.279</ele>
        <time>2012-05-22T09:09:14Z</time>
      </trkpt>
      <trkpt lat="44.51786" lon="3.79752">
        <ele>1284.195</ele>
        <time>2012-05-22T09:09:19Z</time>
      </trkpt>
      <trkpt lat="44.51781" lon="3.79752">
        <ele>1283.29</ele>
        <time>2012-05-22T09:09:23Z</time>
      </trkpt>
      <trkpt lat="44.51779" lon="3.79753">
        <ele>1282.997</ele>
        <time>2012-05-22T09:09:25Z</time>
      </trkpt>
      <trkpt lat="44.51771" lon="3.79763">
        <ele>1279.612</ele>
        <time>2012-05-22T09:09:36Z</time>
      </trkpt>
      <trkpt lat="44.5176" lon="3.79767">
        <ele>1278.086</ele>
        <time>2012-05-22T09:09:46Z</time>
      </trkpt>
      <trkpt lat="44.51756" lon="3.79773">
        <ele>1278.779</ele>
        <time>2012-05-22T09:09:51Z</time>
      </trkpt>
      <trkpt lat="44.51748" lon="3.79773">
        <ele>1278.302</ele>
        <time>2012-05-22T09:09:57Z</time>
      </trkpt>
      <trkpt lat="44.51746" lon="3.79775">
        <ele>1277.52</ele>
        <time>2012-05-22T09:09:59Z</time>
      </trkpt>
      <trkpt lat="44.51745" lon="3.79777">
        <ele>1276.684</ele>
        <time>2012-05-22T09:10:01Z</time>
      </trkpt>
      <trkpt lat="44.51732" lon="3.79784">
        <ele>1276.09</ele>
        <time>2012-05-22T09:10:15Z</time>
      </trkpt>
      <trkpt lat="44.51723" lon="3.79786">
        <ele>1274.031</ele>
        <time>2012-05-22T09:10:23Z</time>
      </trkpt>
      <trkpt lat="44.51721" lon="3.79789">
        <ele>1274.459</ele>
        <time>2012-05-22T09:10:25Z</time>
      </trkpt>
      <trkpt lat="44.51707" lon="3.79798">
        <ele>1272.234</ele>
        <time>2012-05-22T09:10:38Z</time>
      </trkpt>
      <trkpt lat="44.51692" lon="3.79798">
        <ele>1271.229</ele>
        <time>2012-05-22T09:10:47Z</time>
      </trkpt>
      <trkpt lat="44.5168" lon="3.79804">
        <ele>1269.215</ele>
        <time>2012-05-22T09:10:58Z</time>
      </trkpt>
      <trkpt lat="44.51678" lon="3.79806">
        <ele>1268.646</ele>
        <time>2012-05-22T09:11:01Z</time>
      </trkpt>
      <trkpt lat="44.51675" lon="3.79807">
        <ele>1267.976</ele>
        <time>2012-05-22T09:11:04Z</time>
      </trkpt>
      <trkpt lat="44.51668" lon="3.79809">
        <ele>1268</ele>
        <time>2012-05-22T09:11:11Z</time>
      </trkpt>
      <trkpt lat="44.51659" lon="3.7982">
        <ele>1264.537</ele>
        <time>2012-05-22T09:11:21Z</time>
      </trkpt>
      <trkpt lat="44.51657" lon="3.79821">
        <ele>1264.541</ele>
        <time>2012-05-22T09:11:22Z</time>
      </trkpt>
      <trkpt lat="44.51649" lon="3.79822">
        <ele>1263.77</ele>
        <time>2012-05-22T09:11:31Z</time>
      </trkpt>
      <trkpt lat="44.51648" lon="3.79814">
        <ele>1261.649</ele>
        <time>2012-05-22T09:11:38Z</time>
      </trkpt>
      <trkpt lat="44.51644" lon="3.79797">
        <ele>1260.087</ele>
        <time>2012-05-22T09:11:58Z</time>
      </trkpt>
      <trkpt lat="44.51649" lon="3.79792">
        <ele>1258.679</ele>
        <time>2012-05-22T09:12:16Z</time>
      </trkpt>
      <trkpt lat="44.5165" lon="3.79792">
        <ele>1260.198</ele>
        <time>2012-05-22T09:12:19Z</time>
      </trkpt>
      <trkpt lat="44.51653" lon="3.7979">
        <ele>1259.355</ele>
        <time>2012-05-22T09:12:28Z</time>
      </trkpt>
      <trkpt lat="44.51655" lon="3.79787">
        <ele>1258.833</ele>
        <time>2012-05-22T09:12:31Z</time>
      </trkpt>
      <trkpt lat="44.51667" lon="3.79769">
        <ele>1259.668</ele>
        <time>2012-05-22T09:12:45Z</time>
      </trkpt>
      <trkpt lat="44.51669" lon="3.79766">
        <ele>1258.983</ele>
        <time>2012-05-22T09:12:48Z</time>
      </trkpt>
      <trkpt lat="44.51676" lon="3.79749">
        <ele>1260.176</ele>
        <time>2012-05-22T09:12:59Z</time>
      </trkpt>
      <trkpt lat="44.51683" lon="3.79732">
        <ele>1261.087</ele>
        <time>2012-05-22T09:13:11Z</time>
      </trkpt>
      <trkpt lat="44.51693" lon="3.79717">
        <ele>1259.876</ele>
        <time>2012-05-22T09:13:26Z</time>
      </trkpt>
      <trkpt lat="44.51708" lon="3.79692">
        <ele>1258.943</ele>
        <time>2012-05-22T09:13:44Z</time>
      </trkpt>
      <trkpt lat="44.51709" lon="3.79689">
        <ele>1258.878</ele>
        <time>2012-05-22T09:13:47Z</time>
      </trkpt>
      <trkpt lat="44.51722" lon="3.7967">
        <ele>1258.901</ele>
        <time>2012-05-22T09:14:05Z</time>
      </trkpt>
      <trkpt lat="44.5173" lon="3.79656">
        <ele>1260.749</ele>
        <time>2012-05-22T09:14:17Z</time>
      </trkpt>
      <trkpt lat="44.5174" lon="3.79645">
        <ele>1260.675</ele>
        <time>2012-05-22T09:14:26Z</time>
      </trkpt>
      <trkpt lat="44.51755" lon="3.79618">
        <ele>1259.311</ele>
        <time>2012-05-22T09:14:44Z</time>
      </trkpt>
      <trkpt lat="44.51759" lon="3.79605">
        <ele>1258.733</ele>
        <time>2012-05-22T09:14:54Z</time>
      </trkpt>
      <trkpt lat="44.51762" lon="3.796">
        <ele>1258.289</ele>
        <time>2012-05-22T09:14:58Z</time>
      </trkpt>
      <trkpt lat="44.51764" lon="3.79589">
        <ele>1257.203</ele>
        <time>2012-05-22T09:15:09Z</time>
      </trkpt>
      <trkpt lat="44.51765" lon="3.79585">
        <ele>1257.173</ele>
        <time>2012-05-22T09:15:12Z</time>
      </trkpt>
      <trkpt lat="44.51764" lon="3.7956">
        <ele>1254.507</ele>
        <time>2012-05-22T09:15:28Z</time>
      </trkpt>
      <trkpt lat="44.51776" lon="3.79524">
        <ele>1252.236</ele>
        <time>2012-05-22T09:15:53Z</time>
      </trkpt>
      <trkpt lat="44.5178" lon="3.79516">
        <ele>1251.979</ele>
        <time>2012-05-22T09:15:59Z</time>
      </trkpt>
      <trkpt lat="44.51784" lon="3.7951">
        <ele>1252.152</ele>
        <time>2012-05-22T09:16:03Z</time>
      </trkpt>
      <trkpt lat="44.5179" lon="3.79496">
        <ele>1251.586</ele>
        <time>2012-05-22T09:16:13Z</time>
      </trkpt>
      <trkpt lat="44.51798" lon="3.79488">
        <ele>1251.02</ele>
        <time>2012-05-22T09:16:21Z</time>
      </trkpt>
      <trkpt lat="44.51801" lon="3.79486">
        <ele>1250.579</ele>
        <time>2012-05-22T09:16:24Z</time>
      </trkpt>
      <trkpt lat="44.51803" lon="3.79481">
        <ele>1250.459</ele>
        <time>2012-05-22T09:16:27Z</time>
      </trkpt>
      <trkpt lat="44.51804" lon="3.79475">
        <ele>1250.39</ele>
        <time>2012-05-22T09:16:31Z</time>
      </trkpt>
      <trkpt lat="44.51806" lon="3.79472">
        <ele>1250.555</ele>
        <time>2012-05-22T09:16:34Z</time>
      </trkpt>
      <trkpt lat="44.51808" lon="3.79466">
        <ele>1250.959</ele>
        <time>2012-05-22T09:16:39Z</time>
      </trkpt>
      <trkpt lat="44.51806" lon="3.79462">
        <ele>1250.756</ele>
        <time>2012-05-22T09:16:53Z</time>
      </trkpt>
      <trkpt lat="44.51809" lon="3.79453">
        <ele>1250.772</ele>
        <time>2012-05-22T09:17:04Z</time>
      </trkpt>
      <trkpt lat="44.5181" lon="3.7944">
        <ele>1253.729</ele>
        <time>2012-05-22T09:17:14Z</time>
      </trkpt>
      <trkpt lat="44.5181" lon="3.79438">
        <ele>1251.765</ele>
        <time>2012-05-22T09:17:16Z</time>
      </trkpt>
      <trkpt lat="44.51819" lon="3.79419">
        <ele>1254.727</ele>
        <time>2012-05-22T09:17:35Z</time>
      </trkpt>
      <trkpt lat="44.51819" lon="3.794">
        <ele>1258.251</ele>
        <time>2012-05-22T09:17:51Z</time>
      </trkpt>
      <trkpt lat="44.51822" lon="3.79374">
        <ele>1260.385</ele>
        <time>2012-05-22T09:18:14Z</time>
      </trkpt>
      <trkpt lat="44.51818" lon="3.7936">
        <ele>1262.331</ele>
        <time>2012-05-22T09:18:31Z</time>
      </trkpt>
      <trkpt lat="44.51815" lon="3.79362">
        <ele>1262.891</ele>
        <time>2012-05-22T09:18:36Z</time>
      </trkpt>
      <trkpt lat="44.518" lon="3.79369">
        <ele>1264.994</ele>
        <time>2012-05-22T09:18:53Z</time>
      </trkpt>
      <trkpt lat="44.51787" lon="3.79383">
        <ele>1266.536</ele>
        <time>2012-05-22T09:19:11Z</time>
      </trkpt>
      <trkpt lat="44.51782" lon="3.79401">
        <ele>1267.171</ele>
        <time>2012-05-22T09:19:25Z</time>
      </trkpt>
      <trkpt lat="44.51768" lon="3.79413">
        <ele>1267.769</ele>
        <time>2012-05-22T09:19:40Z</time>
      </trkpt>
      <trkpt lat="44.51762" lon="3.79416">
        <ele>1268.613</ele>
        <time>2012-05-22T09:19:45Z</time>
      </trkpt>
      <trkpt lat="44.51752" lon="3.79424">
        <ele>1269.434</ele>
        <time>2012-05-22T09:19:54Z</time>
      </trkpt>
      <trkpt lat="44.51738" lon="3.79442">
        <ele>1269.934</ele>
        <time>2012-05-22T09:20:11Z</time>
      </trkpt>
      <trkpt lat="44.51736" lon="3.79445">
        <ele>1269.797</ele>
        <time>2012-05-22T09:20:13Z</time>
      </trkpt>
      <trkpt lat="44.51736" lon="3.79455">
        <ele>1270.43</ele>
        <time>2012-05-22T09:20:17Z</time>
      </trkpt>
      <trkpt lat="44.51728" lon="3.79451">
        <ele>1271.073</ele>
        <time>2012-05-22T09:20:25Z</time>
      </trkpt>
      <trkpt lat="44.51733" lon="3.79439">
        <ele>1271.724</ele>
        <time>2012-05-22T09:20:36Z</time>
      </trkpt>
      <trkpt lat="44.51744" lon="3.79427">
        <ele>1273.351</ele>
        <time>2012-05-22T09:20:51Z</time>
      </trkpt>
      <trkpt lat="44.51748" lon="3.79422">
        <ele>1273.603</ele>
        <time>2012-05-22T09:20:56Z</time>
      </trkpt>
      <trkpt lat="44.51758" lon="3.79399">
        <ele>1273.8</ele>
        <time>2012-05-22T09:21:11Z</time>
      </trkpt>
      <trkpt lat="44.51769" lon="3.79382">
        <ele>1275.398</ele>
        <time>2012-05-22T09:21:24Z</time>
      </trkpt>
      <trkpt lat="44.51773" lon="3.79381">
        <ele>1275.849</ele>
        <time>2012-05-22T09:21:27Z</time>
      </trkpt>
      <trkpt lat="44.51774" lon="3.79376">
        <ele>1275.939</ele>
        <time>2012-05-22T09:21:30Z</time>
      </trkpt>
      <trkpt lat="44.51776" lon="3.79369">
        <ele>1275.343</ele>
        <time>2012-05-22T09:21:34Z</time>
      </trkpt>
      <trkpt lat="44.51777" lon="3.79359">
        <ele>1274.634</ele>
        <time>2012-05-22T09:21:40Z</time>
      </trkpt>
      <trkpt lat="44.51781" lon="3.79355">
        <ele>1275.642</ele>
        <time>2012-05-22T09:21:44Z</time>
      </trkpt>
      <trkpt lat="44.51782" lon="3.79349">
        <ele>1276.834</ele>
        <time>2012-05-22T09:21:49Z</time>
      </trkpt>
      <trkpt lat="44.51783" lon="3.79345">
        <ele>1277.207</ele>
        <time>2012-05-22T09:21:51Z</time>
      </trkpt>
      <trkpt lat="44.51785" lon="3.7934">
        <ele>1276.76</ele>
        <time>2012-05-22T09:21:56Z</time>
      </trkpt>
      <trkpt lat="44.51788" lon="3.79333">
        <ele>1277.777</ele>
        <time>2012-05-22T09:22:00Z</time>
      </trkpt>
      <trkpt lat="44.51792" lon="3.79328">
        <ele>1277.508</ele>
        <time>2012-05-22T09:22:05Z</time>
      </trkpt>
      <trkpt lat="44.51796" lon="3.79326">
        <ele>1277.595</ele>
        <time>2012-05-22T09:22:08Z</time>
      </trkpt>
      <trkpt lat="44.518" lon="3.79302">
        <ele>1279.081</ele>
        <time>2012-05-22T09:22:25Z</time>
      </trkpt>
      <trkpt lat="44.51805" lon="3.79288">
        <ele>1279.435</ele>
        <time>2012-05-22T09:22:34Z</time>
      </trkpt>
      <trkpt lat="44.51813" lon="3.79274">
        <ele>1279.651</ele>
        <time>2012-05-22T09:22:46Z</time>
      </trkpt>
      <trkpt lat="44.51816" lon="3.79271">
        <ele>1279.948</ele>
        <time>2012-05-22T09:22:49Z</time>
      </trkpt>
      <trkpt lat="44.51819" lon="3.79264">
        <ele>1280.252</ele>
        <time>2012-05-22T09:22:55Z</time>
      </trkpt>
      <trkpt lat="44.51825" lon="3.79246">
        <ele>1281.589</ele>
        <time>2012-05-22T09:23:10Z</time>
      </trkpt>
      <trkpt lat="44.51825" lon="3.79243">
        <ele>1281.709</ele>
        <time>2012-05-22T09:23:13Z</time>
      </trkpt>
      <trkpt lat="44.51834" lon="3.79228">
        <ele>1282.521</ele>
        <time>2012-05-22T09:23:26Z</time>
      </trkpt>
      <trkpt lat="44.51837" lon="3.79224">
        <ele>1282.788</ele>
        <time>2012-05-22T09:23:28Z</time>
      </trkpt>
      <trkpt lat="44.51837" lon="3.79221">
        <ele>1283.419</ele>
        <time>2012-05-22T09:23:30Z</time>
      </trkpt>
      <trkpt lat="44.51838" lon="3.79213">
        <ele>1283.097</ele>
        <time>2012-05-22T09:23:34Z</time>
      </trkpt>
      <trkpt lat="44.51839" lon="3.79211">
        <ele>1283.248</ele>
        <time>2012-05-22T09:23:36Z</time>
      </trkpt>
      <trkpt lat="44.51844" lon="3.79191">
        <ele>1284.063</ele>
        <time>2012-05-22T09:23:51Z</time>
      </trkpt>
      <trkpt lat="44.51849" lon="3.79182">
        <ele>1284.619</ele>
        <time>2012-05-22T09:23:58Z</time>
      </trkpt>
      <trkpt lat="44.51857" lon="3.79162">
        <ele>1285.717</ele>
        <time>2012-05-22T09:24:13Z</time>
      </trkpt>
      <trkpt lat="44.51861" lon="3.79154">
        <ele>1285.361</ele>
        <time>2012-05-22T09:24:19Z</time>
      </trkpt>
      <trkpt lat="44.51871" lon="3.79125">
        <ele>1286.116</ele>
        <time>2012-05-22T09:24:36Z</time>
      </trkpt>
      <trkpt lat="44.51873" lon="3.79109">
        <ele>1286.63</ele>
        <time>2012-05-22T09:24:45Z</time>
      </trkpt>
      <trkpt lat="44.51873" lon="3.79099">
        <ele>1288.438</ele>
        <time>2012-05-22T09:24:54Z</time>
      </trkpt>
      <trkpt lat="44.51877" lon="3.7908">
        <ele>1288.851</ele>
        <time>2012-05-22T09:25:06Z</time>
      </trkpt>
      <trkpt lat="44.51881" lon="3.79067">
        <ele>1288.999</ele>
        <time>2012-05-22T09:25:14Z</time>
      </trkpt>
      <trkpt lat="44.51881" lon="3.79057">
        <ele>1290.299</ele>
        <time>2012-05-22T09:25:20Z</time>
      </trkpt>
      <trkpt lat="44.51884" lon="3.79051">
        <ele>1290.724</ele>
        <time>2012-05-22T09:25:23Z</time>
      </trkpt>
      <trkpt lat="44.51887" lon="3.79041">
        <ele>1291.222</ele>
        <time>2012-05-22T09:25:28Z</time>
      </trkpt>
      <trkpt lat="44.51885" lon="3.79029">
        <ele>1291.759</ele>
        <time>2012-05-22T09:25:37Z</time>
      </trkpt>
      <trkpt lat="44.51884" lon="3.79022">
        <ele>1292.357</ele>
        <time>2012-05-22T09:25:41Z</time>
      </trkpt>
      <trkpt lat="44.51883" lon="3.7902">
        <ele>1292.294</ele>
        <time>2012-05-22T09:25:43Z</time>
      </trkpt>
      <trkpt lat="44.51883" lon="3.79017">
        <ele>1292.249</ele>
        <time>2012-05-22T09:25:45Z</time>
      </trkpt>
      <trkpt lat="44.51882" lon="3.79011">
        <ele>1292.095</ele>
        <time>2012-05-22T09:25:48Z</time>
      </trkpt>
      <trkpt lat="44.51879" lon="3.78995">
        <ele>1292.341</ele>
        <time>2012-05-22T09:26:00Z</time>
      </trkpt>
      <trkpt lat="44.51879" lon="3.78992">
        <ele>1292.726</ele>
        <time>2012-05-22T09:26:02Z</time>
      </trkpt>
      <trkpt lat="44.51877" lon="3.78987">
        <ele>1293.635</ele>
        <time>2012-05-22T09:26:06Z</time>
      </trkpt>
      <trkpt lat="44.51876" lon="3.78981">
        <ele>1295.41</ele>
        <time>2012-05-22T09:26:10Z</time>
      </trkpt>
      <trkpt lat="44.51875" lon="3.78979">
        <ele>1294.988</ele>
        <time>2012-05-22T09:26:12Z</time>
      </trkpt>
      <trkpt lat="44.51871" lon="3.78961">
        <ele>1296.017</ele>
        <time>2012-05-22T09:26:29Z</time>
      </trkpt>
      <trkpt lat="44.51878" lon="3.78955">
        <ele>1296.363</ele>
        <time>2012-05-22T09:26:39Z</time>
      </trkpt>
      <trkpt lat="44.5189" lon="3.78956">
        <ele>1297.857</ele>
        <time>2012-05-22T09:26:50Z</time>
      </trkpt>
      <trkpt lat="44.519" lon="3.78955">
        <ele>1298.573</ele>
        <time>2012-05-22T09:27:01Z</time>
      </trkpt>
      <trkpt lat="44.51911" lon="3.78963">
        <ele>1300.675</ele>
        <time>2012-05-22T09:27:13Z</time>
      </trkpt>
      <trkpt lat="44.51916" lon="3.78964">
        <ele>1300.194</ele>
        <time>2012-05-22T09:27:16Z</time>
      </trkpt>
      <trkpt lat="44.5192" lon="3.78962">
        <ele>1300.482</ele>
        <time>2012-05-22T09:27:20Z</time>
      </trkpt>
      <trkpt lat="44.51923" lon="3.78962">
        <ele>1300.485</ele>
        <time>2012-05-22T09:27:22Z</time>
      </trkpt>
      <trkpt lat="44.51928" lon="3.78957">
        <ele>1300.311</ele>
        <time>2012-05-22T09:27:26Z</time>
      </trkpt>
      <trkpt lat="44.51929" lon="3.78954">
        <ele>1300.606</ele>
        <time>2012-05-22T09:27:28Z</time>
      </trkpt>
      <trkpt lat="44.51949" lon="3.78932">
        <ele>1301.317</ele>
        <time>2012-05-22T09:27:47Z</time>
      </trkpt>
      <trkpt lat="44.51954" lon="3.78927">
        <ele>1301.608</ele>
        <time>2012-05-22T09:27:52Z</time>
      </trkpt>
      <trkpt lat="44.5196" lon="3.78912">
        <ele>1302.14</ele>
        <time>2012-05-22T09:28:04Z</time>
      </trkpt>
      <trkpt lat="44.51971" lon="3.78898">
        <ele>1302.397</ele>
        <time>2012-05-22T09:28:18Z</time>
      </trkpt>
      <trkpt lat="44.5198" lon="3.78883">
        <ele>1302.943</ele>
        <time>2012-05-22T09:28:32Z</time>
      </trkpt>
      <trkpt lat="44.51985" lon="3.78871">
        <ele>1302.362</ele>
        <time>2012-05-22T09:28:40Z</time>
      </trkpt>
      <trkpt lat="44.51993" lon="3.78854">
        <ele>1303.077</ele>
        <time>2012-05-22T09:28:51Z</time>
      </trkpt>
      <trkpt lat="44.52001" lon="3.78849">
        <ele>1302.62</ele>
        <time>2012-05-22T09:28:56Z</time>
      </trkpt>
      <trkpt lat="44.52003" lon="3.78839">
        <ele>1303.266</ele>
        <time>2012-05-22T09:29:01Z</time>
      </trkpt>
      <trkpt lat="44.52017" lon="3.78814">
        <ele>1303.863</ele>
        <time>2012-05-22T09:29:17Z</time>
      </trkpt>
      <trkpt lat="44.52018" lon="3.78809">
        <ele>1304.075</ele>
        <time>2012-05-22T09:29:23Z</time>
      </trkpt>
      <trkpt lat="44.52025" lon="3.78789">
        <ele>1304.067</ele>
        <time>2012-05-22T09:29:36Z</time>
      </trkpt>
      <trkpt lat="44.5203" lon="3.78771">
        <ele>1304.357</ele>
        <time>2012-05-22T09:29:48Z</time>
      </trkpt>
      <trkpt lat="44.52032" lon="3.7877">
        <ele>1304.62</ele>
        <time>2012-05-22T09:29:50Z</time>
      </trkpt>
      <trkpt lat="44.52033" lon="3.78765">
        <ele>1304.296</ele>
        <time>2012-05-22T09:29:54Z</time>
      </trkpt>
      <trkpt lat="44.52038" lon="3.78759">
        <ele>1305.464</ele>
        <time>2012-05-22T09:29:59Z</time>
      </trkpt>
      <trkpt lat="44.5204" lon="3.78751">
        <ele>1305.025</ele>
        <time>2012-05-22T09:30:05Z</time>
      </trkpt>
      <trkpt lat="44.52046" lon="3.78738">
        <ele>1305.509</ele>
        <time>2012-05-22T09:30:12Z</time>
      </trkpt>
      <trkpt lat="44.52052" lon="3.78718">
        <ele>1306.162</ele>
        <time>2012-05-22T09:30:29Z</time>
      </trkpt>
      <trkpt lat="44.52054" lon="3.78713">
        <ele>1306.683</ele>
        <time>2012-05-22T09:30:32Z</time>
      </trkpt>
      <trkpt lat="44.52058" lon="3.78699">
        <ele>1305.553</ele>
        <time>2012-05-22T09:30:43Z</time>
      </trkpt>
      <trkpt lat="44.52066" lon="3.78678">
        <ele>1307.924</ele>
        <time>2012-05-22T09:30:58Z</time>
      </trkpt>
      <trkpt lat="44.52073" lon="3.78651">
        <ele>1307.797</ele>
        <time>2012-05-22T09:31:17Z</time>
      </trkpt>
      <trkpt lat="44.52077" lon="3.78643">
        <ele>1307.948</ele>
        <time>2012-05-22T09:31:21Z</time>
      </trkpt>
      <trkpt lat="44.52077" lon="3.78637">
        <ele>1308.563</ele>
        <time>2012-05-22T09:31:25Z</time>
      </trkpt>
      <trkpt lat="44.5208" lon="3.78627">
        <ele>1308.589</ele>
        <time>2012-05-22T09:31:33Z</time>
      </trkpt>
      <trkpt lat="44.5208" lon="3.78613">
        <ele>1309.442</ele>
        <time>2012-05-22T09:31:41Z</time>
      </trkpt>
      <trkpt lat="44.52082" lon="3.78608">
        <ele>1309.65</ele>
        <time>2012-05-22T09:31:45Z</time>
      </trkpt>
      <trkpt lat="44.52082" lon="3.78605">
        <ele>1309.585</ele>
        <time>2012-05-22T09:31:48Z</time>
      </trkpt>
      <trkpt lat="44.52084" lon="3.78597">
        <ele>1310.317</ele>
        <time>2012-05-22T09:31:55Z</time>
      </trkpt>
      <trkpt lat="44.52086" lon="3.78593">
        <ele>1310.252</ele>
        <time>2012-05-22T09:31:58Z</time>
      </trkpt>
      <trkpt lat="44.52089" lon="3.78591">
        <ele>1310.599</ele>
        <time>2012-05-22T09:32:01Z</time>
      </trkpt>
      <trkpt lat="44.5209" lon="3.78588">
        <ele>1310.972</ele>
        <time>2012-05-22T09:32:04Z</time>
      </trkpt>
      <trkpt lat="44.52094" lon="3.78584">
        <ele>1311.007</ele>
        <time>2012-05-22T09:32:08Z</time>
      </trkpt>
      <trkpt lat="44.52095" lon="3.78582">
        <ele>1311.066</ele>
        <time>2012-05-22T09:32:10Z</time>
      </trkpt>
      <trkpt lat="44.52095" lon="3.78579">
        <ele>1310.902</ele>
        <time>2012-05-22T09:32:12Z</time>
      </trkpt>
      <trkpt lat="44.52096" lon="3.78575">
        <ele>1311.15</ele>
        <time>2012-05-22T09:32:15Z</time>
      </trkpt>
      <trkpt lat="44.52099" lon="3.78554">
        <ele>1312.447</ele>
        <time>2012-05-22T09:32:27Z</time>
      </trkpt>
      <trkpt lat="44.52102" lon="3.78546">
        <ele>1312.84</ele>
        <time>2012-05-22T09:32:33Z</time>
      </trkpt>
      <trkpt lat="44.52104" lon="3.78541">
        <ele>1312.392</ele>
        <time>2012-05-22T09:32:36Z</time>
      </trkpt>
      <trkpt lat="44.52109" lon="3.7853">
        <ele>1312.7</ele>
        <time>2012-05-22T09:32:46Z</time>
      </trkpt>
      <trkpt lat="44.52118" lon="3.78519">
        <ele>1314.168</ele>
        <time>2012-05-22T09:32:58Z</time>
      </trkpt>
      <trkpt lat="44.52123" lon="3.78503">
        <ele>1313.54</ele>
        <time>2012-05-22T09:33:08Z</time>
      </trkpt>
      <trkpt lat="44.52128" lon="3.78482">
        <ele>1314.056</ele>
        <time>2012-05-22T09:33:20Z</time>
      </trkpt>
      <trkpt lat="44.52134" lon="3.78462">
        <ele>1315.756</ele>
        <time>2012-05-22T09:33:35Z</time>
      </trkpt>
      <trkpt lat="44.52143" lon="3.78442">
        <ele>1316.518</ele>
        <time>2012-05-22T09:33:49Z</time>
      </trkpt>
      <trkpt lat="44.52145" lon="3.78436">
        <ele>1316.447</ele>
        <time>2012-05-22T09:33:53Z</time>
      </trkpt>
      <trkpt lat="44.52149" lon="3.78428">
        <ele>1317.049</ele>
        <time>2012-05-22T09:34:00Z</time>
      </trkpt>
      <trkpt lat="44.52153" lon="3.78403">
        <ele>1317.996</ele>
        <time>2012-05-22T09:34:18Z</time>
      </trkpt>
      <trkpt lat="44.52153" lon="3.78399">
        <ele>1318.111</ele>
        <time>2012-05-22T09:34:23Z</time>
      </trkpt>
      <trkpt lat="44.52144" lon="3.78394">
        <ele>1318.665</ele>
        <time>2012-05-22T09:34:34Z</time>
      </trkpt>
      <trkpt lat="44.5214" lon="3.78399">
        <ele>1319.593</ele>
        <time>2012-05-22T09:34:40Z</time>
      </trkpt>
      <trkpt lat="44.52137" lon="3.78405">
        <ele>1319.933</ele>
        <time>2012-05-22T09:34:46Z</time>
      </trkpt>
      <trkpt lat="44.52131" lon="3.78422">
        <ele>1321.298</ele>
        <time>2012-05-22T09:35:04Z</time>
      </trkpt>
      <trkpt lat="44.52125" lon="3.78427">
        <ele>1321.72</ele>
        <time>2012-05-22T09:35:12Z</time>
      </trkpt>
      <trkpt lat="44.52114" lon="3.78441">
        <ele>1322.727</ele>
        <time>2012-05-22T09:35:26Z</time>
      </trkpt>
      <trkpt lat="44.52112" lon="3.78447">
        <ele>1322.605</ele>
        <time>2012-05-22T09:35:30Z</time>
      </trkpt>
      <trkpt lat="44.52106" lon="3.78465">
        <ele>1323.933</ele>
        <time>2012-05-22T09:35:43Z</time>
      </trkpt>
      <trkpt lat="44.52101" lon="3.78471">
        <ele>1324.885</ele>
        <time>2012-05-22T09:35:49Z</time>
      </trkpt>
      <trkpt lat="44.52098" lon="3.78478">
        <ele>1325.235</ele>
        <time>2012-05-22T09:35:54Z</time>
      </trkpt>
      <trkpt lat="44.52093" lon="3.78483">
        <ele>1326.002</ele>
        <time>2012-05-22T09:35:58Z</time>
      </trkpt>
      <trkpt lat="44.5208" lon="3.78498">
        <ele>1327.102</ele>
        <time>2012-05-22T09:36:14Z</time>
      </trkpt>
      <trkpt lat="44.52077" lon="3.78505">
        <ele>1327.823</ele>
        <time>2012-05-22T09:36:20Z</time>
      </trkpt>
      <trkpt lat="44.52072" lon="3.78507">
        <ele>1328.575</ele>
        <time>2012-05-22T09:36:24Z</time>
      </trkpt>
      <trkpt lat="44.5207" lon="3.78511">
        <ele>1329.114</ele>
        <time>2012-05-22T09:36:27Z</time>
      </trkpt>
      <trkpt lat="44.52067" lon="3.78515">
        <ele>1329.792</ele>
        <time>2012-05-22T09:36:32Z</time>
      </trkpt>
      <trkpt lat="44.52055" lon="3.78527">
        <ele>1331.186</ele>
        <time>2012-05-22T09:36:45Z</time>
      </trkpt>
      <trkpt lat="44.52046" lon="3.78539">
        <ele>1333.432</ele>
        <time>2012-05-22T09:36:57Z</time>
      </trkpt>
      <trkpt lat="44.52035" lon="3.78552">
        <ele>1334.652</ele>
        <time>2012-05-22T09:37:14Z</time>
      </trkpt>
      <trkpt lat="44.52016" lon="3.78565">
        <ele>1337.654</ele>
        <time>2012-05-22T09:37:36Z</time>
      </trkpt>
      <trkpt lat="44.52008" lon="3.78576">
        <ele>1338.962</ele>
        <time>2012-05-22T09:37:46Z</time>
      </trkpt>
      <trkpt lat="44.52008" lon="3.78581">
        <ele>1338.909</ele>
        <time>2012-05-22T09:37:49Z</time>
      </trkpt>
      <trkpt lat="44.52" lon="3.78588">
        <ele>1339.361</ele>
        <time>2012-05-22T09:37:58Z</time>
      </trkpt>
      <trkpt lat="44.5199" lon="3.78591">
        <ele>1339.891</ele>
        <time>2012-05-22T09:38:06Z</time>
      </trkpt>
      <trkpt lat="44.51987" lon="3.78593">
        <ele>1340.043</ele>
        <time>2012-05-22T09:38:08Z</time>
      </trkpt>
      <trkpt lat="44.51974" lon="3.78604">
        <ele>1342.385</ele>
        <time>2012-05-22T09:38:28Z</time>
      </trkpt>
      <trkpt lat="44.5196" lon="3.78611">
        <ele>1343.559</ele>
        <time>2012-05-22T09:38:41Z</time>
      </trkpt>
      <trkpt lat="44.51947" lon="3.78626">
        <ele>1344.831</ele>
        <time>2012-05-22T09:38:57Z</time>
      </trkpt>
      <trkpt lat="44.51935" lon="3.78635">
        <ele>1347.826</ele>
        <time>2012-05-22T09:39:13Z</time>
      </trkpt>
      <trkpt lat="44.51933" lon="3.78633">
        <ele>1347.821</ele>
        <time>2012-05-22T09:39:14Z</time>
      </trkpt>
      <trkpt lat="44.51927" lon="3.78639">
        <ele>1347.715</ele>
        <time>2012-05-22T09:39:20Z</time>
      </trkpt>
      <trkpt lat="44.51923" lon="3.78641">
        <ele>1348.375</ele>
        <time>2012-05-22T09:39:25Z</time>
      </trkpt>
      <trkpt lat="44.51921" lon="3.78644">
        <ele>1348.573</ele>
        <time>2012-05-22T09:39:27Z</time>
      </trkpt>
      <trkpt lat="44.51915" lon="3.78647">
        <ele>1349.315</ele>
        <time>2012-05-22T09:39:33Z</time>
      </trkpt>
      <trkpt lat="44.51908" lon="3.78657">
        <ele>1349.02</ele>
        <time>2012-05-22T09:39:46Z</time>
      </trkpt>
      <trkpt lat="44.51905" lon="3.78657">
        <ele>1350.152</ele>
        <time>2012-05-22T09:39:49Z</time>
      </trkpt>
      <trkpt lat="44.51902" lon="3.78658">
        <ele>1350.849</ele>
        <time>2012-05-22T09:39:52Z</time>
      </trkpt>
      <trkpt lat="44.51899" lon="3.78658">
        <ele>1351.156</ele>
        <time>2012-05-22T09:39:54Z</time>
      </trkpt>
      <trkpt lat="44.51894" lon="3.78662">
        <ele>1351.967</ele>
        <time>2012-05-22T09:39:59Z</time>
      </trkpt>
      <trkpt lat="44.5189" lon="3.78666">
        <ele>1351.98</ele>
        <time>2012-05-22T09:40:05Z</time>
      </trkpt>
      <trkpt lat="44.51888" lon="3.78671">
        <ele>1352.611</ele>
        <time>2012-05-22T09:40:08Z</time>
      </trkpt>
      <trkpt lat="44.51883" lon="3.78675">
        <ele>1352.978</ele>
        <time>2012-05-22T09:40:13Z</time>
      </trkpt>
      <trkpt lat="44.51874" lon="3.78679">
        <ele>1352.352</ele>
        <time>2012-05-22T09:40:20Z</time>
      </trkpt>
      <trkpt lat="44.51872" lon="3.7868">
        <ele>1353.716</ele>
        <time>2012-05-22T09:40:22Z</time>
      </trkpt>
      <trkpt lat="44.51868" lon="3.78681">
        <ele>1354.827</ele>
        <time>2012-05-22T09:40:27Z</time>
      </trkpt>
      <trkpt lat="44.51852" lon="3.78683">
        <ele>1354.809</ele>
        <time>2012-05-22T09:40:43Z</time>
      </trkpt>
      <trkpt lat="44.5183" lon="3.78689">
        <ele>1357.208</ele>
        <time>2012-05-22T09:41:05Z</time>
      </trkpt>
      <trkpt lat="44.51817" lon="3.78688">
        <ele>1357.611</ele>
        <time>2012-05-22T09:41:19Z</time>
      </trkpt>
      <trkpt lat="44.518" lon="3.78685">
        <ele>1358.181</ele>
        <time>2012-05-22T09:41:33Z</time>
      </trkpt>
      <trkpt lat="44.51784" lon="3.78682">
        <ele>1358.811</ele>
        <time>2012-05-22T09:41:46Z</time>
      </trkpt>
      <trkpt lat="44.5177" lon="3.78679">
        <ele>1358.734</ele>
        <time>2012-05-22T09:41:57Z</time>
      </trkpt>
      <trkpt lat="44.51758" lon="3.78674">
        <ele>1358.713</ele>
        <time>2012-05-22T09:42:10Z</time>
      </trkpt>
      <trkpt lat="44.51735" lon="3.78667">
        <ele>1359.59</ele>
        <time>2012-05-22T09:42:30Z</time>
      </trkpt>
      <trkpt lat="44.51709" lon="3.78655">
        <ele>1359.655</ele>
        <time>2012-05-22T09:42:55Z</time>
      </trkpt>
      <trkpt lat="44.51706" lon="3.78652">
        <ele>1359.712</ele>
        <time>2012-05-22T09:42:58Z</time>
      </trkpt>
      <trkpt lat="44.51695" lon="3.78653">
        <ele>1360.27</ele>
        <time>2012-05-22T09:43:07Z</time>
      </trkpt>
      <trkpt lat="44.51692" lon="3.78653">
        <ele>1360.815</ele>
        <time>2012-05-22T09:43:09Z</time>
      </trkpt>
      <trkpt lat="44.51688" lon="3.78654">
        <ele>1360.553</ele>
        <time>2012-05-22T09:43:13Z</time>
      </trkpt>
      <trkpt lat="44.51677" lon="3.78647">
        <ele>1360.067</ele>
        <time>2012-05-22T09:43:24Z</time>
      </trkpt>
      <trkpt lat="44.51653" lon="3.78643">
        <ele>1361.506</ele>
        <time>2012-05-22T09:43:44Z</time>
      </trkpt>
      <trkpt lat="44.51634" lon="3.78639">
        <ele>1362.376</ele>
        <time>2012-05-22T09:44:01Z</time>
      </trkpt>
      <trkpt lat="44.51622" lon="3.78636">
        <ele>1362.933</ele>
        <time>2012-05-22T09:44:09Z</time>
      </trkpt>
      <trkpt lat="44.5162" lon="3.78637">
        <ele>1362.976</ele>
        <time>2012-05-22T09:44:11Z</time>
      </trkpt>
      <trkpt lat="44.51612" lon="3.78636">
        <ele>1362.843</ele>
        <time>2012-05-22T09:44:18Z</time>
      </trkpt>
      <trkpt lat="44.51603" lon="3.78633">
        <ele>1363.772</ele>
        <time>2012-05-22T09:44:26Z</time>
      </trkpt>
      <trkpt lat="44.51593" lon="3.7863">
        <ele>1365.578</ele>
        <time>2012-05-22T09:44:41Z</time>
      </trkpt>
      <trkpt lat="44.51578" lon="3.78625">
        <ele>1366.024</ele>
        <time>2012-05-22T09:44:52Z</time>
      </trkpt>
      <trkpt lat="44.51556" lon="3.7862">
        <ele>1366.539</ele>
        <time>2012-05-22T09:45:10Z</time>
      </trkpt>
      <trkpt lat="44.51538" lon="3.78611">
        <ele>1365.166</ele>
        <time>2012-05-22T09:45:25Z</time>
      </trkpt>
      <trkpt lat="44.51523" lon="3.78606">
        <ele>1365.493</ele>
        <time>2012-05-22T09:45:37Z</time>
      </trkpt>
      <trkpt lat="44.51519" lon="3.78603">
        <ele>1364.998</ele>
        <time>2012-05-22T09:45:40Z</time>
      </trkpt>
      <trkpt lat="44.51509" lon="3.78592">
        <ele>1365.152</ele>
        <time>2012-05-22T09:49:47Z</time>
      </trkpt>
      <trkpt lat="44.51508" lon="3.78588">
        <ele>1363.329</ele>
        <time>2012-05-22T09:51:18Z</time>
      </trkpt>
      <trkpt lat="44.51517" lon="3.78565">
        <ele>1364.182</ele>
        <time>2012-05-22T09:51:34Z</time>
      </trkpt>
      <trkpt lat="44.51519" lon="3.78558">
        <ele>1363.678</ele>
        <time>2012-05-22T09:51:39Z</time>
      </trkpt>
      <trkpt lat="44.51513" lon="3.78541">
        <ele>1361.053</ele>
        <time>2012-05-22T09:51:54Z</time>
      </trkpt>
      <trkpt lat="44.51506" lon="3.78525">
        <ele>1359.613</ele>
        <time>2012-05-22T09:52:09Z</time>
      </trkpt>
      <trkpt lat="44.51498" lon="3.78495">
        <ele>1356.07</ele>
        <time>2012-05-22T09:52:30Z</time>
      </trkpt>
      <trkpt lat="44.51497" lon="3.78494">
        <ele>1355.456</ele>
        <time>2012-05-22T09:52:32Z</time>
      </trkpt>
      <trkpt lat="44.51495" lon="3.78482">
        <ele>1353.98</ele>
        <time>2012-05-22T09:52:40Z</time>
      </trkpt>
      <trkpt lat="44.51493" lon="3.78456">
        <ele>1352.491</ele>
        <time>2012-05-22T09:52:56Z</time>
      </trkpt>
      <trkpt lat="44.51492" lon="3.78449">
        <ele>1351.373</ele>
        <time>2012-05-22T09:53:01Z</time>
      </trkpt>
      <trkpt lat="44.5149" lon="3.78416">
        <ele>1348.922</ele>
        <time>2012-05-22T09:53:18Z</time>
      </trkpt>
      <trkpt lat="44.51485" lon="3.78406">
        <ele>1347.551</ele>
        <time>2012-05-22T09:53:25Z</time>
      </trkpt>
      <trkpt lat="44.51482" lon="3.78398">
        <ele>1346.478</ele>
        <time>2012-05-22T09:53:30Z</time>
      </trkpt>
      <trkpt lat="44.51477" lon="3.78392">
        <ele>1344.378</ele>
        <time>2012-05-22T09:53:39Z</time>
      </trkpt>
      <trkpt lat="44.51474" lon="3.78384">
        <ele>1342.723</ele>
        <time>2012-05-22T09:53:45Z</time>
      </trkpt>
      <trkpt lat="44.51473" lon="3.78378">
        <ele>1341.858</ele>
        <time>2012-05-22T09:53:49Z</time>
      </trkpt>
      <trkpt lat="44.5147" lon="3.78363">
        <ele>1339.56</ele>
        <time>2012-05-22T09:53:59Z</time>
      </trkpt>
      <trkpt lat="44.51469" lon="3.78345">
        <ele>1335.997</ele>
        <time>2012-05-22T09:54:10Z</time>
      </trkpt>
      <trkpt lat="44.51466" lon="3.78335">
        <ele>1335.462</ele>
        <time>2012-05-22T09:54:17Z</time>
      </trkpt>
      <trkpt lat="44.5146" lon="3.78316">
        <ele>1332.07</ele>
        <time>2012-05-22T09:54:29Z</time>
      </trkpt>
      <trkpt lat="44.51458" lon="3.78304">
        <ele>1330.445</ele>
        <time>2012-05-22T09:54:37Z</time>
      </trkpt>
      <trkpt lat="44.51455" lon="3.78297">
        <ele>1329.547</ele>
        <time>2012-05-22T09:54:42Z</time>
      </trkpt>
      <trkpt lat="44.51455" lon="3.78292">
        <ele>1328.392</ele>
        <time>2012-05-22T09:54:45Z</time>
      </trkpt>
      <trkpt lat="44.51453" lon="3.78281">
        <ele>1325.664</ele>
        <time>2012-05-22T09:55:00Z</time>
      </trkpt>
      <trkpt lat="44.51444" lon="3.78257">
        <ele>1322.384</ele>
        <time>2012-05-22T09:55:19Z</time>
      </trkpt>
      <trkpt lat="44.51443" lon="3.78256">
        <ele>1321.715</ele>
        <time>2012-05-22T09:55:21Z</time>
      </trkpt>
      <trkpt lat="44.51437" lon="3.78244">
        <ele>1317.619</ele>
        <time>2012-05-22T09:55:30Z</time>
      </trkpt>
      <trkpt lat="44.51435" lon="3.7824">
        <ele>1316.681</ele>
        <time>2012-05-22T09:55:33Z</time>
      </trkpt>
      <trkpt lat="44.51418" lon="3.78232">
        <ele>1317.482</ele>
        <time>2012-05-22T09:55:47Z</time>
      </trkpt>
      <trkpt lat="44.51414" lon="3.7823">
        <ele>1316.747</ele>
        <time>2012-05-22T09:55:50Z</time>
      </trkpt>
      <trkpt lat="44.51411" lon="3.78226">
        <ele>1317.647</ele>
        <time>2012-05-22T09:55:55Z</time>
      </trkpt>
      <trkpt lat="44.51403" lon="3.78224">
        <ele>1316.65</ele>
        <time>2012-05-22T09:56:08Z</time>
      </trkpt>
      <trkpt lat="44.51389" lon="3.78219">
        <ele>1316.346</ele>
        <time>2012-05-22T09:56:29Z</time>
      </trkpt>
      <trkpt lat="44.51362" lon="3.78199">
        <ele>1316.309</ele>
        <time>2012-05-22T09:56:50Z</time>
      </trkpt>
      <trkpt lat="44.51339" lon="3.78181">
        <ele>1315.959</ele>
        <time>2012-05-22T09:57:10Z</time>
      </trkpt>
      <trkpt lat="44.51319" lon="3.78165">
        <ele>1316.493</ele>
        <time>2012-05-22T09:57:29Z</time>
      </trkpt>
      <trkpt lat="44.51297" lon="3.7815">
        <ele>1316.197</ele>
        <time>2012-05-22T09:57:48Z</time>
      </trkpt>
      <trkpt lat="44.51276" lon="3.78135">
        <ele>1316.926</ele>
        <time>2012-05-22T09:58:08Z</time>
      </trkpt>
      <trkpt lat="44.51256" lon="3.78112">
        <ele>1317.381</ele>
        <time>2012-05-22T09:58:28Z</time>
      </trkpt>
      <trkpt lat="44.5125" lon="3.78105">
        <ele>1316.591</ele>
        <time>2012-05-22T09:58:38Z</time>
      </trkpt>
      <trkpt lat="44.51232" lon="3.78087">
        <ele>1313.989</ele>
        <time>2012-05-22T09:58:56Z</time>
      </trkpt>
      <trkpt lat="44.5122" lon="3.78075">
        <ele>1313.852</ele>
        <time>2012-05-22T09:59:07Z</time>
      </trkpt>
      <trkpt lat="44.51206" lon="3.78055">
        <ele>1312.479</ele>
        <time>2012-05-22T09:59:23Z</time>
      </trkpt>
      <trkpt lat="44.51204" lon="3.78053">
        <ele>1311.083</ele>
        <time>2012-05-22T09:59:25Z</time>
      </trkpt>
      <trkpt lat="44.512" lon="3.78048">
        <ele>1313.779</ele>
        <time>2012-05-22T09:59:29Z</time>
      </trkpt>
      <trkpt lat="44.51179" lon="3.78021">
        <ele>1310.581</ele>
        <time>2012-05-22T09:59:51Z</time>
      </trkpt>
      <trkpt lat="44.51171" lon="3.78008">
        <ele>1309.064</ele>
        <time>2012-05-22T10:00:01Z</time>
      </trkpt>
      <trkpt lat="44.51155" lon="3.77983">
        <ele>1308.541</ele>
        <time>2012-05-22T10:00:20Z</time>
      </trkpt>
      <trkpt lat="44.51126" lon="3.77959">
        <ele>1307.148</ele>
        <time>2012-05-22T10:00:46Z</time>
      </trkpt>
      <trkpt lat="44.51103" lon="3.77953">
        <ele>1306.237</ele>
        <time>2012-05-22T10:01:04Z</time>
      </trkpt>
      <trkpt lat="44.5109" lon="3.77935">
        <ele>1303.121</ele>
        <time>2012-05-22T10:01:21Z</time>
      </trkpt>
      <trkpt lat="44.51076" lon="3.77919">
        <ele>1300</ele>
        <time>2012-05-22T10:01:35Z</time>
      </trkpt>
      <trkpt lat="44.51071" lon="3.77911">
        <ele>1298.541</ele>
        <time>2012-05-22T10:01:41Z</time>
      </trkpt>
      <trkpt lat="44.51069" lon="3.77907">
        <ele>1297.882</ele>
        <time>2012-05-22T10:01:44Z</time>
      </trkpt>
      <trkpt lat="44.51066" lon="3.779">
        <ele>1296.485</ele>
        <time>2012-05-22T10:01:48Z</time>
      </trkpt>
      <trkpt lat="44.51055" lon="3.77883">
        <ele>1293.888</ele>
        <time>2012-05-22T10:02:01Z</time>
      </trkpt>
      <trkpt lat="44.51053" lon="3.7788">
        <ele>1293.266</ele>
        <time>2012-05-22T10:02:03Z</time>
      </trkpt>
      <trkpt lat="44.51046" lon="3.77867">
        <ele>1291.68</ele>
        <time>2012-05-22T10:02:12Z</time>
      </trkpt>
      <trkpt lat="44.51041" lon="3.77856">
        <ele>1289.822</ele>
        <time>2012-05-22T10:02:19Z</time>
      </trkpt>
      <trkpt lat="44.51037" lon="3.7785">
        <ele>1288.827</ele>
        <time>2012-05-22T10:02:23Z</time>
      </trkpt>
      <trkpt lat="44.51033" lon="3.77843">
        <ele>1287.859</ele>
        <time>2012-05-22T10:02:28Z</time>
      </trkpt>
      <trkpt lat="44.51031" lon="3.7784">
        <ele>1286.724</ele>
        <time>2012-05-22T10:02:30Z</time>
      </trkpt>
      <trkpt lat="44.51026" lon="3.77835">
        <ele>1286.763</ele>
        <time>2012-05-22T10:02:35Z</time>
      </trkpt>
      <trkpt lat="44.51019" lon="3.77815">
        <ele>1284.858</ele>
        <time>2012-05-22T10:02:48Z</time>
      </trkpt>
      <trkpt lat="44.51007" lon="3.77801">
        <ele>1283.847</ele>
        <time>2012-05-22T10:03:01Z</time>
      </trkpt>
      <trkpt lat="44.51003" lon="3.77792">
        <ele>1283.663</ele>
        <time>2012-05-22T10:03:07Z</time>
      </trkpt>
      <trkpt lat="44.50998" lon="3.77777">
        <ele>1282.233</ele>
        <time>2012-05-22T10:03:17Z</time>
      </trkpt>
      <trkpt lat="44.51003" lon="3.77772">
        <ele>1282.021</ele>
        <time>2012-05-22T10:03:21Z</time>
      </trkpt>
      <trkpt lat="44.51026" lon="3.77769">
        <ele>1279.924</ele>
        <time>2012-05-22T10:03:40Z</time>
      </trkpt>
      <trkpt lat="44.51042" lon="3.77767">
        <ele>1276.743</ele>
        <time>2012-05-22T10:03:54Z</time>
      </trkpt>
      <trkpt lat="44.51054" lon="3.77764">
        <ele>1274.904</ele>
        <time>2012-05-22T10:04:06Z</time>
      </trkpt>
      <trkpt lat="44.51059" lon="3.77763">
        <ele>1273.663</ele>
        <time>2012-05-22T10:04:11Z</time>
      </trkpt>
      <trkpt lat="44.51068" lon="3.77761">
        <ele>1272.88</ele>
        <time>2012-05-22T10:04:19Z</time>
      </trkpt>
      <trkpt lat="44.51091" lon="3.7776">
        <ele>1271.616</ele>
        <time>2012-05-22T10:04:37Z</time>
      </trkpt>
      <trkpt lat="44.51101" lon="3.77764">
        <ele>1271.969</ele>
        <time>2012-05-22T10:04:48Z</time>
      </trkpt>
      <trkpt lat="44.51122" lon="3.77769">
        <ele>1272.245</ele>
        <time>2012-05-22T10:05:03Z</time>
      </trkpt>
      <trkpt lat="44.51144" lon="3.77775">
        <ele>1273.284</ele>
        <time>2012-05-22T10:05:20Z</time>
      </trkpt>
      <trkpt lat="44.51164" lon="3.77773">
        <ele>1269.883</ele>
        <time>2012-05-22T10:05:37Z</time>
      </trkpt>
      <trkpt lat="44.5119" lon="3.77778">
        <ele>1270.305</ele>
        <time>2012-05-22T10:05:59Z</time>
      </trkpt>
      <trkpt lat="44.51209" lon="3.77782">
        <ele>1268.638</ele>
        <time>2012-05-22T10:06:19Z</time>
      </trkpt>
      <trkpt lat="44.51221" lon="3.77781">
        <ele>1267.018</ele>
        <time>2012-05-22T10:06:38Z</time>
      </trkpt>
      <trkpt lat="44.51237" lon="3.77783">
        <ele>1264.116</ele>
        <time>2012-05-22T10:06:56Z</time>
      </trkpt>
      <trkpt lat="44.51251" lon="3.77785">
        <ele>1261.02</ele>
        <time>2012-05-22T10:07:10Z</time>
      </trkpt>
      <trkpt lat="44.51254" lon="3.77785">
        <ele>1260.388</ele>
        <time>2012-05-22T10:07:12Z</time>
      </trkpt>
      <trkpt lat="44.51256" lon="3.77785">
        <ele>1259.9</ele>
        <time>2012-05-22T10:07:14Z</time>
      </trkpt>
      <trkpt lat="44.51269" lon="3.7779">
        <ele>1256.596</ele>
        <time>2012-05-22T10:07:27Z</time>
      </trkpt>
      <trkpt lat="44.51279" lon="3.77795">
        <ele>1255.339</ele>
        <time>2012-05-22T10:07:42Z</time>
      </trkpt>
      <trkpt lat="44.51277" lon="3.77781">
        <ele>1252.617</ele>
        <time>2012-05-22T10:07:57Z</time>
      </trkpt>
      <trkpt lat="44.51273" lon="3.77753">
        <ele>1250.557</ele>
        <time>2012-05-22T10:08:17Z</time>
      </trkpt>
      <trkpt lat="44.51273" lon="3.77741">
        <ele>1249.265</ele>
        <time>2012-05-22T10:08:26Z</time>
      </trkpt>
      <trkpt lat="44.51276" lon="3.77735">
        <ele>1249.609</ele>
        <time>2012-05-22T10:08:29Z</time>
      </trkpt>
      <trkpt lat="44.51275" lon="3.77725">
        <ele>1248.319</ele>
        <time>2012-05-22T10:08:35Z</time>
      </trkpt>
      <trkpt lat="44.5127" lon="3.77714">
        <ele>1247.401</ele>
        <time>2012-05-22T10:08:43Z</time>
      </trkpt>
      <trkpt lat="44.5126" lon="3.77692">
        <ele>1244.276</ele>
        <time>2012-05-22T10:09:00Z</time>
      </trkpt>
      <trkpt lat="44.51251" lon="3.77676">
        <ele>1243.761</ele>
        <time>2012-05-22T10:09:15Z</time>
      </trkpt>
      <trkpt lat="44.51243" lon="3.77668">
        <ele>1242.618</ele>
        <time>2012-05-22T10:09:23Z</time>
      </trkpt>
      <trkpt lat="44.51217" lon="3.77642">
        <ele>1238.854</ele>
        <time>2012-05-22T10:09:50Z</time>
      </trkpt>
      <trkpt lat="44.51199" lon="3.77621">
        <ele>1236.012</ele>
        <time>2012-05-22T10:10:10Z</time>
      </trkpt>
      <trkpt lat="44.51187" lon="3.77606">
        <ele>1234.626</ele>
        <time>2012-05-22T10:10:25Z</time>
      </trkpt>
      <trkpt lat="44.51179" lon="3.77595">
        <ele>1232.322</ele>
        <time>2012-05-22T10:10:35Z</time>
      </trkpt>
      <trkpt lat="44.51168" lon="3.77582">
        <ele>1230.248</ele>
        <time>2012-05-22T10:10:48Z</time>
      </trkpt>
      <trkpt lat="44.51164" lon="3.77577">
        <ele>1230.132</ele>
        <time>2012-05-22T10:10:51Z</time>
      </trkpt>
      <trkpt lat="44.51144" lon="3.77555">
        <ele>1227.797</ele>
        <time>2012-05-22T10:11:09Z</time>
      </trkpt>
      <trkpt lat="44.51129" lon="3.77543">
        <ele>1226.603</ele>
        <time>2012-05-22T10:11:24Z</time>
      </trkpt>
      <trkpt lat="44.51112" lon="3.77534">
        <ele>1223.885</ele>
        <time>2012-05-22T10:11:37Z</time>
      </trkpt>
      <trkpt lat="44.51108" lon="3.77534">
        <ele>1223.728</ele>
        <time>2012-05-22T10:11:39Z</time>
      </trkpt>
      <trkpt lat="44.51092" lon="3.77527">
        <ele>1224.625</ele>
        <time>2012-05-22T10:11:52Z</time>
      </trkpt>
      <trkpt lat="44.5109" lon="3.77526">
        <ele>1224.647</ele>
        <time>2012-05-22T10:11:55Z</time>
      </trkpt>
      <trkpt lat="44.51076" lon="3.77518">
        <ele>1224.652</ele>
        <time>2012-05-22T10:12:05Z</time>
      </trkpt>
      <trkpt lat="44.51072" lon="3.77513">
        <ele>1224.368</ele>
        <time>2012-05-22T10:12:09Z</time>
      </trkpt>
      <trkpt lat="44.51058" lon="3.77506">
        <ele>1223.779</ele>
        <time>2012-05-22T10:12:21Z</time>
      </trkpt>
      <trkpt lat="44.51043" lon="3.77504">
        <ele>1223.35</ele>
        <time>2012-05-22T10:12:38Z</time>
      </trkpt>
      <trkpt lat="44.51022" lon="3.77499">
        <ele>1222.23</ele>
        <time>2012-05-22T10:12:55Z</time>
      </trkpt>
      <trkpt lat="44.5102" lon="3.77498">
        <ele>1222.372</ele>
        <time>2012-05-22T10:12:56Z</time>
      </trkpt>
      <trkpt lat="44.51001" lon="3.77482">
        <ele>1222.127</ele>
        <time>2012-05-22T10:13:13Z</time>
      </trkpt>
      <trkpt lat="44.50994" lon="3.77471">
        <ele>1222.123</ele>
        <time>2012-05-22T10:13:22Z</time>
      </trkpt>
      <trkpt lat="44.50982" lon="3.77452">
        <ele>1221.944</ele>
        <time>2012-05-22T10:13:36Z</time>
      </trkpt>
      <trkpt lat="44.50983" lon="3.77445">
        <ele>1222.034</ele>
        <time>2012-05-22T10:13:40Z</time>
      </trkpt>
      <trkpt lat="44.50981" lon="3.77441">
        <ele>1222.353</ele>
        <time>2012-05-22T10:13:44Z</time>
      </trkpt>
      <trkpt lat="44.50978" lon="3.77431">
        <ele>1221.841</ele>
        <time>2012-05-22T10:13:50Z</time>
      </trkpt>
      <trkpt lat="44.50974" lon="3.77409">
        <ele>1219.978</ele>
        <time>2012-05-22T10:14:03Z</time>
      </trkpt>
      <trkpt lat="44.50975" lon="3.77404">
        <ele>1219.743</ele>
        <time>2012-05-22T10:14:05Z</time>
      </trkpt>
      <trkpt lat="44.50969" lon="3.77384">
        <ele>1217.426</ele>
        <time>2012-05-22T10:14:18Z</time>
      </trkpt>
      <trkpt lat="44.50968" lon="3.77378">
        <ele>1217.317</ele>
        <time>2012-05-22T10:14:22Z</time>
      </trkpt>
      <trkpt lat="44.50968" lon="3.77375">
        <ele>1217.325</ele>
        <time>2012-05-22T10:14:24Z</time>
      </trkpt>
      <trkpt lat="44.50965" lon="3.77365">
        <ele>1216.866</ele>
        <time>2012-05-22T10:14:29Z</time>
      </trkpt>
      <trkpt lat="44.50965" lon="3.77342">
        <ele>1215.518</ele>
        <time>2012-05-22T10:14:42Z</time>
      </trkpt>
      <trkpt lat="44.50965" lon="3.77337">
        <ele>1215.28</ele>
        <time>2012-05-22T10:14:45Z</time>
      </trkpt>
      <trkpt lat="44.50963" lon="3.77333">
        <ele>1215.145</ele>
        <time>2012-05-22T10:14:48Z</time>
      </trkpt>
      <trkpt lat="44.5096" lon="3.77326">
        <ele>1215.381</ele>
        <time>2012-05-22T10:14:52Z</time>
      </trkpt>
      <trkpt lat="44.50958" lon="3.77299">
        <ele>1213.975</ele>
        <time>2012-05-22T10:15:06Z</time>
      </trkpt>
      <trkpt lat="44.50954" lon="3.77289">
        <ele>1213.954</ele>
        <time>2012-05-22T10:15:12Z</time>
      </trkpt>
      <trkpt lat="44.50953" lon="3.77279">
        <ele>1213.798</ele>
        <time>2012-05-22T10:15:18Z</time>
      </trkpt>
      <trkpt lat="44.50952" lon="3.77275">
        <ele>1213.832</ele>
        <time>2012-05-22T10:15:20Z</time>
      </trkpt>
      <trkpt lat="44.50951" lon="3.77271">
        <ele>1213.694</ele>
        <time>2012-05-22T10:15:23Z</time>
      </trkpt>
      <trkpt lat="44.50952" lon="3.77249">
        <ele>1213.04</ele>
        <time>2012-05-22T10:15:35Z</time>
      </trkpt>
      <trkpt lat="44.50942" lon="3.77217">
        <ele>1211.402</ele>
        <time>2012-05-22T10:15:54Z</time>
      </trkpt>
      <trkpt lat="44.50936" lon="3.772">
        <ele>1210.809</ele>
        <time>2012-05-22T10:16:05Z</time>
      </trkpt>
      <trkpt lat="44.50934" lon="3.77193">
        <ele>1210.123</ele>
        <time>2012-05-22T10:16:11Z</time>
      </trkpt>
      <trkpt lat="44.50931" lon="3.77186">
        <ele>1209.995</ele>
        <time>2012-05-22T10:16:15Z</time>
      </trkpt>
      <trkpt lat="44.50928" lon="3.77176">
        <ele>1209.484</ele>
        <time>2012-05-22T10:16:21Z</time>
      </trkpt>
      <trkpt lat="44.50921" lon="3.77151">
        <ele>1207.759</ele>
        <time>2012-05-22T10:16:34Z</time>
      </trkpt>
      <trkpt lat="44.50914" lon="3.7714">
        <ele>1208.198</ele>
        <time>2012-05-22T10:16:41Z</time>
      </trkpt>
      <trkpt lat="44.50912" lon="3.7713">
        <ele>1208.141</ele>
        <time>2012-05-22T10:16:45Z</time>
      </trkpt>
      <trkpt lat="44.5091" lon="3.77123">
        <ele>1208.035</ele>
        <time>2012-05-22T10:16:49Z</time>
      </trkpt>
      <trkpt lat="44.50908" lon="3.77117">
        <ele>1206.675</ele>
        <time>2012-05-22T10:16:53Z</time>
      </trkpt>
      <trkpt lat="44.50905" lon="3.77112">
        <ele>1206.349</ele>
        <time>2012-05-22T10:16:56Z</time>
      </trkpt>
      <trkpt lat="44.50902" lon="3.77104">
        <ele>1205.262</ele>
        <time>2012-05-22T10:17:01Z</time>
      </trkpt>
      <trkpt lat="44.50898" lon="3.77097">
        <ele>1204.708</ele>
        <time>2012-05-22T10:17:05Z</time>
      </trkpt>
      <trkpt lat="44.50894" lon="3.77087">
        <ele>1203.455</ele>
        <time>2012-05-22T10:17:12Z</time>
      </trkpt>
      <trkpt lat="44.50886" lon="3.77072">
        <ele>1202.39</ele>
        <time>2012-05-22T10:17:23Z</time>
      </trkpt>
      <trkpt lat="44.5088" lon="3.77064">
        <ele>1201.01</ele>
        <time>2012-05-22T10:17:30Z</time>
      </trkpt>
      <trkpt lat="44.50873" lon="3.77056">
        <ele>1200.337</ele>
        <time>2012-05-22T10:17:38Z</time>
      </trkpt>
      <trkpt lat="44.50863" lon="3.77039">
        <ele>1198.614</ele>
        <time>2012-05-22T10:17:52Z</time>
      </trkpt>
      <trkpt lat="44.50852" lon="3.77018">
        <ele>1197.31</ele>
        <time>2012-05-22T10:18:05Z</time>
      </trkpt>
      <trkpt lat="44.50836" lon="3.76995">
        <ele>1195.623</ele>
        <time>2012-05-22T10:18:22Z</time>
      </trkpt>
      <trkpt lat="44.50824" lon="3.7699">
        <ele>1193.811</ele>
        <time>2012-05-22T10:18:32Z</time>
      </trkpt>
      <trkpt lat="44.5081" lon="3.76986">
        <ele>1192.399</ele>
        <time>2012-05-22T10:18:45Z</time>
      </trkpt>
      <trkpt lat="44.50808" lon="3.76985">
        <ele>1192.406</ele>
        <time>2012-05-22T10:18:46Z</time>
      </trkpt>
      <trkpt lat="44.5079" lon="3.76975">
        <ele>1191.323</ele>
        <time>2012-05-22T10:19:00Z</time>
      </trkpt>
      <trkpt lat="44.50784" lon="3.76972">
        <ele>1190.075</ele>
        <time>2012-05-22T10:19:05Z</time>
      </trkpt>
      <trkpt lat="44.50771" lon="3.76963">
        <ele>1189.104</ele>
        <time>2012-05-22T10:19:17Z</time>
      </trkpt>
      <trkpt lat="44.50758" lon="3.76957">
        <ele>1188.465</ele>
        <time>2012-05-22T10:19:28Z</time>
      </trkpt>
      <trkpt lat="44.50753" lon="3.76952">
        <ele>1188.346</ele>
        <time>2012-05-22T10:19:34Z</time>
      </trkpt>
      <trkpt lat="44.50749" lon="3.76949">
        <ele>1187.983</ele>
        <time>2012-05-22T10:19:37Z</time>
      </trkpt>
      <trkpt lat="44.50741" lon="3.76946">
        <ele>1187.71</ele>
        <time>2012-05-22T10:19:43Z</time>
      </trkpt>
      <trkpt lat="44.50719" lon="3.76936">
        <ele>1186.547</ele>
        <time>2012-05-22T10:20:01Z</time>
      </trkpt>
      <trkpt lat="44.50717" lon="3.76935">
        <ele>1186.057</ele>
        <time>2012-05-22T10:20:03Z</time>
      </trkpt>
      <trkpt lat="44.50715" lon="3.76933">
        <ele>1185.611</ele>
        <time>2012-05-22T10:20:06Z</time>
      </trkpt>
      <trkpt lat="44.5071" lon="3.76929">
        <ele>1185.497</ele>
        <time>2012-05-22T10:20:09Z</time>
      </trkpt>
      <trkpt lat="44.50698" lon="3.7692">
        <ele>1183.78</ele>
        <time>2012-05-22T10:20:19Z</time>
      </trkpt>
      <trkpt lat="44.50681" lon="3.76909">
        <ele>1181.658</ele>
        <time>2012-05-22T10:20:34Z</time>
      </trkpt>
      <trkpt lat="44.50669" lon="3.76906">
        <ele>1179.587</ele>
        <time>2012-05-22T10:20:45Z</time>
      </trkpt>
      <trkpt lat="44.50665" lon="3.76904">
        <ele>1179.57</ele>
        <time>2012-05-22T10:20:48Z</time>
      </trkpt>
      <trkpt lat="44.50657" lon="3.76902">
        <ele>1179.445</ele>
        <time>2012-05-22T10:20:57Z</time>
      </trkpt>
      <trkpt lat="44.50643" lon="3.76896">
        <ele>1177.59</ele>
        <time>2012-05-22T10:21:09Z</time>
      </trkpt>
      <trkpt lat="44.50625" lon="3.76889">
        <ele>1175.218</ele>
        <time>2012-05-22T10:21:22Z</time>
      </trkpt>
      <trkpt lat="44.5061" lon="3.76887">
        <ele>1172.756</ele>
        <time>2012-05-22T10:21:35Z</time>
      </trkpt>
      <trkpt lat="44.50591" lon="3.76883">
        <ele>1170.464</ele>
        <time>2012-05-22T10:21:50Z</time>
      </trkpt>
      <trkpt lat="44.50578" lon="3.76878">
        <ele>1169.617</ele>
        <time>2012-05-22T10:22:00Z</time>
      </trkpt>
      <trkpt lat="44.50575" lon="3.76878">
        <ele>1168.984</ele>
        <time>2012-05-22T10:22:03Z</time>
      </trkpt>
      <trkpt lat="44.50558" lon="3.76875">
        <ele>1166.491</ele>
        <time>2012-05-22T10:22:16Z</time>
      </trkpt>
      <trkpt lat="44.50537" lon="3.7687">
        <ele>1164.496</ele>
        <time>2012-05-22T10:22:34Z</time>
      </trkpt>
      <trkpt lat="44.50519" lon="3.76861">
        <ele>1164.233</ele>
        <time>2012-05-22T10:22:50Z</time>
      </trkpt>
      <trkpt lat="44.50509" lon="3.76861">
        <ele>1163.687</ele>
        <time>2012-05-22T10:22:59Z</time>
      </trkpt>
      <trkpt lat="44.50488" lon="3.76862">
        <ele>1161.818</ele>
        <time>2012-05-22T10:23:17Z</time>
      </trkpt>
      <trkpt lat="44.50477" lon="3.76861">
        <ele>1161.944</ele>
        <time>2012-05-22T10:23:27Z</time>
      </trkpt>
      <trkpt lat="44.50458" lon="3.76852">
        <ele>1161.958</ele>
        <time>2012-05-22T10:23:44Z</time>
      </trkpt>
      <trkpt lat="44.50446" lon="3.76841">
        <ele>1160.246</ele>
        <time>2012-05-22T10:23:55Z</time>
      </trkpt>
      <trkpt lat="44.50433" lon="3.76831">
        <ele>1159.555</ele>
        <time>2012-05-22T10:24:06Z</time>
      </trkpt>
      <trkpt lat="44.50411" lon="3.76812">
        <ele>1159.543</ele>
        <time>2012-05-22T10:24:27Z</time>
      </trkpt>
      <trkpt lat="44.50397" lon="3.76804">
        <ele>1159.075</ele>
        <time>2012-05-22T10:24:40Z</time>
      </trkpt>
      <trkpt lat="44.50391" lon="3.768">
        <ele>1158.756</ele>
        <time>2012-05-22T10:24:46Z</time>
      </trkpt>
      <trkpt lat="44.50386" lon="3.76796">
        <ele>1159.598</ele>
        <time>2012-05-22T10:24:51Z</time>
      </trkpt>
      <trkpt lat="44.50376" lon="3.76789">
        <ele>1159.079</ele>
        <time>2012-05-22T10:25:01Z</time>
      </trkpt>
      <trkpt lat="44.50362" lon="3.76779">
        <ele>1158.567</ele>
        <time>2012-05-22T10:25:14Z</time>
      </trkpt>
      <trkpt lat="44.50342" lon="3.76772">
        <ele>1158.013</ele>
        <time>2012-05-22T10:25:31Z</time>
      </trkpt>
      <trkpt lat="44.5034" lon="3.76771">
        <ele>1158.592</ele>
        <time>2012-05-22T10:25:32Z</time>
      </trkpt>
      <trkpt lat="44.50338" lon="3.76772">
        <ele>1157.999</ele>
        <time>2012-05-22T10:25:34Z</time>
      </trkpt>
      <trkpt lat="44.50331" lon="3.76773">
        <ele>1158.196</ele>
        <time>2012-05-22T10:25:39Z</time>
      </trkpt>
      <trkpt lat="44.5032" lon="3.76768">
        <ele>1157.202</ele>
        <time>2012-05-22T10:25:48Z</time>
      </trkpt>
      <trkpt lat="44.50317" lon="3.76769">
        <ele>1157.061</ele>
        <time>2012-05-22T10:25:51Z</time>
      </trkpt>
      <trkpt lat="44.50305" lon="3.76768">
        <ele>1156.553</ele>
        <time>2012-05-22T10:26:01Z</time>
      </trkpt>
      <trkpt lat="44.50292" lon="3.76761">
        <ele>1156.461</ele>
        <time>2012-05-22T10:26:12Z</time>
      </trkpt>
      <trkpt lat="44.50287" lon="3.76761">
        <ele>1156.383</ele>
        <time>2012-05-22T10:26:16Z</time>
      </trkpt>
      <trkpt lat="44.50284" lon="3.76762">
        <ele>1156.323</ele>
        <time>2012-05-22T10:26:18Z</time>
      </trkpt>
      <trkpt lat="44.5028" lon="3.76759">
        <ele>1156.233</ele>
        <time>2012-05-22T10:26:21Z</time>
      </trkpt>
      <trkpt lat="44.50277" lon="3.76759">
        <ele>1156.142</ele>
        <time>2012-05-22T10:26:23Z</time>
      </trkpt>
      <trkpt lat="44.50272" lon="3.76758">
        <ele>1156.577</ele>
        <time>2012-05-22T10:26:26Z</time>
      </trkpt>
      <trkpt lat="44.50268" lon="3.76757">
        <ele>1156.415</ele>
        <time>2012-05-22T10:26:30Z</time>
      </trkpt>
      <trkpt lat="44.50264" lon="3.76757">
        <ele>1156.127</ele>
        <time>2012-05-22T10:26:33Z</time>
      </trkpt>
      <trkpt lat="44.5026" lon="3.76759">
        <ele>1155.571</ele>
        <time>2012-05-22T10:26:38Z</time>
      </trkpt>
      <trkpt lat="44.50252" lon="3.76757">
        <ele>1155.394</ele>
        <time>2012-05-22T10:26:45Z</time>
      </trkpt>
      <trkpt lat="44.50249" lon="3.76758">
        <ele>1155.538</ele>
        <time>2012-05-22T10:26:48Z</time>
      </trkpt>
      <trkpt lat="44.50244" lon="3.76755">
        <ele>1155.055</ele>
        <time>2012-05-22T10:26:51Z</time>
      </trkpt>
      <trkpt lat="44.5024" lon="3.76752">
        <ele>1154.532</ele>
        <time>2012-05-22T10:26:54Z</time>
      </trkpt>
      <trkpt lat="44.50232" lon="3.76749">
        <ele>1153.633</ele>
        <time>2012-05-22T10:27:01Z</time>
      </trkpt>
      <trkpt lat="44.50228" lon="3.76748">
        <ele>1153.488</ele>
        <time>2012-05-22T10:27:04Z</time>
      </trkpt>
      <trkpt lat="44.50221" lon="3.76744">
        <ele>1152.118</ele>
        <time>2012-05-22T10:27:10Z</time>
      </trkpt>
      <trkpt lat="44.50213" lon="3.7674">
        <ele>1151.778</ele>
        <time>2012-05-22T10:27:16Z</time>
      </trkpt>
      <trkpt lat="44.502" lon="3.76728">
        <ele>1150.276</ele>
        <time>2012-05-22T10:27:30Z</time>
      </trkpt>
      <trkpt lat="44.50196" lon="3.76726">
        <ele>1149.647</ele>
        <time>2012-05-22T10:27:34Z</time>
      </trkpt>
      <trkpt lat="44.50193" lon="3.76725">
        <ele>1148.564</ele>
        <time>2012-05-22T10:27:50Z</time>
      </trkpt>
      <trkpt lat="44.50188" lon="3.76726">
        <ele>1148.485</ele>
        <time>2012-05-22T10:27:57Z</time>
      </trkpt>
      <trkpt lat="44.50184" lon="3.76718">
        <ele>1148.832</ele>
        <time>2012-05-22T10:28:11Z</time>
      </trkpt>
      <trkpt lat="44.50184" lon="3.76713">
        <ele>1149.814</ele>
        <time>2012-05-22T10:31:43Z</time>
      </trkpt>
      <trkpt lat="44.50174" lon="3.76703">
        <ele>1149.109</ele>
        <time>2012-05-22T10:31:54Z</time>
      </trkpt>
      <trkpt lat="44.50171" lon="3.76698">
        <ele>1149.159</ele>
        <time>2012-05-22T10:31:58Z</time>
      </trkpt>
      <trkpt lat="44.50168" lon="3.76696">
        <ele>1149.975</ele>
        <time>2012-05-22T10:32:01Z</time>
      </trkpt>
      <trkpt lat="44.5016" lon="3.76684">
        <ele>1149.551</ele>
        <time>2012-05-22T10:32:11Z</time>
      </trkpt>
      <trkpt lat="44.5015" lon="3.76672">
        <ele>1149.151</ele>
        <time>2012-05-22T10:32:25Z</time>
      </trkpt>
      <trkpt lat="44.50137" lon="3.76661">
        <ele>1150.182</ele>
        <time>2012-05-22T10:32:39Z</time>
      </trkpt>
      <trkpt lat="44.5013" lon="3.76659">
        <ele>1150.574</ele>
        <time>2012-05-22T10:32:46Z</time>
      </trkpt>
      <trkpt lat="44.50122" lon="3.76661">
        <ele>1151.119</ele>
        <time>2012-05-22T10:32:53Z</time>
      </trkpt>
      <trkpt lat="44.5011" lon="3.76658">
        <ele>1151.357</ele>
        <time>2012-05-22T10:33:03Z</time>
      </trkpt>
      <trkpt lat="44.50105" lon="3.76659">
        <ele>1151.833</ele>
        <time>2012-05-22T10:33:06Z</time>
      </trkpt>
      <trkpt lat="44.50089" lon="3.76655">
        <ele>1153.22</ele>
        <time>2012-05-22T10:33:19Z</time>
      </trkpt>
      <trkpt lat="44.50081" lon="3.76655">
        <ele>1154.478</ele>
        <time>2012-05-22T10:33:32Z</time>
      </trkpt>
      <trkpt lat="44.50073" lon="3.76652">
        <ele>1154.927</ele>
        <time>2012-05-22T10:33:40Z</time>
      </trkpt>
      <trkpt lat="44.5007" lon="3.76653">
        <ele>1155.658</ele>
        <time>2012-05-22T10:33:43Z</time>
      </trkpt>
      <trkpt lat="44.50052" lon="3.76651">
        <ele>1156.975</ele>
        <time>2012-05-22T10:33:58Z</time>
      </trkpt>
      <trkpt lat="44.50047" lon="3.76652">
        <ele>1157.464</ele>
        <time>2012-05-22T10:34:02Z</time>
      </trkpt>
      <trkpt lat="44.50029" lon="3.76648">
        <ele>1158.119</ele>
        <time>2012-05-22T10:34:16Z</time>
      </trkpt>
      <trkpt lat="44.50005" lon="3.76641">
        <ele>1160.704</ele>
        <time>2012-05-22T10:34:37Z</time>
      </trkpt>
      <trkpt lat="44.49983" lon="3.76637">
        <ele>1163.811</ele>
        <time>2012-05-22T10:34:57Z</time>
      </trkpt>
      <trkpt lat="44.49963" lon="3.76636">
        <ele>1164.85</ele>
        <time>2012-05-22T10:35:14Z</time>
      </trkpt>
      <trkpt lat="44.4995" lon="3.76636">
        <ele>1166.037</ele>
        <time>2012-05-22T10:35:27Z</time>
      </trkpt>
      <trkpt lat="44.49944" lon="3.76637">
        <ele>1167.295</ele>
        <time>2012-05-22T10:35:32Z</time>
      </trkpt>
      <trkpt lat="44.49942" lon="3.76636">
        <ele>1167.512</ele>
        <time>2012-05-22T10:35:34Z</time>
      </trkpt>
      <trkpt lat="44.49931" lon="3.76634">
        <ele>1168.564</ele>
        <time>2012-05-22T10:35:43Z</time>
      </trkpt>
      <trkpt lat="44.49921" lon="3.76633">
        <ele>1169.646</ele>
        <time>2012-05-22T10:35:51Z</time>
      </trkpt>
      <trkpt lat="44.4991" lon="3.76634">
        <ele>1169.966</ele>
        <time>2012-05-22T10:36:00Z</time>
      </trkpt>
      <trkpt lat="44.49906" lon="3.76635">
        <ele>1169.741</ele>
        <time>2012-05-22T10:36:03Z</time>
      </trkpt>
      <trkpt lat="44.49888" lon="3.76635">
        <ele>1171.012</ele>
        <time>2012-05-22T10:36:18Z</time>
      </trkpt>
      <trkpt lat="44.49885" lon="3.76636">
        <ele>1171.044</ele>
        <time>2012-05-22T10:36:20Z</time>
      </trkpt>
      <trkpt lat="44.49876" lon="3.76638">
        <ele>1171.102</ele>
        <time>2012-05-22T10:36:28Z</time>
      </trkpt>
      <trkpt lat="44.49856" lon="3.76641">
        <ele>1171.754</ele>
        <time>2012-05-22T10:36:44Z</time>
      </trkpt>
      <trkpt lat="44.49849" lon="3.76641">
        <ele>1172.008</ele>
        <time>2012-05-22T10:36:50Z</time>
      </trkpt>
      <trkpt lat="44.49842" lon="3.76642">
        <ele>1172.359</ele>
        <time>2012-05-22T10:36:57Z</time>
      </trkpt>
      <trkpt lat="44.49828" lon="3.76643">
        <ele>1172.759</ele>
        <time>2012-05-22T10:37:09Z</time>
      </trkpt>
      <trkpt lat="44.4982" lon="3.76645">
        <ele>1174.44</ele>
        <time>2012-05-22T10:37:18Z</time>
      </trkpt>
      <trkpt lat="44.49813" lon="3.76646">
        <ele>1174.337</ele>
        <time>2012-05-22T10:37:24Z</time>
      </trkpt>
      <trkpt lat="44.49802" lon="3.76652">
        <ele>1175.28</ele>
        <time>2012-05-22T10:37:35Z</time>
      </trkpt>
      <trkpt lat="44.49799" lon="3.76653">
        <ele>1175.456</ele>
        <time>2012-05-22T10:37:37Z</time>
      </trkpt>
      <trkpt lat="44.49795" lon="3.76654">
        <ele>1175.846</ele>
        <time>2012-05-22T10:37:41Z</time>
      </trkpt>
      <trkpt lat="44.49789" lon="3.76657">
        <ele>1176.46</ele>
        <time>2012-05-22T10:37:47Z</time>
      </trkpt>
      <trkpt lat="44.49778" lon="3.7666">
        <ele>1177.777</ele>
        <time>2012-05-22T10:37:58Z</time>
      </trkpt>
      <trkpt lat="44.49771" lon="3.76659">
        <ele>1178.705</ele>
        <time>2012-05-22T10:38:04Z</time>
      </trkpt>
      <trkpt lat="44.49761" lon="3.76659">
        <ele>1179.503</ele>
        <time>2012-05-22T10:38:13Z</time>
      </trkpt>
      <trkpt lat="44.49754" lon="3.76659">
        <ele>1179.989</ele>
        <time>2012-05-22T10:38:19Z</time>
      </trkpt>
      <trkpt lat="44.49744" lon="3.76659">
        <ele>1181.371</ele>
        <time>2012-05-22T10:38:29Z</time>
      </trkpt>
      <trkpt lat="44.49738" lon="3.76658">
        <ele>1182.195</ele>
        <time>2012-05-22T10:38:34Z</time>
      </trkpt>
      <trkpt lat="44.49733" lon="3.76656">
        <ele>1183.055</ele>
        <time>2012-05-22T10:38:38Z</time>
      </trkpt>
      <trkpt lat="44.49722" lon="3.76656">
        <ele>1184.002</ele>
        <time>2012-05-22T10:38:49Z</time>
      </trkpt>
      <trkpt lat="44.49703" lon="3.76651">
        <ele>1185.234</ele>
        <time>2012-05-22T10:39:09Z</time>
      </trkpt>
      <trkpt lat="44.497" lon="3.76649">
        <ele>1185.523</ele>
        <time>2012-05-22T10:39:13Z</time>
      </trkpt>
      <trkpt lat="44.49694" lon="3.76642">
        <ele>1187.023</ele>
        <time>2012-05-22T10:39:21Z</time>
      </trkpt>
      <trkpt lat="44.49695" lon="3.76637">
        <ele>1186.87</ele>
        <time>2012-05-22T10:39:26Z</time>
      </trkpt>
      <trkpt lat="44.49712" lon="3.76626">
        <ele>1186.419</ele>
        <time>2012-05-22T10:39:42Z</time>
      </trkpt>
      <trkpt lat="44.49719" lon="3.76617">
        <ele>1187.687</ele>
        <time>2012-05-22T10:39:51Z</time>
      </trkpt>
      <trkpt lat="44.49734" lon="3.76602">
        <ele>1188.227</ele>
        <time>2012-05-22T10:40:07Z</time>
      </trkpt>
      <trkpt lat="44.49746" lon="3.76586">
        <ele>1188.639</ele>
        <time>2012-05-22T10:40:21Z</time>
      </trkpt>
      <trkpt lat="44.49751" lon="3.76578">
        <ele>1188.783</ele>
        <time>2012-05-22T10:40:27Z</time>
      </trkpt>
      <trkpt lat="44.49766" lon="3.76555">
        <ele>1188.646</ele>
        <time>2012-05-22T10:40:45Z</time>
      </trkpt>
      <trkpt lat="44.49773" lon="3.76545">
        <ele>1190.125</ele>
        <time>2012-05-22T10:40:54Z</time>
      </trkpt>
      <trkpt lat="44.49776" lon="3.76542">
        <ele>1190.818</ele>
        <time>2012-05-22T10:40:57Z</time>
      </trkpt>
      <trkpt lat="44.49783" lon="3.76533">
        <ele>1190.263</ele>
        <time>2012-05-22T10:41:06Z</time>
      </trkpt>
      <trkpt lat="44.49792" lon="3.76506">
        <ele>1192.292</ele>
        <time>2012-05-22T10:41:26Z</time>
      </trkpt>
      <trkpt lat="44.49797" lon="3.76495">
        <ele>1192.729</ele>
        <time>2012-05-22T10:41:33Z</time>
      </trkpt>
      <trkpt lat="44.49799" lon="3.76488">
        <ele>1193.328</ele>
        <time>2012-05-22T10:41:38Z</time>
      </trkpt>
      <trkpt lat="44.49811" lon="3.76467">
        <ele>1194.574</ele>
        <time>2012-05-22T10:41:54Z</time>
      </trkpt>
      <trkpt lat="44.49822" lon="3.76447">
        <ele>1195.469</ele>
        <time>2012-05-22T10:42:13Z</time>
      </trkpt>
      <trkpt lat="44.49829" lon="3.7644">
        <ele>1195.863</ele>
        <time>2012-05-22T10:42:22Z</time>
      </trkpt>
      <trkpt lat="44.49832" lon="3.76434">
        <ele>1195.938</ele>
        <time>2012-05-22T10:42:25Z</time>
      </trkpt>
      <trkpt lat="44.49836" lon="3.76431">
        <ele>1196.201</ele>
        <time>2012-05-22T10:42:29Z</time>
      </trkpt>
      <trkpt lat="44.49847" lon="3.76418">
        <ele>1196.447</ele>
        <time>2012-05-22T10:42:41Z</time>
      </trkpt>
      <trkpt lat="44.49857" lon="3.76403">
        <ele>1196.458</ele>
        <time>2012-05-22T10:42:53Z</time>
      </trkpt>
      <trkpt lat="44.49858" lon="3.76401">
        <ele>1196.332</ele>
        <time>2012-05-22T10:42:55Z</time>
      </trkpt>
      <trkpt lat="44.49861" lon="3.764">
        <ele>1196.551</ele>
        <time>2012-05-22T10:42:57Z</time>
      </trkpt>
      <trkpt lat="44.49863" lon="3.76393">
        <ele>1196.814</ele>
        <time>2012-05-22T10:43:01Z</time>
      </trkpt>
      <trkpt lat="44.49876" lon="3.76369">
        <ele>1197.779</ele>
        <time>2012-05-22T10:43:19Z</time>
      </trkpt>
      <trkpt lat="44.49881" lon="3.76354">
        <ele>1197.76</ele>
        <time>2012-05-22T10:43:29Z</time>
      </trkpt>
      <trkpt lat="44.49882" lon="3.76349">
        <ele>1198.253</ele>
        <time>2012-05-22T10:43:32Z</time>
      </trkpt>
      <trkpt lat="44.49889" lon="3.76322">
        <ele>1199.539</ele>
        <time>2012-05-22T10:43:49Z</time>
      </trkpt>
      <trkpt lat="44.49895" lon="3.76301">
        <ele>1200.216</ele>
        <time>2012-05-22T10:44:03Z</time>
      </trkpt>
      <trkpt lat="44.49895" lon="3.76298">
        <ele>1200.788</ele>
        <time>2012-05-22T10:44:05Z</time>
      </trkpt>
      <trkpt lat="44.49899" lon="3.76272">
        <ele>1200.879</ele>
        <time>2012-05-22T10:44:21Z</time>
      </trkpt>
      <trkpt lat="44.499" lon="3.76266">
        <ele>1200.622</ele>
        <time>2012-05-22T10:44:25Z</time>
      </trkpt>
      <trkpt lat="44.499" lon="3.76256">
        <ele>1200.489</ele>
        <time>2012-05-22T10:44:32Z</time>
      </trkpt>
      <trkpt lat="44.499" lon="3.76233">
        <ele>1200.378</ele>
        <time>2012-05-22T10:44:46Z</time>
      </trkpt>
      <trkpt lat="44.49899" lon="3.76225">
        <ele>1201.983</ele>
        <time>2012-05-22T10:44:51Z</time>
      </trkpt>
      <trkpt lat="44.49899" lon="3.76217">
        <ele>1201.882</ele>
        <time>2012-05-22T10:44:55Z</time>
      </trkpt>
      <trkpt lat="44.49895" lon="3.76205">
        <ele>1201.39</ele>
        <time>2012-05-22T10:45:02Z</time>
      </trkpt>
      <trkpt lat="44.49894" lon="3.762">
        <ele>1201.815</ele>
        <time>2012-05-22T10:45:05Z</time>
      </trkpt>
      <trkpt lat="44.49892" lon="3.7619">
        <ele>1201.813</ele>
        <time>2012-05-22T10:45:11Z</time>
      </trkpt>
      <trkpt lat="44.49889" lon="3.76181">
        <ele>1201.339</ele>
        <time>2012-05-22T10:45:17Z</time>
      </trkpt>
      <trkpt lat="44.49889" lon="3.76171">
        <ele>1203.522</ele>
        <time>2012-05-22T10:45:23Z</time>
      </trkpt>
      <trkpt lat="44.49891" lon="3.76159">
        <ele>1203.442</ele>
        <time>2012-05-22T10:45:30Z</time>
      </trkpt>
      <trkpt lat="44.49891" lon="3.76151">
        <ele>1203.616</ele>
        <time>2012-05-22T10:45:34Z</time>
      </trkpt>
      <trkpt lat="44.49892" lon="3.76146">
        <ele>1203.803</ele>
        <time>2012-05-22T10:45:37Z</time>
      </trkpt>
      <trkpt lat="44.49891" lon="3.7614">
        <ele>1203.823</ele>
        <time>2012-05-22T10:45:40Z</time>
      </trkpt>
      <trkpt lat="44.49893" lon="3.76112">
        <ele>1203.505</ele>
        <time>2012-05-22T10:45:55Z</time>
      </trkpt>
      <trkpt lat="44.49894" lon="3.76094">
        <ele>1202.976</ele>
        <time>2012-05-22T10:46:06Z</time>
      </trkpt>
      <trkpt lat="44.49894" lon="3.7609">
        <ele>1203.5</ele>
        <time>2012-05-22T10:46:08Z</time>
      </trkpt>
      <trkpt lat="44.49898" lon="3.76063">
        <ele>1203.367</ele>
        <time>2012-05-22T10:46:25Z</time>
      </trkpt>
      <trkpt lat="44.49898" lon="3.76031">
        <ele>1206.306</ele>
        <time>2012-05-22T10:46:43Z</time>
      </trkpt>
      <trkpt lat="44.49898" lon="3.76027">
        <ele>1204.915</ele>
        <time>2012-05-22T10:46:45Z</time>
      </trkpt>
      <trkpt lat="44.49899" lon="3.76007">
        <ele>1205.4</ele>
        <time>2012-05-22T10:46:58Z</time>
      </trkpt>
      <trkpt lat="44.49903" lon="3.75974">
        <ele>1205.009</ele>
        <time>2012-05-22T10:47:16Z</time>
      </trkpt>
      <trkpt lat="44.49918" lon="3.75934">
        <ele>1201.753</ele>
        <time>2012-05-22T10:47:39Z</time>
      </trkpt>
      <trkpt lat="44.4994" lon="3.75898">
        <ele>1199.54</ele>
        <time>2012-05-22T10:48:05Z</time>
      </trkpt>
      <trkpt lat="44.49957" lon="3.7588">
        <ele>1198.079</ele>
        <time>2012-05-22T10:48:21Z</time>
      </trkpt>
      <trkpt lat="44.49985" lon="3.75866">
        <ele>1196.521</ele>
        <time>2012-05-22T10:48:45Z</time>
      </trkpt>
      <trkpt lat="44.49992" lon="3.75868">
        <ele>1195.415</ele>
        <time>2012-05-22T10:48:55Z</time>
      </trkpt>
      <trkpt lat="44.50022" lon="3.75869">
        <ele>1192.7</ele>
        <time>2012-05-22T10:49:18Z</time>
      </trkpt>
      <trkpt lat="44.50046" lon="3.75849">
        <ele>1189.361</ele>
        <time>2012-05-22T10:49:39Z</time>
      </trkpt>
      <trkpt lat="44.50066" lon="3.7581">
        <ele>1185.861</ele>
        <time>2012-05-22T10:50:04Z</time>
      </trkpt>
      <trkpt lat="44.50074" lon="3.75774">
        <ele>1184.745</ele>
        <time>2012-05-22T10:50:26Z</time>
      </trkpt>
      <trkpt lat="44.50079" lon="3.75732">
        <ele>1183.116</ele>
        <time>2012-05-22T10:50:51Z</time>
      </trkpt>
      <trkpt lat="44.50084" lon="3.75716">
        <ele>1182.628</ele>
        <time>2012-05-22T10:51:02Z</time>
      </trkpt>
      <trkpt lat="44.50085" lon="3.75709">
        <ele>1182.396</ele>
        <time>2012-05-22T10:51:08Z</time>
      </trkpt>
      <trkpt lat="44.50083" lon="3.75697">
        <ele>1181.582</ele>
        <time>2012-05-22T10:52:02Z</time>
      </trkpt>
      <trkpt lat="44.50094" lon="3.75674">
        <ele>1179.493</ele>
        <time>2012-05-22T10:52:18Z</time>
      </trkpt>
      <trkpt lat="44.50105" lon="3.75657">
        <ele>1181.282</ele>
        <time>2012-05-22T10:53:37Z</time>
      </trkpt>
      <trkpt lat="44.5011" lon="3.7565">
        <ele>1180.556</ele>
        <time>2012-05-22T10:53:44Z</time>
      </trkpt>
      <trkpt lat="44.50113" lon="3.7565">
        <ele>1180.985</ele>
        <time>2012-05-22T10:55:12Z</time>
      </trkpt>
      <trkpt lat="44.50114" lon="3.75644">
        <ele>1181.508</ele>
        <time>2012-05-22T11:02:02Z</time>
      </trkpt>
      <trkpt lat="44.50117" lon="3.75637">
        <ele>1183.17</ele>
        <time>2012-05-22T11:41:38Z</time>
      </trkpt>
      <trkpt lat="44.50117" lon="3.75643">
        <ele>1182.422</ele>
        <time>2012-05-22T11:46:23Z</time>
      </trkpt>
      <trkpt lat="44.50115" lon="3.75646">
        <ele>1181.538</ele>
        <time>2012-05-22T11:46:25Z</time>
      </trkpt>
      <trkpt lat="44.50108" lon="3.75657">
        <ele>1185.417</ele>
        <time>2012-05-22T11:46:34Z</time>
      </trkpt>
      <trkpt lat="44.50099" lon="3.75666">
        <ele>1184.159</ele>
        <time>2012-05-22T11:46:42Z</time>
      </trkpt>
      <trkpt lat="44.50095" lon="3.75668">
        <ele>1182.193</ele>
        <time>2012-05-22T11:46:46Z</time>
      </trkpt>
      <trkpt lat="44.50082" lon="3.75655">
        <ele>1178.874</ele>
        <time>2012-05-22T11:46:59Z</time>
      </trkpt>
      <trkpt lat="44.50074" lon="3.75648">
        <ele>1177.991</ele>
        <time>2012-05-22T11:47:07Z</time>
      </trkpt>
      <trkpt lat="44.50067" lon="3.75623">
        <ele>1176.365</ele>
        <time>2012-05-22T11:47:24Z</time>
      </trkpt>
      <trkpt lat="44.50062" lon="3.75599">
        <ele>1173.538</ele>
        <time>2012-05-22T11:47:40Z</time>
      </trkpt>
      <trkpt lat="44.50057" lon="3.75596">
        <ele>1173.234</ele>
        <time>2012-05-22T11:47:44Z</time>
      </trkpt>
      <trkpt lat="44.50029" lon="3.75576">
        <ele>1171.739</ele>
        <time>2012-05-22T11:48:08Z</time>
      </trkpt>
      <trkpt lat="44.50005" lon="3.75557">
        <ele>1170.654</ele>
        <time>2012-05-22T11:48:29Z</time>
      </trkpt>
      <trkpt lat="44.49987" lon="3.75534">
        <ele>1169.314</ele>
        <time>2012-05-22T11:48:49Z</time>
      </trkpt>
      <trkpt lat="44.49982" lon="3.7551">
        <ele>1170.096</ele>
        <time>2012-05-22T11:49:03Z</time>
      </trkpt>
      <trkpt lat="44.49982" lon="3.75477">
        <ele>1169.5</ele>
        <time>2012-05-22T11:49:21Z</time>
      </trkpt>
      <trkpt lat="44.49982" lon="3.75439">
        <ele>1169.208</ele>
        <time>2012-05-22T11:49:42Z</time>
      </trkpt>
      <trkpt lat="44.49984" lon="3.7541">
        <ele>1166.936</ele>
        <time>2012-05-22T11:50:01Z</time>
      </trkpt>
      <trkpt lat="44.49985" lon="3.75406">
        <ele>1167.901</ele>
        <time>2012-05-22T11:50:33Z</time>
      </trkpt>
      <trkpt lat="44.49988" lon="3.754">
        <ele>1166.326</ele>
        <time>2012-05-22T11:50:38Z</time>
      </trkpt>
      <trkpt lat="44.50002" lon="3.75354">
        <ele>1164.382</ele>
        <time>2012-05-22T11:51:01Z</time>
      </trkpt>
      <trkpt lat="44.50002" lon="3.75332">
        <ele>1163.371</ele>
        <time>2012-05-22T11:51:13Z</time>
      </trkpt>
      <trkpt lat="44.5" lon="3.75329">
        <ele>1163.035</ele>
        <time>2012-05-22T11:51:15Z</time>
      </trkpt>
      <trkpt lat="44.49997" lon="3.75315">
        <ele>1162.878</ele>
        <time>2012-05-22T11:51:22Z</time>
      </trkpt>
      <trkpt lat="44.49992" lon="3.75306">
        <ele>1162.847</ele>
        <time>2012-05-22T11:51:28Z</time>
      </trkpt>
      <trkpt lat="44.49977" lon="3.75292">
        <ele>1163.302</ele>
        <time>2012-05-22T11:51:40Z</time>
      </trkpt>
      <trkpt lat="44.49974" lon="3.75288">
        <ele>1163.682</ele>
        <time>2012-05-22T11:51:43Z</time>
      </trkpt>
      <trkpt lat="44.49969" lon="3.75283">
        <ele>1163.541</ele>
        <time>2012-05-22T11:51:47Z</time>
      </trkpt>
      <trkpt lat="44.49954" lon="3.75264">
        <ele>1164.161</ele>
        <time>2012-05-22T11:52:01Z</time>
      </trkpt>
      <trkpt lat="44.49939" lon="3.75249">
        <ele>1164.432</ele>
        <time>2012-05-22T11:52:15Z</time>
      </trkpt>
      <trkpt lat="44.49933" lon="3.75246">
        <ele>1164.534</ele>
        <time>2012-05-22T11:52:19Z</time>
      </trkpt>
      <trkpt lat="44.4993" lon="3.75243">
        <ele>1164.289</ele>
        <time>2012-05-22T11:52:22Z</time>
      </trkpt>
      <trkpt lat="44.49905" lon="3.75236">
        <ele>1165.054</ele>
        <time>2012-05-22T11:52:41Z</time>
      </trkpt>
      <trkpt lat="44.49893" lon="3.75235">
        <ele>1165.485</ele>
        <time>2012-05-22T11:52:50Z</time>
      </trkpt>
      <trkpt lat="44.49867" lon="3.75242">
        <ele>1166.052</ele>
        <time>2012-05-22T11:53:10Z</time>
      </trkpt>
      <trkpt lat="44.49863" lon="3.75241">
        <ele>1166.58</ele>
        <time>2012-05-22T11:53:13Z</time>
      </trkpt>
      <trkpt lat="44.49847" lon="3.75248">
        <ele>1167.444</ele>
        <time>2012-05-22T11:53:26Z</time>
      </trkpt>
      <trkpt lat="44.49836" lon="3.75248">
        <ele>1169.144</ele>
        <time>2012-05-22T11:53:37Z</time>
      </trkpt>
      <trkpt lat="44.49832" lon="3.75246">
        <ele>1169.368</ele>
        <time>2012-05-22T11:53:41Z</time>
      </trkpt>
      <trkpt lat="44.4981" lon="3.75226">
        <ele>1171.076</ele>
        <time>2012-05-22T11:54:02Z</time>
      </trkpt>
      <trkpt lat="44.49794" lon="3.75208">
        <ele>1171.561</ele>
        <time>2012-05-22T11:54:19Z</time>
      </trkpt>
      <trkpt lat="44.4978" lon="3.75178">
        <ele>1171.744</ele>
        <time>2012-05-22T11:54:40Z</time>
      </trkpt>
      <trkpt lat="44.49762" lon="3.75152">
        <ele>1171.22</ele>
        <time>2012-05-22T11:55:00Z</time>
      </trkpt>
      <trkpt lat="44.49749" lon="3.75142">
        <ele>1170.915</ele>
        <time>2012-05-22T11:55:11Z</time>
      </trkpt>
      <trkpt lat="44.49733" lon="3.75119">
        <ele>1169.711</ele>
        <time>2012-05-22T11:55:29Z</time>
      </trkpt>
      <trkpt lat="44.49728" lon="3.7508">
        <ele>1167.279</ele>
        <time>2012-05-22T11:55:51Z</time>
      </trkpt>
      <trkpt lat="44.49728" lon="3.75077">
        <ele>1167.387</ele>
        <time>2012-05-22T11:55:53Z</time>
      </trkpt>
      <trkpt lat="44.4973" lon="3.75063">
        <ele>1166.894</ele>
        <time>2012-05-22T11:57:03Z</time>
      </trkpt>
      <trkpt lat="44.49719" lon="3.75036">
        <ele>1164.025</ele>
        <time>2012-05-22T11:57:19Z</time>
      </trkpt>
      <trkpt lat="44.4971" lon="3.7502">
        <ele>1162.355</ele>
        <time>2012-05-22T11:57:30Z</time>
      </trkpt>
      <trkpt lat="44.49701" lon="3.75009">
        <ele>1161.206</ele>
        <time>2012-05-22T11:57:39Z</time>
      </trkpt>
      <trkpt lat="44.49678" lon="3.74979">
        <ele>1158.313</ele>
        <time>2012-05-22T11:58:02Z</time>
      </trkpt>
      <trkpt lat="44.49653" lon="3.74957">
        <ele>1156.47</ele>
        <time>2012-05-22T11:58:22Z</time>
      </trkpt>
      <trkpt lat="44.49635" lon="3.74935">
        <ele>1155.707</ele>
        <time>2012-05-22T11:58:37Z</time>
      </trkpt>
      <trkpt lat="44.49619" lon="3.7492">
        <ele>1155.265</ele>
        <time>2012-05-22T11:58:51Z</time>
      </trkpt>
      <trkpt lat="44.49599" lon="3.74905">
        <ele>1153.14</ele>
        <time>2012-05-22T11:59:06Z</time>
      </trkpt>
      <trkpt lat="44.49576" lon="3.74878">
        <ele>1151.658</ele>
        <time>2012-05-22T11:59:27Z</time>
      </trkpt>
      <trkpt lat="44.49563" lon="3.74861">
        <ele>1152.47</ele>
        <time>2012-05-22T11:59:39Z</time>
      </trkpt>
      <trkpt lat="44.49542" lon="3.74833">
        <ele>1149.87</ele>
        <time>2012-05-22T11:59:58Z</time>
      </trkpt>
      <trkpt lat="44.4953" lon="3.74821">
        <ele>1149.958</ele>
        <time>2012-05-22T12:00:08Z</time>
      </trkpt>
      <trkpt lat="44.49513" lon="3.74787">
        <ele>1150.362</ele>
        <time>2012-05-22T12:00:29Z</time>
      </trkpt>
      <trkpt lat="44.4951" lon="3.74782">
        <ele>1149.046</ele>
        <time>2012-05-22T12:00:32Z</time>
      </trkpt>
      <trkpt lat="44.49503" lon="3.74765">
        <ele>1147.905</ele>
        <time>2012-05-22T12:00:42Z</time>
      </trkpt>
      <trkpt lat="44.49479" lon="3.74734">
        <ele>1144.856</ele>
        <time>2012-05-22T12:01:03Z</time>
      </trkpt>
      <trkpt lat="44.49452" lon="3.74707">
        <ele>1142.127</ele>
        <time>2012-05-22T12:01:26Z</time>
      </trkpt>
      <trkpt lat="44.49442" lon="3.747">
        <ele>1139.345</ele>
        <time>2012-05-22T12:01:34Z</time>
      </trkpt>
      <trkpt lat="44.49424" lon="3.74681">
        <ele>1138.123</ele>
        <time>2012-05-22T12:01:51Z</time>
      </trkpt>
      <trkpt lat="44.49416" lon="3.74664">
        <ele>1136.014</ele>
        <time>2012-05-22T12:02:03Z</time>
      </trkpt>
      <trkpt lat="44.49403" lon="3.74627">
        <ele>1134.33</ele>
        <time>2012-05-22T12:02:27Z</time>
      </trkpt>
      <trkpt lat="44.49402" lon="3.74621">
        <ele>1134.474</ele>
        <time>2012-05-22T12:02:31Z</time>
      </trkpt>
      <trkpt lat="44.494" lon="3.74616">
        <ele>1133.359</ele>
        <time>2012-05-22T12:02:34Z</time>
      </trkpt>
      <trkpt lat="44.494" lon="3.74606">
        <ele>1132.331</ele>
        <time>2012-05-22T12:02:49Z</time>
      </trkpt>
      <trkpt lat="44.49389" lon="3.74576">
        <ele>1130.872</ele>
        <time>2012-05-22T12:03:07Z</time>
      </trkpt>
      <trkpt lat="44.49387" lon="3.74566">
        <ele>1130.165</ele>
        <time>2012-05-22T12:03:14Z</time>
      </trkpt>
      <trkpt lat="44.49383" lon="3.74559">
        <ele>1130.071</ele>
        <time>2012-05-22T12:03:20Z</time>
      </trkpt>
      <trkpt lat="44.49376" lon="3.74542">
        <ele>1128.207</ele>
        <time>2012-05-22T12:03:31Z</time>
      </trkpt>
      <trkpt lat="44.49371" lon="3.74522">
        <ele>1126.851</ele>
        <time>2012-05-22T12:03:45Z</time>
      </trkpt>
      <trkpt lat="44.4937" lon="3.74518">
        <ele>1126.576</ele>
        <time>2012-05-22T12:03:48Z</time>
      </trkpt>
      <trkpt lat="44.49367" lon="3.74514">
        <ele>1126.292</ele>
        <time>2012-05-22T12:03:52Z</time>
      </trkpt>
      <trkpt lat="44.49366" lon="3.7451">
        <ele>1125.99</ele>
        <time>2012-05-22T12:03:55Z</time>
      </trkpt>
      <trkpt lat="44.49364" lon="3.74508">
        <ele>1125.836</ele>
        <time>2012-05-22T12:03:58Z</time>
      </trkpt>
      <trkpt lat="44.4936" lon="3.74502">
        <ele>1124.867</ele>
        <time>2012-05-22T12:04:03Z</time>
      </trkpt>
      <trkpt lat="44.49358" lon="3.74498">
        <ele>1124.146</ele>
        <time>2012-05-22T12:04:07Z</time>
      </trkpt>
      <trkpt lat="44.49353" lon="3.74495">
        <ele>1123.812</ele>
        <time>2012-05-22T12:04:12Z</time>
      </trkpt>
      <trkpt lat="44.49348" lon="3.74483">
        <ele>1122.251</ele>
        <time>2012-05-22T12:04:27Z</time>
      </trkpt>
      <trkpt lat="44.49335" lon="3.7447">
        <ele>1121.369</ele>
        <time>2012-05-22T12:04:46Z</time>
      </trkpt>
      <trkpt lat="44.49328" lon="3.74463">
        <ele>1120.906</ele>
        <time>2012-05-22T12:04:55Z</time>
      </trkpt>
      <trkpt lat="44.49323" lon="3.74455">
        <ele>1120.536</ele>
        <time>2012-05-22T12:05:03Z</time>
      </trkpt>
      <trkpt lat="44.49317" lon="3.74419">
        <ele>1119.867</ele>
        <time>2012-05-22T12:05:23Z</time>
      </trkpt>
      <trkpt lat="44.49311" lon="3.74402">
        <ele>1117.788</ele>
        <time>2012-05-22T12:05:36Z</time>
      </trkpt>
      <trkpt lat="44.49297" lon="3.74374">
        <ele>1116.636</ele>
        <time>2012-05-22T12:05:59Z</time>
      </trkpt>
      <trkpt lat="44.49292" lon="3.74363">
        <ele>1115.613</ele>
        <time>2012-05-22T12:06:14Z</time>
      </trkpt>
      <trkpt lat="44.49286" lon="3.74356">
        <ele>1115.623</ele>
        <time>2012-05-22T12:06:21Z</time>
      </trkpt>
      <trkpt lat="44.49272" lon="3.74346">
        <ele>1115.151</ele>
        <time>2012-05-22T12:06:37Z</time>
      </trkpt>
      <trkpt lat="44.49266" lon="3.74339">
        <ele>1114.842</ele>
        <time>2012-05-22T12:06:46Z</time>
      </trkpt>
      <trkpt lat="44.49253" lon="3.74317">
        <ele>1113.562</ele>
        <time>2012-05-22T12:07:04Z</time>
      </trkpt>
      <trkpt lat="44.49251" lon="3.74313">
        <ele>1113.483</ele>
        <time>2012-05-22T12:07:07Z</time>
      </trkpt>
      <trkpt lat="44.4923" lon="3.74282">
        <ele>1111.79</ele>
        <time>2012-05-22T12:07:34Z</time>
      </trkpt>
      <trkpt lat="44.49216" lon="3.74263">
        <ele>1110.322</ele>
        <time>2012-05-22T12:07:54Z</time>
      </trkpt>
      <trkpt lat="44.49213" lon="3.74258">
        <ele>1109.514</ele>
        <time>2012-05-22T12:07:59Z</time>
      </trkpt>
      <trkpt lat="44.49205" lon="3.74241">
        <ele>1108.081</ele>
        <time>2012-05-22T12:08:15Z</time>
      </trkpt>
      <trkpt lat="44.49196" lon="3.74224">
        <ele>1105.283</ele>
        <time>2012-05-22T12:08:33Z</time>
      </trkpt>
      <trkpt lat="44.49188" lon="3.74211">
        <ele>1103.186</ele>
        <time>2012-05-22T12:08:48Z</time>
      </trkpt>
      <trkpt lat="44.49183" lon="3.74205">
        <ele>1101.589</ele>
        <time>2012-05-22T12:08:59Z</time>
      </trkpt>
      <trkpt lat="44.49176" lon="3.7419">
        <ele>1098.783</ele>
        <time>2012-05-22T12:09:15Z</time>
      </trkpt>
      <trkpt lat="44.49169" lon="3.74177">
        <ele>1095.548</ele>
        <time>2012-05-22T12:09:29Z</time>
      </trkpt>
      <trkpt lat="44.49164" lon="3.74162">
        <ele>1094.46</ele>
        <time>2012-05-22T12:09:40Z</time>
      </trkpt>
      <trkpt lat="44.49162" lon="3.74156">
        <ele>1093.975</ele>
        <time>2012-05-22T12:09:45Z</time>
      </trkpt>
      <trkpt lat="44.4916" lon="3.74147">
        <ele>1092.714</ele>
        <time>2012-05-22T12:09:51Z</time>
      </trkpt>
      <trkpt lat="44.49158" lon="3.74136">
        <ele>1092.121</ele>
        <time>2012-05-22T12:09:59Z</time>
      </trkpt>
      <trkpt lat="44.49152" lon="3.74139">
        <ele>1090.671</ele>
        <time>2012-05-22T12:10:14Z</time>
      </trkpt>
      <trkpt lat="44.49146" lon="3.74155">
        <ele>1087.135</ele>
        <time>2012-05-22T12:10:28Z</time>
      </trkpt>
      <trkpt lat="44.49146" lon="3.74158">
        <ele>1087.337</ele>
        <time>2012-05-22T12:10:30Z</time>
      </trkpt>
      <trkpt lat="44.49145" lon="3.7418">
        <ele>1085.934</ele>
        <time>2012-05-22T12:10:50Z</time>
      </trkpt>
      <trkpt lat="44.49147" lon="3.74203">
        <ele>1085.466</ele>
        <time>2012-05-22T12:11:09Z</time>
      </trkpt>
      <trkpt lat="44.49148" lon="3.7422">
        <ele>1084.15</ele>
        <time>2012-05-22T12:11:25Z</time>
      </trkpt>
      <trkpt lat="44.49146" lon="3.7423">
        <ele>1082.756</ele>
        <time>2012-05-22T12:11:38Z</time>
      </trkpt>
      <trkpt lat="44.49142" lon="3.74231">
        <ele>1082.2</ele>
        <time>2012-05-22T12:11:43Z</time>
      </trkpt>
      <trkpt lat="44.4914" lon="3.74228">
        <ele>1081.662</ele>
        <time>2012-05-22T12:11:47Z</time>
      </trkpt>
      <trkpt lat="44.49134" lon="3.74212">
        <ele>1079.801</ele>
        <time>2012-05-22T12:12:04Z</time>
      </trkpt>
      <trkpt lat="44.49132" lon="3.74201">
        <ele>1078.484</ele>
        <time>2012-05-22T12:12:16Z</time>
      </trkpt>
      <trkpt lat="44.4913" lon="3.7419">
        <ele>1077.58</ele>
        <time>2012-05-22T12:12:27Z</time>
      </trkpt>
      <trkpt lat="44.49125" lon="3.74146">
        <ele>1076.714</ele>
        <time>2012-05-22T12:12:53Z</time>
      </trkpt>
      <trkpt lat="44.49116" lon="3.74109">
        <ele>1075.599</ele>
        <time>2012-05-22T12:13:15Z</time>
      </trkpt>
      <trkpt lat="44.49103" lon="3.74082">
        <ele>1075.491</ele>
        <time>2012-05-22T12:13:34Z</time>
      </trkpt>
      <trkpt lat="44.49083" lon="3.74057">
        <ele>1075.474</ele>
        <time>2012-05-22T12:13:55Z</time>
      </trkpt>
      <trkpt lat="44.4906" lon="3.74032">
        <ele>1073.905</ele>
        <time>2012-05-22T12:14:17Z</time>
      </trkpt>
      <trkpt lat="44.49042" lon="3.74011">
        <ele>1073.738</ele>
        <time>2012-05-22T12:14:36Z</time>
      </trkpt>
      <trkpt lat="44.49038" lon="3.74004">
        <ele>1073.842</ele>
        <time>2012-05-22T12:14:41Z</time>
      </trkpt>
      <trkpt lat="44.4903" lon="3.73985">
        <ele>1073.279</ele>
        <time>2012-05-22T12:14:54Z</time>
      </trkpt>
      <trkpt lat="44.49027" lon="3.73978">
        <ele>1073.89</ele>
        <time>2012-05-22T12:14:59Z</time>
      </trkpt>
      <trkpt lat="44.49026" lon="3.73963">
        <ele>1073.569</ele>
        <time>2012-05-22T12:15:12Z</time>
      </trkpt>
      <trkpt lat="44.49011" lon="3.73945">
        <ele>1072.659</ele>
        <time>2012-05-22T12:15:31Z</time>
      </trkpt>
      <trkpt lat="44.48999" lon="3.73942">
        <ele>1072.062</ele>
        <time>2012-05-22T12:15:46Z</time>
      </trkpt>
      <trkpt lat="44.48992" lon="3.73938">
        <ele>1071.254</ele>
        <time>2012-05-22T12:16:16Z</time>
      </trkpt>
      <trkpt lat="44.48983" lon="3.73935">
        <ele>1071.458</ele>
        <time>2012-05-22T12:16:40Z</time>
      </trkpt>
      <trkpt lat="44.48959" lon="3.73931">
        <ele>1071.13</ele>
        <time>2012-05-22T12:16:59Z</time>
      </trkpt>
      <trkpt lat="44.48938" lon="3.73927">
        <ele>1070.724</ele>
        <time>2012-05-22T12:17:15Z</time>
      </trkpt>
      <trkpt lat="44.48924" lon="3.73916">
        <ele>1071.433</ele>
        <time>2012-05-22T12:17:29Z</time>
      </trkpt>
      <trkpt lat="44.48917" lon="3.73879">
        <ele>1070.918</ele>
        <time>2012-05-22T12:17:51Z</time>
      </trkpt>
      <trkpt lat="44.48909" lon="3.73848">
        <ele>1071.506</ele>
        <time>2012-05-22T12:18:11Z</time>
      </trkpt>
      <trkpt lat="44.48902" lon="3.73816">
        <ele>1072.474</ele>
        <time>2012-05-22T12:18:30Z</time>
      </trkpt>
      <trkpt lat="44.48895" lon="3.73785">
        <ele>1071.907</ele>
        <time>2012-05-22T12:18:53Z</time>
      </trkpt>
      <trkpt lat="44.48881" lon="3.73794">
        <ele>1075.189</ele>
        <time>2012-05-22T12:19:33Z</time>
      </trkpt>
      <trkpt lat="44.48878" lon="3.73796">
        <ele>1075.572</ele>
        <time>2012-05-22T12:19:40Z</time>
      </trkpt>
      <trkpt lat="44.48868" lon="3.73787">
        <ele>1076.671</ele>
        <time>2012-05-22T12:19:50Z</time>
      </trkpt>
      <trkpt lat="44.48861" lon="3.73781">
        <ele>1077.112</ele>
        <time>2012-05-22T12:19:57Z</time>
      </trkpt>
      <trkpt lat="44.48846" lon="3.73768">
        <ele>1078.177</ele>
        <time>2012-05-22T12:20:12Z</time>
      </trkpt>
      <trkpt lat="44.48835" lon="3.73756">
        <ele>1079.19</ele>
        <time>2012-05-22T12:20:24Z</time>
      </trkpt>
      <trkpt lat="44.48832" lon="3.73753">
        <ele>1079.769</ele>
        <time>2012-05-22T12:20:27Z</time>
      </trkpt>
      <trkpt lat="44.48821" lon="3.73729">
        <ele>1080.271</ele>
        <time>2012-05-22T12:20:46Z</time>
      </trkpt>
      <trkpt lat="44.48808" lon="3.73706">
        <ele>1081.437</ele>
        <time>2012-05-22T12:21:05Z</time>
      </trkpt>
      <trkpt lat="44.48798" lon="3.73692">
        <ele>1081.278</ele>
        <time>2012-05-22T12:21:18Z</time>
      </trkpt>
      <trkpt lat="44.48796" lon="3.73689">
        <ele>1082.088</ele>
        <time>2012-05-22T12:21:21Z</time>
      </trkpt>
      <trkpt lat="44.48794" lon="3.73685">
        <ele>1082.545</ele>
        <time>2012-05-22T12:21:25Z</time>
      </trkpt>
      <trkpt lat="44.48788" lon="3.73676">
        <ele>1083.496</ele>
        <time>2012-05-22T12:21:33Z</time>
      </trkpt>
      <trkpt lat="44.48784" lon="3.73668">
        <ele>1083.711</ele>
        <time>2012-05-22T12:21:38Z</time>
      </trkpt>
      <trkpt lat="44.48781" lon="3.73657">
        <ele>1084.301</ele>
        <time>2012-05-22T12:21:45Z</time>
      </trkpt>
      <trkpt lat="44.4878" lon="3.73651">
        <ele>1084.815</ele>
        <time>2012-05-22T12:21:50Z</time>
      </trkpt>
      <trkpt lat="44.48774" lon="3.73646">
        <ele>1084.311</ele>
        <time>2012-05-22T12:21:56Z</time>
      </trkpt>
      <trkpt lat="44.48761" lon="3.73634">
        <ele>1084.855</ele>
        <time>2012-05-22T12:22:10Z</time>
      </trkpt>
      <trkpt lat="44.48755" lon="3.7363">
        <ele>1084.921</ele>
        <time>2012-05-22T12:22:22Z</time>
      </trkpt>
      <trkpt lat="44.48762" lon="3.7364">
        <ele>1086.293</ele>
        <time>2012-05-22T12:22:36Z</time>
      </trkpt>
      <trkpt lat="44.48768" lon="3.73649">
        <ele>1088.362</ele>
        <time>2012-05-22T12:22:46Z</time>
      </trkpt>
      <trkpt lat="44.4877" lon="3.73658">
        <ele>1089.278</ele>
        <time>2012-05-22T12:22:52Z</time>
      </trkpt>
      <trkpt lat="44.48771" lon="3.7366">
        <ele>1089.407</ele>
        <time>2012-05-22T12:22:54Z</time>
      </trkpt>
      <trkpt lat="44.48769" lon="3.73671">
        <ele>1090.905</ele>
        <time>2012-05-22T12:23:01Z</time>
      </trkpt>
      <trkpt lat="44.48764" lon="3.73681">
        <ele>1092.357</ele>
        <time>2012-05-22T12:23:11Z</time>
      </trkpt>
      <trkpt lat="44.48753" lon="3.73673">
        <ele>1094.173</ele>
        <time>2012-05-22T12:23:22Z</time>
      </trkpt>
      <trkpt lat="44.48745" lon="3.7367">
        <ele>1095.164</ele>
        <time>2012-05-22T12:24:00Z</time>
      </trkpt>
      <trkpt lat="44.48739" lon="3.73666">
        <ele>1095.377</ele>
        <time>2012-05-22T12:24:06Z</time>
      </trkpt>
      <trkpt lat="44.48719" lon="3.7366">
        <ele>1098.675</ele>
        <time>2012-05-22T12:24:21Z</time>
      </trkpt>
      <trkpt lat="44.48694" lon="3.73663">
        <ele>1100.64</ele>
        <time>2012-05-22T12:24:43Z</time>
      </trkpt>
      <trkpt lat="44.48675" lon="3.73676">
        <ele>1103.108</ele>
        <time>2012-05-22T12:25:04Z</time>
      </trkpt>
      <trkpt lat="44.48654" lon="3.73695">
        <ele>1105.23</ele>
        <time>2012-05-22T12:25:27Z</time>
      </trkpt>
      <trkpt lat="44.48636" lon="3.73714">
        <ele>1107.899</ele>
        <time>2012-05-22T12:25:47Z</time>
      </trkpt>
      <trkpt lat="44.48626" lon="3.73732">
        <ele>1109.752</ele>
        <time>2012-05-22T12:26:02Z</time>
      </trkpt>
      <trkpt lat="44.48626" lon="3.73741">
        <ele>1110.508</ele>
        <time>2012-05-22T12:26:09Z</time>
      </trkpt>
      <trkpt lat="44.48627" lon="3.73764">
        <ele>1113.715</ele>
        <time>2012-05-22T12:26:28Z</time>
      </trkpt>
      <trkpt lat="44.48618" lon="3.7378">
        <ele>1116.365</ele>
        <time>2012-05-22T12:26:45Z</time>
      </trkpt>
      <trkpt lat="44.48607" lon="3.73786">
        <ele>1117.402</ele>
        <time>2012-05-22T12:26:57Z</time>
      </trkpt>
      <trkpt lat="44.48604" lon="3.73786">
        <ele>1117.804</ele>
        <time>2012-05-22T12:27:00Z</time>
      </trkpt>
      <trkpt lat="44.48592" lon="3.73791">
        <ele>1120.137</ele>
        <time>2012-05-22T12:27:13Z</time>
      </trkpt>
      <trkpt lat="44.48586" lon="3.73793">
        <ele>1120.793</ele>
        <time>2012-05-22T12:27:19Z</time>
      </trkpt>
      <trkpt lat="44.48572" lon="3.73807">
        <ele>1122.038</ele>
        <time>2012-05-22T12:27:37Z</time>
      </trkpt>
      <trkpt lat="44.48565" lon="3.73813">
        <ele>1124.074</ele>
        <time>2012-05-22T12:30:02Z</time>
      </trkpt>
      <trkpt lat="44.48561" lon="3.73814">
        <ele>1123.994</ele>
        <time>2012-05-22T12:30:06Z</time>
      </trkpt>
      <trkpt lat="44.48559" lon="3.73819">
        <ele>1123.727</ele>
        <time>2012-05-22T12:30:09Z</time>
      </trkpt>
      <trkpt lat="44.48542" lon="3.73835">
        <ele>1124.196</ele>
        <time>2012-05-22T12:30:26Z</time>
      </trkpt>
      <trkpt lat="44.48522" lon="3.73856">
        <ele>1124.531</ele>
        <time>2012-05-22T12:30:47Z</time>
      </trkpt>
      <trkpt lat="44.48501" lon="3.73876">
        <ele>1125.3</ele>
        <time>2012-05-22T12:31:08Z</time>
      </trkpt>
      <trkpt lat="44.48481" lon="3.73895">
        <ele>1126.599</ele>
        <time>2012-05-22T12:31:30Z</time>
      </trkpt>
      <trkpt lat="44.48468" lon="3.73907">
        <ele>1127.927</ele>
        <time>2012-05-22T12:31:45Z</time>
      </trkpt>
      <trkpt lat="44.4845" lon="3.73925">
        <ele>1128.849</ele>
        <time>2012-05-22T12:32:06Z</time>
      </trkpt>
      <trkpt lat="44.48433" lon="3.73943">
        <ele>1128.603</ele>
        <time>2012-05-22T12:32:25Z</time>
      </trkpt>
      <trkpt lat="44.48415" lon="3.73959">
        <ele>1129.032</ele>
        <time>2012-05-22T12:32:42Z</time>
      </trkpt>
      <trkpt lat="44.48396" lon="3.73983">
        <ele>1130.876</ele>
        <time>2012-05-22T12:33:05Z</time>
      </trkpt>
      <trkpt lat="44.48378" lon="3.74003">
        <ele>1131.529</ele>
        <time>2012-05-22T12:33:25Z</time>
      </trkpt>
      <trkpt lat="44.48358" lon="3.74019">
        <ele>1133.852</ele>
        <time>2012-05-22T12:33:46Z</time>
      </trkpt>
      <trkpt lat="44.48343" lon="3.74019">
        <ele>1136.16</ele>
        <time>2012-05-22T12:34:01Z</time>
      </trkpt>
      <trkpt lat="44.4834" lon="3.74017">
        <ele>1136.487</ele>
        <time>2012-05-22T12:34:04Z</time>
      </trkpt>
      <trkpt lat="44.4833" lon="3.73997">
        <ele>1139.367</ele>
        <time>2012-05-22T12:34:22Z</time>
      </trkpt>
      <trkpt lat="44.48327" lon="3.73986">
        <ele>1140.414</ele>
        <time>2012-05-22T12:34:31Z</time>
      </trkpt>
      <trkpt lat="44.4832" lon="3.73971">
        <ele>1142.19</ele>
        <time>2012-05-22T12:34:45Z</time>
      </trkpt>
      <trkpt lat="44.48315" lon="3.73961">
        <ele>1144.107</ele>
        <time>2012-05-22T12:34:54Z</time>
      </trkpt>
      <trkpt lat="44.48312" lon="3.73957">
        <ele>1144.678</ele>
        <time>2012-05-22T12:34:58Z</time>
      </trkpt>
      <trkpt lat="44.48309" lon="3.73955">
        <ele>1144.611</ele>
        <time>2012-05-22T12:35:01Z</time>
      </trkpt>
      <trkpt lat="44.48308" lon="3.73953">
        <ele>1144.566</ele>
        <time>2012-05-22T12:35:03Z</time>
      </trkpt>
      <trkpt lat="44.483" lon="3.73931">
        <ele>1147.927</ele>
        <time>2012-05-22T12:35:19Z</time>
      </trkpt>
      <trkpt lat="44.48299" lon="3.73926">
        <ele>1148.657</ele>
        <time>2012-05-22T12:35:22Z</time>
      </trkpt>
      <trkpt lat="44.4829" lon="3.7391">
        <ele>1150.61</ele>
        <time>2012-05-22T12:35:36Z</time>
      </trkpt>
      <trkpt lat="44.48282" lon="3.739">
        <ele>1151.765</ele>
        <time>2012-05-22T12:35:46Z</time>
      </trkpt>
      <trkpt lat="44.48262" lon="3.73892">
        <ele>1153.823</ele>
        <time>2012-05-22T12:36:16Z</time>
      </trkpt>
      <trkpt lat="44.48254" lon="3.73893">
        <ele>1154.178</ele>
        <time>2012-05-22T12:36:25Z</time>
      </trkpt>
      <trkpt lat="44.4823" lon="3.73897">
        <ele>1155.19</ele>
        <time>2012-05-22T12:36:47Z</time>
      </trkpt>
      <trkpt lat="44.48207" lon="3.73909">
        <ele>1157.26</ele>
        <time>2012-05-22T12:37:11Z</time>
      </trkpt>
      <trkpt lat="44.48188" lon="3.73922">
        <ele>1160.374</ele>
        <time>2012-05-22T12:37:32Z</time>
      </trkpt>
      <trkpt lat="44.48179" lon="3.73929">
        <ele>1161.738</ele>
        <time>2012-05-22T12:37:43Z</time>
      </trkpt>
      <trkpt lat="44.48161" lon="3.73942">
        <ele>1165.333</ele>
        <time>2012-05-22T12:38:04Z</time>
      </trkpt>
      <trkpt lat="44.48153" lon="3.73946">
        <ele>1166.873</ele>
        <time>2012-05-22T12:38:11Z</time>
      </trkpt>
      <trkpt lat="44.4813" lon="3.73956">
        <ele>1168.396</ele>
        <time>2012-05-22T12:38:33Z</time>
      </trkpt>
      <trkpt lat="44.48111" lon="3.73962">
        <ele>1171.616</ele>
        <time>2012-05-22T12:38:52Z</time>
      </trkpt>
      <trkpt lat="44.48102" lon="3.73964">
        <ele>1173.167</ele>
        <time>2012-05-22T12:39:00Z</time>
      </trkpt>
      <trkpt lat="44.48083" lon="3.73968">
        <ele>1172.967</ele>
        <time>2012-05-22T12:39:18Z</time>
      </trkpt>
      <trkpt lat="44.48066" lon="3.73974">
        <ele>1175.831</ele>
        <time>2012-05-22T12:39:35Z</time>
      </trkpt>
      <trkpt lat="44.48049" lon="3.73987">
        <ele>1177.016</ele>
        <time>2012-05-22T12:39:53Z</time>
      </trkpt>
      <trkpt lat="44.48029" lon="3.73994">
        <ele>1178.509</ele>
        <time>2012-05-22T12:40:13Z</time>
      </trkpt>
      <trkpt lat="44.4802" lon="3.73997">
        <ele>1179.992</ele>
        <time>2012-05-22T12:40:21Z</time>
      </trkpt>
      <trkpt lat="44.48007" lon="3.74004">
        <ele>1181.105</ele>
        <time>2012-05-22T12:40:35Z</time>
      </trkpt>
      <trkpt lat="44.47992" lon="3.74011">
        <ele>1182.353</ele>
        <time>2012-05-22T12:40:49Z</time>
      </trkpt>
      <trkpt lat="44.47975" lon="3.74021">
        <ele>1183.304</ele>
        <time>2012-05-22T12:41:06Z</time>
      </trkpt>
      <trkpt lat="44.47962" lon="3.74028">
        <ele>1184.158</ele>
        <time>2012-05-22T12:41:20Z</time>
      </trkpt>
      <trkpt lat="44.47951" lon="3.74036">
        <ele>1185.329</ele>
        <time>2012-05-22T12:41:32Z</time>
      </trkpt>
      <trkpt lat="44.47933" lon="3.7404">
        <ele>1186.743</ele>
        <time>2012-05-22T12:41:49Z</time>
      </trkpt>
      <trkpt lat="44.47931" lon="3.7404">
        <ele>1186.828</ele>
        <time>2012-05-22T12:41:51Z</time>
      </trkpt>
      <trkpt lat="44.47911" lon="3.74042">
        <ele>1187.944</ele>
        <time>2012-05-22T12:42:10Z</time>
      </trkpt>
      <trkpt lat="44.47895" lon="3.74044">
        <ele>1189.091</ele>
        <time>2012-05-22T12:42:27Z</time>
      </trkpt>
      <trkpt lat="44.47885" lon="3.74045">
        <ele>1188.984</ele>
        <time>2012-05-22T12:45:19Z</time>
      </trkpt>
      <trkpt lat="44.47883" lon="3.74048">
        <ele>1188.672</ele>
        <time>2012-05-22T12:45:22Z</time>
      </trkpt>
      <trkpt lat="44.47873" lon="3.7405">
        <ele>1188.8</ele>
        <time>2012-05-22T12:45:41Z</time>
      </trkpt>
      <trkpt lat="44.4785" lon="3.74049">
        <ele>1189.267</ele>
        <time>2012-05-22T12:46:03Z</time>
      </trkpt>
      <trkpt lat="44.47826" lon="3.7405">
        <ele>1189.524</ele>
        <time>2012-05-22T12:46:24Z</time>
      </trkpt>
      <trkpt lat="44.47799" lon="3.74051">
        <ele>1188.775</ele>
        <time>2012-05-22T12:46:46Z</time>
      </trkpt>
      <trkpt lat="44.47782" lon="3.74046">
        <ele>1189.464</ele>
        <time>2012-05-22T12:47:05Z</time>
      </trkpt>
      <trkpt lat="44.47772" lon="3.74047">
        <ele>1189.244</ele>
        <time>2012-05-22T12:47:14Z</time>
      </trkpt>
      <trkpt lat="44.47761" lon="3.74045">
        <ele>1189.784</ele>
        <time>2012-05-22T12:47:23Z</time>
      </trkpt>
      <trkpt lat="44.47737" lon="3.74034">
        <ele>1188.924</ele>
        <time>2012-05-22T12:47:45Z</time>
      </trkpt>
      <trkpt lat="44.4771" lon="3.74024">
        <ele>1189.031</ele>
        <time>2012-05-22T12:48:09Z</time>
      </trkpt>
      <trkpt lat="44.47686" lon="3.74015">
        <ele>1189.12</ele>
        <time>2012-05-22T12:48:31Z</time>
      </trkpt>
      <trkpt lat="44.47684" lon="3.74014">
        <ele>1189.421</ele>
        <time>2012-05-22T12:48:33Z</time>
      </trkpt>
      <trkpt lat="44.4766" lon="3.74008">
        <ele>1189.98</ele>
        <time>2012-05-22T12:48:55Z</time>
      </trkpt>
      <trkpt lat="44.47636" lon="3.74004">
        <ele>1191.069</ele>
        <time>2012-05-22T12:49:17Z</time>
      </trkpt>
      <trkpt lat="44.47619" lon="3.74001">
        <ele>1192.697</ele>
        <time>2012-05-22T12:49:33Z</time>
      </trkpt>
      <trkpt lat="44.47601" lon="3.73997">
        <ele>1193.653</ele>
        <time>2012-05-22T12:49:50Z</time>
      </trkpt>
      <trkpt lat="44.47581" lon="3.7399">
        <ele>1195.337</ele>
        <time>2012-05-22T12:50:10Z</time>
      </trkpt>
      <trkpt lat="44.47578" lon="3.73989">
        <ele>1196.25</ele>
        <time>2012-05-22T12:50:13Z</time>
      </trkpt>
      <trkpt lat="44.47555" lon="3.73985">
        <ele>1198.684</ele>
        <time>2012-05-22T12:50:34Z</time>
      </trkpt>
      <trkpt lat="44.47534" lon="3.73972">
        <ele>1199.79</ele>
        <time>2012-05-22T12:50:56Z</time>
      </trkpt>
      <trkpt lat="44.47515" lon="3.73949">
        <ele>1200.497</ele>
        <time>2012-05-22T12:51:19Z</time>
      </trkpt>
      <trkpt lat="44.47502" lon="3.73928">
        <ele>1199.741</ele>
        <time>2012-05-22T12:51:36Z</time>
      </trkpt>
      <trkpt lat="44.47481" lon="3.73894">
        <ele>1198.918</ele>
        <time>2012-05-22T12:52:04Z</time>
      </trkpt>
      <trkpt lat="44.47461" lon="3.73872">
        <ele>1198.108</ele>
        <time>2012-05-22T12:52:25Z</time>
      </trkpt>
      <trkpt lat="44.47439" lon="3.73857">
        <ele>1197.506</ele>
        <time>2012-05-22T12:52:46Z</time>
      </trkpt>
      <trkpt lat="44.47414" lon="3.73846">
        <ele>1197.459</ele>
        <time>2012-05-22T12:53:09Z</time>
      </trkpt>
      <trkpt lat="44.47406" lon="3.73846">
        <ele>1196.508</ele>
        <time>2012-05-22T12:53:16Z</time>
      </trkpt>
      <trkpt lat="44.47387" lon="3.73842">
        <ele>1197.47</ele>
        <time>2012-05-22T12:53:34Z</time>
      </trkpt>
      <trkpt lat="44.47368" lon="3.73834">
        <ele>1199.941</ele>
        <time>2012-05-22T12:53:54Z</time>
      </trkpt>
      <trkpt lat="44.47365" lon="3.73833">
        <ele>1200.468</ele>
        <time>2012-05-22T12:53:57Z</time>
      </trkpt>
      <trkpt lat="44.47352" lon="3.73831">
        <ele>1200.97</ele>
        <time>2012-05-22T12:54:11Z</time>
      </trkpt>
      <trkpt lat="44.47344" lon="3.73832">
        <ele>1202.205</ele>
        <time>2012-05-22T12:54:19Z</time>
      </trkpt>
      <trkpt lat="44.47332" lon="3.73832">
        <ele>1203.59</ele>
        <time>2012-05-22T12:54:32Z</time>
      </trkpt>
      <trkpt lat="44.47327" lon="3.73831">
        <ele>1204.373</ele>
        <time>2012-05-22T12:54:37Z</time>
      </trkpt>
      <trkpt lat="44.47313" lon="3.73834">
        <ele>1206.547</ele>
        <time>2012-05-22T12:54:52Z</time>
      </trkpt>
      <trkpt lat="44.47302" lon="3.73834">
        <ele>1207.996</ele>
        <time>2012-05-22T12:55:05Z</time>
      </trkpt>
      <trkpt lat="44.47292" lon="3.73832">
        <ele>1209.784</ele>
        <time>2012-05-22T12:55:17Z</time>
      </trkpt>
      <trkpt lat="44.4728" lon="3.73832">
        <ele>1211.892</ele>
        <time>2012-05-22T12:55:33Z</time>
      </trkpt>
      <trkpt lat="44.47271" lon="3.73828">
        <ele>1215.069</ele>
        <time>2012-05-22T12:55:45Z</time>
      </trkpt>
      <trkpt lat="44.47263" lon="3.73822">
        <ele>1216.795</ele>
        <time>2012-05-22T12:55:57Z</time>
      </trkpt>
      <trkpt lat="44.47252" lon="3.73817">
        <ele>1219.62</ele>
        <time>2012-05-22T12:56:12Z</time>
      </trkpt>
      <trkpt lat="44.47243" lon="3.73811">
        <ele>1221.608</ele>
        <time>2012-05-22T12:56:25Z</time>
      </trkpt>
      <trkpt lat="44.47229" lon="3.73808">
        <ele>1224.697</ele>
        <time>2012-05-22T12:56:43Z</time>
      </trkpt>
      <trkpt lat="44.47224" lon="3.73812">
        <ele>1225.668</ele>
        <time>2012-05-22T12:56:51Z</time>
      </trkpt>
      <trkpt lat="44.4721" lon="3.73812">
        <ele>1226.567</ele>
        <time>2012-05-22T12:57:04Z</time>
      </trkpt>
      <trkpt lat="44.47199" lon="3.73813">
        <ele>1227.516</ele>
        <time>2012-05-22T12:57:17Z</time>
      </trkpt>
      <trkpt lat="44.47186" lon="3.73813">
        <ele>1229.562</ele>
        <time>2012-05-22T12:57:30Z</time>
      </trkpt>
      <trkpt lat="44.47174" lon="3.73817">
        <ele>1230.11</ele>
        <time>2012-05-22T12:57:44Z</time>
      </trkpt>
      <trkpt lat="44.47163" lon="3.73819">
        <ele>1231.491</ele>
        <time>2012-05-22T12:57:56Z</time>
      </trkpt>
      <trkpt lat="44.47156" lon="3.73822">
        <ele>1232.575</ele>
        <time>2012-05-22T12:58:04Z</time>
      </trkpt>
      <trkpt lat="44.47142" lon="3.73825">
        <ele>1233.266</ele>
        <time>2012-05-22T12:58:17Z</time>
      </trkpt>
      <trkpt lat="44.47137" lon="3.73827">
        <ele>1234.244</ele>
        <time>2012-05-22T12:58:23Z</time>
      </trkpt>
      <trkpt lat="44.47133" lon="3.73832">
        <ele>1234.615</ele>
        <time>2012-05-22T12:58:30Z</time>
      </trkpt>
      <trkpt lat="44.4712" lon="3.73842">
        <ele>1236.467</ele>
        <time>2012-05-22T12:58:43Z</time>
      </trkpt>
      <trkpt lat="44.47111" lon="3.73847">
        <ele>1238.029</ele>
        <time>2012-05-22T12:58:53Z</time>
      </trkpt>
      <trkpt lat="44.47097" lon="3.73851">
        <ele>1239.711</ele>
        <time>2012-05-22T12:59:05Z</time>
      </trkpt>
      <trkpt lat="44.47094" lon="3.73852">
        <ele>1240.018</ele>
        <time>2012-05-22T12:59:09Z</time>
      </trkpt>
      <trkpt lat="44.4709" lon="3.73854">
        <ele>1240.285</ele>
        <time>2012-05-22T12:59:12Z</time>
      </trkpt>
      <trkpt lat="44.47086" lon="3.7386">
        <ele>1239.924</ele>
        <time>2012-05-22T12:59:19Z</time>
      </trkpt>
      <trkpt lat="44.47082" lon="3.73873">
        <ele>1241.373</ele>
        <time>2012-05-22T12:59:29Z</time>
      </trkpt>
      <trkpt lat="44.47081" lon="3.73876">
        <ele>1241.754</ele>
        <time>2012-05-22T12:59:31Z</time>
      </trkpt>
      <trkpt lat="44.47079" lon="3.73883">
        <ele>1242.415</ele>
        <time>2012-05-22T12:59:37Z</time>
      </trkpt>
      <trkpt lat="44.47077" lon="3.73893">
        <ele>1242.939</ele>
        <time>2012-05-22T12:59:45Z</time>
      </trkpt>
      <trkpt lat="44.47069" lon="3.73908">
        <ele>1243.993</ele>
        <time>2012-05-22T13:00:00Z</time>
      </trkpt>
      <trkpt lat="44.47064" lon="3.7392">
        <ele>1244.408</ele>
        <time>2012-05-22T13:00:09Z</time>
      </trkpt>
      <trkpt lat="44.47055" lon="3.73938">
        <ele>1246.29</ele>
        <time>2012-05-22T13:00:26Z</time>
      </trkpt>
      <trkpt lat="44.47052" lon="3.73949">
        <ele>1247.871</ele>
        <time>2012-05-22T13:00:34Z</time>
      </trkpt>
      <trkpt lat="44.47043" lon="3.73963">
        <ele>1247.974</ele>
        <time>2012-05-22T13:00:48Z</time>
      </trkpt>
      <trkpt lat="44.47035" lon="3.73976">
        <ele>1249.945</ele>
        <time>2012-05-22T13:01:01Z</time>
      </trkpt>
      <trkpt lat="44.4703" lon="3.73985">
        <ele>1250.855</ele>
        <time>2012-05-22T13:01:08Z</time>
      </trkpt>
      <trkpt lat="44.47021" lon="3.74005">
        <ele>1252.092</ele>
        <time>2012-05-22T13:01:25Z</time>
      </trkpt>
      <trkpt lat="44.47009" lon="3.74021">
        <ele>1253.167</ele>
        <time>2012-05-22T13:01:41Z</time>
      </trkpt>
      <trkpt lat="44.46994" lon="3.74032">
        <ele>1254.232</ele>
        <time>2012-05-22T13:01:57Z</time>
      </trkpt>
      <trkpt lat="44.46989" lon="3.74037">
        <ele>1254.558</ele>
        <time>2012-05-22T13:02:02Z</time>
      </trkpt>
      <trkpt lat="44.46984" lon="3.74039">
        <ele>1253.777</ele>
        <time>2012-05-22T13:02:07Z</time>
      </trkpt>
      <trkpt lat="44.46977" lon="3.74048">
        <ele>1256.222</ele>
        <time>2012-05-22T13:02:16Z</time>
      </trkpt>
      <trkpt lat="44.46971" lon="3.74054">
        <ele>1256.024</ele>
        <time>2012-05-22T13:02:24Z</time>
      </trkpt>
      <trkpt lat="44.46963" lon="3.74059">
        <ele>1256.607</ele>
        <time>2012-05-22T13:02:32Z</time>
      </trkpt>
      <trkpt lat="44.46959" lon="3.7406">
        <ele>1256.746</ele>
        <time>2012-05-22T13:02:36Z</time>
      </trkpt>
      <trkpt lat="44.46951" lon="3.74068">
        <ele>1257.025</ele>
        <time>2012-05-22T13:02:45Z</time>
      </trkpt>
      <trkpt lat="44.46938" lon="3.74087">
        <ele>1257.424</ele>
        <time>2012-05-22T13:03:01Z</time>
      </trkpt>
      <trkpt lat="44.46935" lon="3.74092">
        <ele>1257.503</ele>
        <time>2012-05-22T13:03:06Z</time>
      </trkpt>
      <trkpt lat="44.4692" lon="3.74111">
        <ele>1259.182</ele>
        <time>2012-05-22T13:03:24Z</time>
      </trkpt>
      <trkpt lat="44.46913" lon="3.74122">
        <ele>1259.1</ele>
        <time>2012-05-22T13:03:34Z</time>
      </trkpt>
      <trkpt lat="44.46908" lon="3.74129">
        <ele>1259.743</ele>
        <time>2012-05-22T13:03:41Z</time>
      </trkpt>
      <trkpt lat="44.46891" lon="3.74144">
        <ele>1260.86</ele>
        <time>2012-05-22T13:04:00Z</time>
      </trkpt>
      <trkpt lat="44.46881" lon="3.74155">
        <ele>1261.827</ele>
        <time>2012-05-22T13:04:12Z</time>
      </trkpt>
      <trkpt lat="44.46878" lon="3.7416">
        <ele>1261.921</ele>
        <time>2012-05-22T13:04:16Z</time>
      </trkpt>
      <trkpt lat="44.46866" lon="3.74175">
        <ele>1263.987</ele>
        <time>2012-05-22T13:04:31Z</time>
      </trkpt>
      <trkpt lat="44.46862" lon="3.74186">
        <ele>1264.245</ele>
        <time>2012-05-22T13:04:39Z</time>
      </trkpt>
      <trkpt lat="44.4686" lon="3.7419">
        <ele>1264.632</ele>
        <time>2012-05-22T13:04:43Z</time>
      </trkpt>
      <trkpt lat="44.46858" lon="3.74195">
        <ele>1265.086</ele>
        <time>2012-05-22T13:04:47Z</time>
      </trkpt>
      <trkpt lat="44.46856" lon="3.74204">
        <ele>1265.559</ele>
        <time>2012-05-22T13:04:54Z</time>
      </trkpt>
      <trkpt lat="44.46854" lon="3.74207">
        <ele>1265.998</ele>
        <time>2012-05-22T13:04:57Z</time>
      </trkpt>
      <trkpt lat="44.46852" lon="3.74218">
        <ele>1266.552</ele>
        <time>2012-05-22T13:05:06Z</time>
      </trkpt>
      <trkpt lat="44.46847" lon="3.74229">
        <ele>1268.014</ele>
        <time>2012-05-22T13:05:16Z</time>
      </trkpt>
      <trkpt lat="44.46842" lon="3.74248">
        <ele>1270.498</ele>
        <time>2012-05-22T13:05:32Z</time>
      </trkpt>
      <trkpt lat="44.46841" lon="3.74259">
        <ele>1271.751</ele>
        <time>2012-05-22T13:05:39Z</time>
      </trkpt>
      <trkpt lat="44.4684" lon="3.74264">
        <ele>1272.046</ele>
        <time>2012-05-22T13:05:42Z</time>
      </trkpt>
      <trkpt lat="44.46838" lon="3.74275">
        <ele>1273.065</ele>
        <time>2012-05-22T13:05:50Z</time>
      </trkpt>
      <trkpt lat="44.46835" lon="3.74282">
        <ele>1273.526</ele>
        <time>2012-05-22T13:05:58Z</time>
      </trkpt>
      <trkpt lat="44.46837" lon="3.74287">
        <ele>1273.946</ele>
        <time>2012-05-22T13:06:01Z</time>
      </trkpt>
      <trkpt lat="44.46847" lon="3.74308">
        <ele>1274.693</ele>
        <time>2012-05-22T13:06:15Z</time>
      </trkpt>
      <trkpt lat="44.46848" lon="3.74316">
        <ele>1274.891</ele>
        <time>2012-05-22T13:06:19Z</time>
      </trkpt>
      <trkpt lat="44.46848" lon="3.74325">
        <ele>1274.645</ele>
        <time>2012-05-22T13:06:24Z</time>
      </trkpt>
      <trkpt lat="44.46854" lon="3.74347">
        <ele>1275.708</ele>
        <time>2012-05-22T13:06:38Z</time>
      </trkpt>
      <trkpt lat="44.46856" lon="3.74358">
        <ele>1275.265</ele>
        <time>2012-05-22T13:06:45Z</time>
      </trkpt>
      <trkpt lat="44.46858" lon="3.74367">
        <ele>1276.833</ele>
        <time>2012-05-22T13:06:52Z</time>
      </trkpt>
      <trkpt lat="44.46861" lon="3.74383">
        <ele>1278.176</ele>
        <time>2012-05-22T13:07:03Z</time>
      </trkpt>
      <trkpt lat="44.46862" lon="3.74404">
        <ele>1279.343</ele>
        <time>2012-05-22T13:07:16Z</time>
      </trkpt>
      <trkpt lat="44.46863" lon="3.74411">
        <ele>1279.307</ele>
        <time>2012-05-22T13:07:21Z</time>
      </trkpt>
      <trkpt lat="44.46862" lon="3.74432">
        <ele>1280.701</ele>
        <time>2012-05-22T13:07:37Z</time>
      </trkpt>
      <trkpt lat="44.46853" lon="3.74458">
        <ele>1282.502</ele>
        <time>2012-05-22T13:07:56Z</time>
      </trkpt>
      <trkpt lat="44.46849" lon="3.7446">
        <ele>1283.082</ele>
        <time>2012-05-22T13:07:59Z</time>
      </trkpt>
      <trkpt lat="44.46848" lon="3.74463">
        <ele>1283.015</ele>
        <time>2012-05-22T13:08:01Z</time>
      </trkpt>
      <trkpt lat="44.4684" lon="3.74475">
        <ele>1286.11</ele>
        <time>2012-05-22T13:08:16Z</time>
      </trkpt>
      <trkpt lat="44.46829" lon="3.74488">
        <ele>1288.578</ele>
        <time>2012-05-22T13:08:32Z</time>
      </trkpt>
      <trkpt lat="44.46826" lon="3.74491">
        <ele>1289.415</ele>
        <time>2012-05-22T13:08:36Z</time>
      </trkpt>
      <trkpt lat="44.46812" lon="3.74511">
        <ele>1292.131</ele>
        <time>2012-05-22T13:08:58Z</time>
      </trkpt>
      <trkpt lat="44.46808" lon="3.74517">
        <ele>1292.379</ele>
        <time>2012-05-22T13:09:04Z</time>
      </trkpt>
      <trkpt lat="44.46807" lon="3.7452">
        <ele>1292.252</ele>
        <time>2012-05-22T13:09:07Z</time>
      </trkpt>
      <trkpt lat="44.46799" lon="3.74534">
        <ele>1294.088</ele>
        <time>2012-05-22T13:09:21Z</time>
      </trkpt>
      <trkpt lat="44.46788" lon="3.74543">
        <ele>1296.051</ele>
        <time>2012-05-22T13:09:36Z</time>
      </trkpt>
      <trkpt lat="44.46779" lon="3.74549">
        <ele>1299.075</ele>
        <time>2012-05-22T13:09:51Z</time>
      </trkpt>
      <trkpt lat="44.46774" lon="3.74553">
        <ele>1299.823</ele>
        <time>2012-05-22T13:10:01Z</time>
      </trkpt>
      <trkpt lat="44.4677" lon="3.74556">
        <ele>1301.268</ele>
        <time>2012-05-22T13:10:06Z</time>
      </trkpt>
      <trkpt lat="44.46764" lon="3.74561">
        <ele>1302.709</ele>
        <time>2012-05-22T13:10:15Z</time>
      </trkpt>
      <trkpt lat="44.46759" lon="3.74566">
        <ele>1303.599</ele>
        <time>2012-05-22T13:10:22Z</time>
      </trkpt>
      <trkpt lat="44.46756" lon="3.74569">
        <ele>1304.682</ele>
        <time>2012-05-22T13:10:26Z</time>
      </trkpt>
      <trkpt lat="44.46751" lon="3.74581">
        <ele>1305.657</ele>
        <time>2012-05-22T13:10:39Z</time>
      </trkpt>
      <trkpt lat="44.46749" lon="3.74584">
        <ele>1305.8</ele>
        <time>2012-05-22T13:10:42Z</time>
      </trkpt>
      <trkpt lat="44.46745" lon="3.74586">
        <ele>1306.909</ele>
        <time>2012-05-22T13:10:46Z</time>
      </trkpt>
      <trkpt lat="44.46728" lon="3.74601">
        <ele>1308.17</ele>
        <time>2012-05-22T13:11:07Z</time>
      </trkpt>
      <trkpt lat="44.46716" lon="3.74611">
        <ele>1311.385</ele>
        <time>2012-05-22T13:11:24Z</time>
      </trkpt>
      <trkpt lat="44.46706" lon="3.74615">
        <ele>1313.977</ele>
        <time>2012-05-22T13:11:40Z</time>
      </trkpt>
      <trkpt lat="44.46696" lon="3.74622">
        <ele>1316.61</ele>
        <time>2012-05-22T13:11:53Z</time>
      </trkpt>
      <trkpt lat="44.46693" lon="3.74625">
        <ele>1316.928</ele>
        <time>2012-05-22T13:11:58Z</time>
      </trkpt>
      <trkpt lat="44.46684" lon="3.74634">
        <ele>1318.757</ele>
        <time>2012-05-22T13:12:11Z</time>
      </trkpt>
      <trkpt lat="44.46668" lon="3.74642">
        <ele>1320.016</ele>
        <time>2012-05-22T13:12:29Z</time>
      </trkpt>
      <trkpt lat="44.46656" lon="3.74648">
        <ele>1322.562</ele>
        <time>2012-05-22T13:12:43Z</time>
      </trkpt>
      <trkpt lat="44.46647" lon="3.74651">
        <ele>1323.443</ele>
        <time>2012-05-22T13:12:55Z</time>
      </trkpt>
      <trkpt lat="44.46637" lon="3.74652">
        <ele>1324.812</ele>
        <time>2012-05-22T13:13:07Z</time>
      </trkpt>
      <trkpt lat="44.46623" lon="3.74654">
        <ele>1327.443</ele>
        <time>2012-05-22T13:13:22Z</time>
      </trkpt>
      <trkpt lat="44.46615" lon="3.74659">
        <ele>1328.556</ele>
        <time>2012-05-22T13:13:33Z</time>
      </trkpt>
      <trkpt lat="44.46606" lon="3.74666">
        <ele>1330.499</ele>
        <time>2012-05-22T13:13:45Z</time>
      </trkpt>
      <trkpt lat="44.46595" lon="3.74667">
        <ele>1331.692</ele>
        <time>2012-05-22T13:14:00Z</time>
      </trkpt>
      <trkpt lat="44.46583" lon="3.7467">
        <ele>1334.574</ele>
        <time>2012-05-22T13:14:14Z</time>
      </trkpt>
      <trkpt lat="44.46573" lon="3.74676">
        <ele>1334.995</ele>
        <time>2012-05-22T13:14:25Z</time>
      </trkpt>
      <trkpt lat="44.46565" lon="3.7469">
        <ele>1337.216</ele>
        <time>2012-05-22T13:14:39Z</time>
      </trkpt>
      <trkpt lat="44.46559" lon="3.74696">
        <ele>1337.87</ele>
        <time>2012-05-22T13:14:47Z</time>
      </trkpt>
      <trkpt lat="44.46557" lon="3.74699">
        <ele>1338.393</ele>
        <time>2012-05-22T13:14:50Z</time>
      </trkpt>
      <trkpt lat="44.46551" lon="3.74706">
        <ele>1339.319</ele>
        <time>2012-05-22T13:14:57Z</time>
      </trkpt>
      <trkpt lat="44.46549" lon="3.74711">
        <ele>1339.35</ele>
        <time>2012-05-22T13:15:02Z</time>
      </trkpt>
      <trkpt lat="44.46547" lon="3.74714">
        <ele>1339.177</ele>
        <time>2012-05-22T13:15:05Z</time>
      </trkpt>
      <trkpt lat="44.46544" lon="3.74718">
        <ele>1339.551</ele>
        <time>2012-05-22T13:15:09Z</time>
      </trkpt>
      <trkpt lat="44.46541" lon="3.7472">
        <ele>1339.385</ele>
        <time>2012-05-22T13:15:12Z</time>
      </trkpt>
      <trkpt lat="44.46522" lon="3.74737">
        <ele>1340.845</ele>
        <time>2012-05-22T13:15:33Z</time>
      </trkpt>
      <trkpt lat="44.4651" lon="3.74744">
        <ele>1342.113</ele>
        <time>2012-05-22T13:15:47Z</time>
      </trkpt>
      <trkpt lat="44.46494" lon="3.74762">
        <ele>1345.112</ele>
        <time>2012-05-22T13:16:09Z</time>
      </trkpt>
      <trkpt lat="44.46479" lon="3.74775">
        <ele>1347.028</ele>
        <time>2012-05-22T13:16:27Z</time>
      </trkpt>
      <trkpt lat="44.46469" lon="3.74783">
        <ele>1350.53</ele>
        <time>2012-05-22T13:16:40Z</time>
      </trkpt>
      <trkpt lat="44.46454" lon="3.74792">
        <ele>1354.155</ele>
        <time>2012-05-22T13:16:59Z</time>
      </trkpt>
      <trkpt lat="44.4644" lon="3.74798">
        <ele>1357.525</ele>
        <time>2012-05-22T13:17:14Z</time>
      </trkpt>
      <trkpt lat="44.46425" lon="3.74812">
        <ele>1359.984</ele>
        <time>2012-05-22T13:17:34Z</time>
      </trkpt>
      <trkpt lat="44.46417" lon="3.7482">
        <ele>1360.998</ele>
        <time>2012-05-22T13:17:46Z</time>
      </trkpt>
      <trkpt lat="44.464" lon="3.74826">
        <ele>1364.902</ele>
        <time>2012-05-22T13:18:07Z</time>
      </trkpt>
      <trkpt lat="44.4639" lon="3.74829">
        <ele>1368.013</ele>
        <time>2012-05-22T13:18:21Z</time>
      </trkpt>
      <trkpt lat="44.46378" lon="3.74828">
        <ele>1371.056</ele>
        <time>2012-05-22T13:18:36Z</time>
      </trkpt>
      <trkpt lat="44.46364" lon="3.74828">
        <ele>1373.684</ele>
        <time>2012-05-22T13:18:53Z</time>
      </trkpt>
      <trkpt lat="44.46356" lon="3.74829">
        <ele>1376.776</ele>
        <time>2012-05-22T13:19:03Z</time>
      </trkpt>
      <trkpt lat="44.46343" lon="3.74832">
        <ele>1378.866</ele>
        <time>2012-05-22T13:19:18Z</time>
      </trkpt>
      <trkpt lat="44.46329" lon="3.74835">
        <ele>1380.313</ele>
        <time>2012-05-22T13:19:34Z</time>
      </trkpt>
      <trkpt lat="44.46317" lon="3.74836">
        <ele>1383.498</ele>
        <time>2012-05-22T13:19:46Z</time>
      </trkpt>
      <trkpt lat="44.46301" lon="3.74829">
        <ele>1384.965</ele>
        <time>2012-05-22T13:20:04Z</time>
      </trkpt>
      <trkpt lat="44.46287" lon="3.74822">
        <ele>1387.429</ele>
        <time>2012-05-22T13:20:21Z</time>
      </trkpt>
      <trkpt lat="44.46273" lon="3.74819">
        <ele>1389.261</ele>
        <time>2012-05-22T13:20:37Z</time>
      </trkpt>
      <trkpt lat="44.46256" lon="3.74817">
        <ele>1391.459</ele>
        <time>2012-05-22T13:20:55Z</time>
      </trkpt>
      <trkpt lat="44.46234" lon="3.7481">
        <ele>1394.478</ele>
        <time>2012-05-22T13:21:18Z</time>
      </trkpt>
      <trkpt lat="44.46217" lon="3.74806">
        <ele>1396.228</ele>
        <time>2012-05-22T13:21:36Z</time>
      </trkpt>
      <trkpt lat="44.46195" lon="3.74799">
        <ele>1398.204</ele>
        <time>2012-05-22T13:21:59Z</time>
      </trkpt>
      <trkpt lat="44.46182" lon="3.74796">
        <ele>1399.222</ele>
        <time>2012-05-22T13:22:12Z</time>
      </trkpt>
      <trkpt lat="44.46172" lon="3.74794">
        <ele>1401.779</ele>
        <time>2012-05-22T13:22:23Z</time>
      </trkpt>
      <trkpt lat="44.4616" lon="3.74792">
        <ele>1403.359</ele>
        <time>2012-05-22T13:22:35Z</time>
      </trkpt>
      <trkpt lat="44.46141" lon="3.74794">
        <ele>1404.405</ele>
        <time>2012-05-22T13:22:55Z</time>
      </trkpt>
      <trkpt lat="44.46126" lon="3.74801">
        <ele>1405.875</ele>
        <time>2012-05-22T13:35:00Z</time>
      </trkpt>
      <trkpt lat="44.46115" lon="3.74802">
        <ele>1408.464</ele>
        <time>2012-05-22T13:35:44Z</time>
      </trkpt>
      <trkpt lat="44.46104" lon="3.748">
        <ele>1410.287</ele>
        <time>2012-05-22T13:35:57Z</time>
      </trkpt>
      <trkpt lat="44.46087" lon="3.74807">
        <ele>1410.058</ele>
        <time>2012-05-22T13:36:12Z</time>
      </trkpt>
      <trkpt lat="44.46081" lon="3.74805">
        <ele>1410.384</ele>
        <time>2012-05-22T13:36:18Z</time>
      </trkpt>
      <trkpt lat="44.4608" lon="3.74807">
        <ele>1411.772</ele>
        <time>2012-05-22T13:36:20Z</time>
      </trkpt>
      <trkpt lat="44.46059" lon="3.74813">
        <ele>1413.521</ele>
        <time>2012-05-22T13:36:37Z</time>
      </trkpt>
      <trkpt lat="44.46048" lon="3.74816">
        <ele>1413.91</ele>
        <time>2012-05-22T13:36:46Z</time>
      </trkpt>
      <trkpt lat="44.4604" lon="3.74814">
        <ele>1413.055</ele>
        <time>2012-05-22T13:36:54Z</time>
      </trkpt>
      <trkpt lat="44.46036" lon="3.74817">
        <ele>1412.825</ele>
        <time>2012-05-22T13:36:58Z</time>
      </trkpt>
      <trkpt lat="44.46016" lon="3.74836">
        <ele>1414.2</ele>
        <time>2012-05-22T13:37:18Z</time>
      </trkpt>
      <trkpt lat="44.46011" lon="3.74838">
        <ele>1414.977</ele>
        <time>2012-05-22T13:37:22Z</time>
      </trkpt>
      <trkpt lat="44.45984" lon="3.74841">
        <ele>1414.953</ele>
        <time>2012-05-22T13:37:44Z</time>
      </trkpt>
      <trkpt lat="44.45957" lon="3.74839">
        <ele>1413.096</ele>
        <time>2012-05-22T13:38:05Z</time>
      </trkpt>
      <trkpt lat="44.45935" lon="3.74844">
        <ele>1412.003</ele>
        <time>2012-05-22T13:38:21Z</time>
      </trkpt>
      <trkpt lat="44.45908" lon="3.74855">
        <ele>1411.325</ele>
        <time>2012-05-22T13:38:43Z</time>
      </trkpt>
      <trkpt lat="44.45883" lon="3.74865">
        <ele>1410.71</ele>
        <time>2012-05-22T13:39:12Z</time>
      </trkpt>
      <trkpt lat="44.45854" lon="3.74874">
        <ele>1409.035</ele>
        <time>2012-05-22T13:39:37Z</time>
      </trkpt>
      <trkpt lat="44.4583" lon="3.74879">
        <ele>1408.382</ele>
        <time>2012-05-22T13:39:57Z</time>
      </trkpt>
      <trkpt lat="44.45804" lon="3.74895">
        <ele>1408.955</ele>
        <time>2012-05-22T13:40:19Z</time>
      </trkpt>
      <trkpt lat="44.45791" lon="3.74901">
        <ele>1408.438</ele>
        <time>2012-05-22T13:40:31Z</time>
      </trkpt>
      <trkpt lat="44.45768" lon="3.74914">
        <ele>1407.986</ele>
        <time>2012-05-22T13:40:49Z</time>
      </trkpt>
      <trkpt lat="44.45741" lon="3.74926">
        <ele>1406.233</ele>
        <time>2012-05-22T13:41:11Z</time>
      </trkpt>
      <trkpt lat="44.45711" lon="3.7494">
        <ele>1408.007</ele>
        <time>2012-05-22T13:41:37Z</time>
      </trkpt>
      <trkpt lat="44.45695" lon="3.74947">
        <ele>1407.193</ele>
        <time>2012-05-22T13:41:51Z</time>
      </trkpt>
      <trkpt lat="44.4569" lon="3.74946">
        <ele>1407.723</ele>
        <time>2012-05-22T13:41:55Z</time>
      </trkpt>
      <trkpt lat="44.45663" lon="3.74944">
        <ele>1408.276</ele>
        <time>2012-05-22T13:42:15Z</time>
      </trkpt>
      <trkpt lat="44.45658" lon="3.74942">
        <ele>1408.866</ele>
        <time>2012-05-22T13:42:18Z</time>
      </trkpt>
      <trkpt lat="44.4565" lon="3.74942">
        <ele>1408.942</ele>
        <time>2012-05-22T13:42:24Z</time>
      </trkpt>
      <trkpt lat="44.45645" lon="3.7494">
        <ele>1409.667</ele>
        <time>2012-05-22T13:42:28Z</time>
      </trkpt>
      <trkpt lat="44.45642" lon="3.74939">
        <ele>1410.28</ele>
        <time>2012-05-22T13:42:57Z</time>
      </trkpt>
      <trkpt lat="44.45636" lon="3.74941">
        <ele>1411.628</ele>
        <time>2012-05-22T13:43:03Z</time>
      </trkpt>
      <trkpt lat="44.45629" lon="3.7494">
        <ele>1409.773</ele>
        <time>2012-05-22T13:43:08Z</time>
      </trkpt>
      <trkpt lat="44.45602" lon="3.74937">
        <ele>1408.974</ele>
        <time>2012-05-22T13:43:27Z</time>
      </trkpt>
      <trkpt lat="44.45566" lon="3.74931">
        <ele>1407.813</ele>
        <time>2012-05-22T13:43:55Z</time>
      </trkpt>
      <trkpt lat="44.45544" lon="3.74929">
        <ele>1410.587</ele>
        <time>2012-05-22T13:44:11Z</time>
      </trkpt>
      <trkpt lat="44.45521" lon="3.74928">
        <ele>1410.04</ele>
        <time>2012-05-22T13:44:28Z</time>
      </trkpt>
      <trkpt lat="44.45496" lon="3.74925">
        <ele>1410.1</ele>
        <time>2012-05-22T13:44:47Z</time>
      </trkpt>
      <trkpt lat="44.45464" lon="3.74924">
        <ele>1412.027</ele>
        <time>2012-05-22T13:45:12Z</time>
      </trkpt>
      <trkpt lat="44.45445" lon="3.74923">
        <ele>1412.256</ele>
        <time>2012-05-22T13:45:27Z</time>
      </trkpt>
      <trkpt lat="44.45415" lon="3.74921">
        <ele>1412.961</ele>
        <time>2012-05-22T13:45:50Z</time>
      </trkpt>
      <trkpt lat="44.45389" lon="3.74915">
        <ele>1414.105</ele>
        <time>2012-05-22T13:46:11Z</time>
      </trkpt>
      <trkpt lat="44.45365" lon="3.74905">
        <ele>1416.413</ele>
        <time>2012-05-22T13:46:33Z</time>
      </trkpt>
      <trkpt lat="44.45339" lon="3.74891">
        <ele>1418.46</ele>
        <time>2012-05-22T13:46:58Z</time>
      </trkpt>
      <trkpt lat="44.45331" lon="3.74886">
        <ele>1419.585</ele>
        <time>2012-05-22T13:47:06Z</time>
      </trkpt>
      <trkpt lat="44.4531" lon="3.74872">
        <ele>1418.863</ele>
        <time>2012-05-22T13:47:27Z</time>
      </trkpt>
      <trkpt lat="44.45305" lon="3.74864">
        <ele>1417.344</ele>
        <time>2012-05-22T13:47:34Z</time>
      </trkpt>
      <trkpt lat="44.45301" lon="3.74859">
        <ele>1419.537</ele>
        <time>2012-05-22T13:47:38Z</time>
      </trkpt>
      <trkpt lat="44.45295" lon="3.74852">
        <ele>1418.767</ele>
        <time>2012-05-22T13:47:44Z</time>
      </trkpt>
      <trkpt lat="44.45283" lon="3.74843">
        <ele>1417.944</ele>
        <time>2012-05-22T13:47:56Z</time>
      </trkpt>
      <trkpt lat="44.45264" lon="3.7483">
        <ele>1417.502</ele>
        <time>2012-05-22T13:48:15Z</time>
      </trkpt>
      <trkpt lat="44.45251" lon="3.7482">
        <ele>1415.688</ele>
        <time>2012-05-22T13:48:32Z</time>
      </trkpt>
      <trkpt lat="44.45239" lon="3.74804">
        <ele>1415.663</ele>
        <time>2012-05-22T13:48:54Z</time>
      </trkpt>
      <trkpt lat="44.45235" lon="3.74788">
        <ele>1415.175</ele>
        <time>2012-05-22T13:49:11Z</time>
      </trkpt>
      <trkpt lat="44.45236" lon="3.74782">
        <ele>1414.231</ele>
        <time>2012-05-22T13:50:33Z</time>
      </trkpt>
      <trkpt lat="44.45236" lon="3.74774">
        <ele>1413.858</ele>
        <time>2012-05-22T13:50:51Z</time>
      </trkpt>
      <trkpt lat="44.4524" lon="3.74766">
        <ele>1412.341</ele>
        <time>2012-05-22T13:51:13Z</time>
      </trkpt>
      <trkpt lat="44.45243" lon="3.74761">
        <ele>1411.843</ele>
        <time>2012-05-22T13:51:17Z</time>
      </trkpt>
      <trkpt lat="44.45251" lon="3.74755">
        <ele>1411.818</ele>
        <time>2012-05-22T13:51:28Z</time>
      </trkpt>
      <trkpt lat="44.45256" lon="3.74749">
        <ele>1415.04</ele>
        <time>2012-05-22T13:51:40Z</time>
      </trkpt>
    </trkseg>
  </trk>
</gpx>